GFSWCAN_500_spd_003.txt.gz
Wind_Speed
60 55 49 43 36 41 36 34 33 27 24 23 23 23 25 26 23 22 20 22 25 33 27 29 30 32 30 34 43 37 42 46 45 45 49 45 43 48 47 45 42 39 49 54 51 41 38 43 30 30 35 34 35 40
55 51 46 41 34 34 32 28 27 24 21 20 19 19 16 15 16 15 15 17 18 20 25 28 27 31 31 33 34 35 39 45 43 42 46 41 40 45 47 41 38 37 39 36 50 51 40 42 34 30 30 31 39 38
48 43 37 31 28 26 25 25 23 19 19 18 15 12 10 13 12 14 15 14 16 19 23 26 27 27 26 27 31 35 38 41 38 38 39 40 39 43 42 39 32 33 33 33 30 54 53 39 37 37 37 37 39 35
40 31 27 22 22 23 21 21 17 16 13 9 8 7 8 9 10 10 9 9 12 14 18 19 20 23 23 22 29 37 39 42 39 35 32 34 41 39 38 35 27 30 31 25 36 20 35 38 38 37 40 40 39 39
32 26 21 18 19 19 17 15 13 9 6 5 4 4 3 6 7 8 10 8 15 17 17 18 19 24 23 24 28 33 40 43 39 38 33 32 37 36 32 29 26 24 24 23 29 39 26 36 34 36 38 42 46 43
24 19 15 11 15 14 11 10 7 5 5 4 2 3 6 8 9 9 15 5 19 17 17 17 23 24 21 20 32 32 38 47 41 46 30 42 36 30 29 28 25 21 21 18 20 23 36 32 30 40 40 44 44 45
19 15 11 11 10 8 9 8 6 6 5 5 6 9 9 8 8 14 8 19 21 17 19 23 23 23 20 19 25 25 26 31 37 26 36 24 25 27 30 30 29 26 26 24 25 21 23 25 35 39 39 52 47 42
20 16 14 12 11 10 9 8 8 8 8 10 10 10 10 11 13 12 21 24 19 23 24 24 23 22 21 21 21 32 28 22 33 21 31 20 17 19 29 35 35 31 25 20 26 28 26 24 25 29 30 40 36 31
24 20 16 14 12 11 10 10 10 10 12 12 12 12 13 17 14 23 29 21 24 27 26 25 23 22 24 23 25 35 34 34 28 22 23 22 22 26 23 29 29 28 30 29 26 35 33 28 30 24 29 19 14 12
25 19 15 14 13 13 13 13 14 14 15 14 16 15 16 20 25 29 26 27 28 26 24 24 22 24 26 25 26 28 34 30 23 25 27 33 27 26 31 32 35 30 38 40 35 19 18 10 14 10 7 5 12 16
24 20 18 17 16 16 17 16 17 18 17 16 19 22 24 25 24 26 23 25 25 22 24 24 24 26 25 24 25 26 28 27 24 20 23 27 27 13 28 37 29 23 23 28 29 17 6 5 4 5 9 13 17 19
23 22 22 20 19 18 18 18 18 17 20 23 24 23 22 22 21 23 21 21 20 18 18 21 20 19 20 22 25 24 25 25 23 23 21 28 23 24 18 21 36 26 17 17 15 12 13 15 15 18 19 21 22 24
24 26 28 26 22 20 20 20 21 24 25 24 23 21 19 15 13 13 19 18 15 14 14 23 25 19 21 21 23 23 23 19 18 16 19 22 22 25 24 29 28 23 28 23 19 17 20 21 21 21 22 24 25 26
26 27 29 25 24 25 24 26 29 28 26 25 22 20 20 20 15 17 16 13 15 15 17 25 24 19 20 22 20 19 17 19 19 18 16 19 18 19 17 19 25 24 20 19 19 21 21 22 23 22 22 24 23 22
25 30 30 30 28 29 29 26 22 25 28 31 23 21 17 15 13 12 14 17 17 18 17 25 21 17 17 16 19 15 15 20 17 7 12 19 19 17 18 20 19 19 19 19 20 20 19 19 21 22 21 19 19 20
24 27 29 28 24 27 27 24 24 21 21 21 23 20 20 22 19 18 20 14 13 19 18 19 18 8 20 17 20 18 16 15 13 13 15 16 19 17 17 20 20 16 19 17 17 16 15 15 16 18 19 19 19 20
26 28 28 25 23 23 23 22 23 20 21 24 22 19 17 16 16 14 13 10 9 11 15 12 14 13 18 21 24 19 13 16 14 6 8 15 18 23 22 19 20 16 14 13 12 11 12 13 15 16 16 17 18 19
25 27 28 29 29 25 21 20 16 18 22 20 20 16 16 17 17 14 11 9 7 10 14 16 9 9 14 22 23 12 10 17 15 15 13 10 16 14 12 11 9 9 10 11 11 11 12 14 16 16 16 17 17 15
23 22 21 22 24 27 25 21 20 19 20 21 21 20 19 19 22 25 24 21 17 19 17 15 14 13 15 18 16 13 11 12 10 8 6 6 7 6 6 8 9 9 10 12 13 14 15 16 15 14 14 14 14 15
22 21 20 20 20 19 20 20 20 21 21 21 20 19 18 19 19 18 19 19 20 18 17 14 14 13 12 12 11 8 6 6 5 5 5 5 5 7 9 11 13 15 16 17 17 18 19 19 17 16 15 15 17 18
16 15 17 18 19 19 19 19 20 20 19 19 19 19 18 17 18 19 19 19 18 17 17 17 16 15 13 12 10 8 7 6 6 7 9 10 9 10 12 13 14 15 16 17 17 19 20 21 19 19 19 20 21 23
27 26 23 17 15 16 17 17 17 17 17 19 18 18 18 17 17 17 15 14 13 12 12 12 11 10 10 9 8 8 7 7 7 8 9 11 11 12 14 15 15 15 17 18 18 19 20 21 22 22 23 24 26 27
22 23 23 23 23 23 23 21 19 19 16 15 15 17 18 18 17 17 16 18 17 14 13 12 13 11 9 7 8 7 4 2 3 5 7 9 11 13 15 16 18 18 20 21 22 23 23 24 25 26 29 30 32 33
21 20 18 20 22 23 22 23 24 25 22 18 22 24 21 22 25 20 16 15 15 14 15 12 12 10 8 4 4 5 6 7 6 7 9 9 10 13 15 18 21 23 25 25 26 27 28 29 31 33 34 35 35 35
16 19 21 22 21 20 19 20 19 22 22 25 19 18 20 18 18 20 19 15 14 13 9 6 8 7 5 6 9 10 11 11 11 11 12 13 15 16 18 20 22 25 26 28 28 29 30 31 33 34 35 36 37 38
22 23 23 22 21 20 20 20 20 20 18 17 18 18 16 12 13 15 12 13 13 13 11 10 10 11 12 12 13 14 15 15 16 18 19 20 21 22 23 25 26 27 28 29 30 32 33 34 36 37 39 40 42 43
19 20 20 20 20 20 20 19 17 17 16 17 19 20 18 18 19 17 15 15 13 12 11 12 12 11 10 11 11 13 14 16 18 19 21 23 24 26 28 30 31 33 34 36 37 38 39 41 42 42 43 44 45 46
15 16 16 16 16 18 18 18 17 16 15 15 13 13 13 13 13 12 13 13 12 11 12 13 13 11 10 13 16 19 25 29 33 34 34 35 35 36 37 39 40 41 43 43 45 46 47 48 49 50 51 52 54 55
16 10 9 11 13 14 17 16 16 16 14 13 12 12 11 17 18 16 16 17 17 18 16 17 20 20 23 26 28 29 35 40 41 41 41 42 43 44 45 46 47 48 49 50 51 52 53 53 54 55 56 56 57 58
14 13 12 11 13 15 17 18 18 14 11 14 15 17 13 14 18 20 21 21 23 23 26 30 32 31 35 39 41 45 47 46 46 45 45 44 44 44 45 46 47 48 49 50 51 52 53 55 56 58 59 60 61 62
13 16 16 15 16 18 16 16 18 18 16 17 19 21 17 13 20 25 28 25 22 23 32 32 32 36 37 40 43 44 46 46 46 46 45 46 46 47 48 49 50 50 51 51 52 53 54 56 57 59 60 61 62 63
20 18 17 17 18 17 16 17 16 17 18 19 26 28 19 17 15 25 26 28 33 34 35 36 37 38 39 40 42 43 44 45 45 46 47 48 49 50 50 50 51 51 52 53 54 54 54 53 53 52 52 52 53 53
20 19 19 18 18 19 19 18 19 18 19 18 18 20 19 20 22 23 24 26 28 31 33 36 38 40 41 43 44 46 47 49 50 51 51 51 51 50 49 47 44 43 42 43 44 44 45 45 46 47 48 48 49 49

GFSWCAN_500_spd_006.txt.gz
Wind_Speed
73 62 44 37 36 31 31 26 24 24 24 22 18 17 18 19 20 22 18 16 18 17 20 19 23 22 22 21 23 25 29 41 45 48 49 39 30 35 38 37 53 53 51 47 47 45 37 43 36 36 27 30 33 36
55 37 35 36 30 19 17 19 20 20 20 17 15 16 16 16 13 12 13 12 13 13 18 19 21 25 24 22 19 21 23 38 41 50 45 45 43 36 45 37 42 42 44 42 50 49 54 49 36 31 30 31 30 27
43 40 35 28 21 14 16 17 17 17 13 13 12 12 10 8 8 7 8 9 10 10 16 18 19 23 24 22 22 21 24 36 42 45 46 40 34 43 42 37 38 48 45 44 41 42 40 39 45 42 35 33 32 33
39 31 27 21 15 14 16 15 13 12 11 10 8 5 5 3 1 3 5 8 10 12 17 20 22 21 19 19 27 27 31 36 40 41 44 40 37 35 41 47 42 49 40 41 39 34 31 35 38 39 41 37 37 36
35 31 25 20 16 17 14 13 12 9 8 7 6 5 4 5 4 6 11 13 9 16 16 16 16 18 18 26 31 32 36 40 37 38 38 39 39 36 34 35 38 38 39 36 35 31 29 37 38 48 44 39 37 42
33 28 24 21 18 16 16 13 10 9 8 8 6 7 7 9 9 9 7 13 11 18 18 19 17 22 26 24 26 34 40 39 34 39 37 31 36 38 38 37 37 32 30 33 31 31 29 20 41 41 44 46 46 44
31 26 23 20 18 18 16 13 12 11 10 11 11 11 9 8 8 11 10 18 18 19 17 18 24 21 19 21 27 33 42 23 41 43 37 12 39 37 34 34 29 26 31 30 28 24 26 23 35 40 42 44 46 51
29 24 22 19 18 17 16 15 14 14 14 13 10 10 12 16 12 16 22 20 19 18 26 24 20 16 14 19 25 27 42 38 42 45 26 11 30 39 34 31 31 30 32 34 32 25 27 31 41 43 46 43 41 45
26 22 21 19 18 18 17 15 15 15 15 14 11 14 23 18 19 22 19 21 23 22 21 17 18 17 14 21 29 31 31 27 39 29 16 16 40 32 31 32 29 30 28 28 28 31 29 33 21 30 31 28 49 45
26 23 21 20 21 21 19 19 18 18 19 18 17 15 18 23 21 20 23 26 20 12 16 15 13 15 15 25 25 22 26 25 26 24 20 21 22 27 31 29 32 34 31 27 23 17 19 41 31 34 29 23 33 28
26 22 21 22 23 22 21 19 19 20 21 20 21 21 23 25 25 25 28 21 20 21 18 18 17 17 19 19 21 21 30 32 24 25 23 26 23 24 24 23 28 33 32 28 27 27 27 34 25 25 29 28 23 22
28 25 25 23 22 22 22 23 23 24 23 24 23 22 21 21 20 14 16 24 20 20 18 19 19 16 19 22 20 19 18 20 19 21 16 22 16 13 28 36 31 29 27 31 37 30 26 22 16 18 13 16 18 17
30 27 25 24 24 23 21 21 20 21 21 21 21 20 20 18 13 12 14 24 15 8 12 18 17 16 19 22 21 19 20 16 12 18 17 11 17 14 5 19 34 39 35 33 26 18 12 11 10 7 6 9 12 15
29 26 25 25 22 24 26 32 33 30 22 25 22 23 22 15 14 12 10 11 11 9 12 10 12 19 15 19 21 20 15 14 12 13 12 6 8 10 12 16 14 10 12 21 16 15 14 11 12 13 14 15 15 16
26 23 23 21 23 24 25 30 31 29 24 22 22 23 19 13 12 10 11 9 7 8 12 11 12 12 13 14 13 17 18 12 8 9 12 10 9 9 7 8 7 6 10 8 9 8 12 14 16 15 15 17 19 20
28 25 22 20 21 25 27 29 27 22 19 21 26 21 22 20 16 14 12 11 11 15 17 12 9 9 11 11 13 11 8 15 12 8 10 11 11 10 6 6 9 10 10 10 10 12 13 14 16 19 21 22 22 21
30 28 25 21 20 19 22 24 22 17 19 21 20 17 14 15 15 14 15 15 17 16 17 11 12 17 24 16 14 8 14 11 15 13 15 8 11 11 10 10 12 14 9 11 12 14 16 16 15 16 18 20 20 21
24 25 25 24 21 21 21 21 22 24 22 19 18 20 19 16 15 12 11 12 14 15 11 8 10 10 10 16 14 15 21 10 7 10 11 11 11 11 11 11 11 14 15 12 10 12 14 16 16 16 17 19 21 23
21 23 24 24 20 19 19 18 20 20 22 24 24 24 23 22 23 21 24 22 18 14 11 10 16 14 9 10 6 11 13 14 11 8 6 6 9 10 10 9 9 6 7 10 11 13 15 17 17 17 17 18 19 19
18 20 21 21 21 20 19 20 20 21 20 20 21 22 22 22 23 22 23 23 24 22 20 18 20 19 19 18 16 14 12 11 10 8 7 8 6 5 5 8 9 9 11 14 16 17 20 20 21 22 21 21 22 20
22 21 20 20 19 18 19 20 20 20 20 20 19 20 20 21 21 21 21 19 20 16 18 19 20 20 16 12 10 9 7 6 3 3 4 4 6 7 10 12 13 15 16 17 17 18 20 21 22 22 23 25 25 24
24 25 26 25 24 21 19 18 19 20 20 20 20 20 19 18 18 18 18 18 18 16 15 14 13 11 10 9 6 3 1 2 3 4 7 9 11 14 15 17 17 18 18 19 19 20 20 21 22 23 23 24 25 26
20 20 18 19 22 27 28 22 20 19 19 19 18 18 23 24 24 23 22 22 20 19 18 16 14 12 12 11 10 6 6 5 5 6 8 9 11 13 15 17 18 20 21 23 24 26 27 26 26 27 28 30 31 32
21 17 16 19 23 25 23 26 18 20 23 22 19 21 20 20 20 19 19 17 12 14 13 12 10 8 8 8 7 6 6 6 7 8 9 11 13 14 16 17 19 21 23 24 26 27 28 29 30 31 32 33 35 36
18 20 23 25 25 26 25 25 22 21 21 18 17 14 14 14 16 16 17 15 13 12 12 11 10 8 6 5 5 6 7 8 10 11 13 14 16 17 19 21 22 23 25 27 28 30 31 32 33 34 35 36 37 38
19 23 24 24 23 21 20 20 19 19 19 17 17 18 18 16 16 18 17 15 14 12 10 8 7 6 6 6 8 9 11 13 16 20 22 24 25 27 28 30 31 32 32 34 35 36 38 39 40 41 42 43 44 43
16 16 17 19 21 22 21 20 17 15 13 14 13 13 12 10 9 10 9 8 8 8 10 12 13 13 12 12 12 16 21 23 26 28 32 36 37 36 35 36 37 38 39 40 41 42 43 44 46 47 48 48 50 51
10 11 12 14 17 19 17 14 14 13 13 13 13 13 13 14 16 15 15 18 23 24 23 18 17 20 23 25 28 27 29 33 35 39 41 42 41 40 41 41 41 42 43 43 45 46 47 49 50 51 52 53 54 55
13 9 9 12 13 15 16 17 15 12 13 15 14 16 18 14 14 15 18 20 24 21 21 22 25 29 31 32 34 35 36 39 40 42 42 41 41 42 42 43 44 45 47 49 50 50 51 53 54 55 56 57 58 59
15 14 15 15 16 16 14 13 14 13 11 14 17 19 21 17 14 18 20 21 25 24 26 35 35 36 37 37 38 39 39 39 40 41 42 43 43 44 45 45 46 47 48 50 51 52 53 54 55 56 57 58 59 59
16 16 16 17 17 17 15 15 14 14 15 17 19 21 20 21 20 21 22 22 23 26 31 33 35 36 38 38 39 40 42 42 43 43 44 45 46 47 48 49 49 48 46 44 43 43 43 44 45 46 47 48 49 51
20 20 20 20 21 20 19 17 18 19 19 20 21 21 22 22 23 25 25 28 30 32 33 35 37 38 40 41 42 43 44 45 46 46 45 44 42 40 37 35 33 33 33 34 34 36 37 38 39 40 42 43 44 46
18 19 19 19 19 19 19 20 20 21 22 24 26 28 29 30 32 33 34 36 38 40 41 43 44 45 46 46 45 43 40 37 34 32 30 29 28 28 28 28 28 29 30 30 29 30 31 33 35 37 39 39 38 36

GFSWCAN_500_spd_009.txt.gz
Wind_Speed
61 59 54 45 37 31 24 17 15 15 14 16 19 16 15 14 16 15 16 16 16 14 14 20 24 23 23 20 22 19 26 28 37 43 56 56 45 45 42 38 53 56 56 51 41 41 40 38 39 40 35 39 27 23
56 51 43 39 32 25 21 22 18 13 15 16 14 14 13 19 17 13 13 15 18 18 14 16 23 20 19 21 23 26 27 26 38 26 36 49 34 33 43 38 37 52 55 46 34 36 43 48 43 41 34 38 30 25
49 46 39 33 29 29 26 21 17 15 13 12 12 10 10 7 6 5 5 7 9 9 13 15 22 21 20 18 16 20 27 26 40 36 38 45 37 30 49 34 32 44 39 40 43 45 49 47 44 30 30 31 28 32
44 42 35 29 28 25 22 19 16 13 11 9 8 6 6 2 2 2 2 5 7 8 13 17 21 20 20 17 14 14 17 23 36 38 45 50 46 17 54 45 47 41 54 47 57 59 55 50 41 34 30 34 34 35
40 36 31 28 25 25 23 19 15 12 11 9 8 8 7 4 3 3 5 6 2 7 11 13 16 15 15 18 19 20 19 21 34 34 48 59 47 33 61 16 59 33 45 45 55 50 48 44 38 30 30 34 34 35
33 31 27 25 26 27 22 19 16 12 11 12 12 10 10 12 11 8 7 4 8 13 17 18 16 16 18 18 20 21 22 24 32 29 48 46 49 27 34 36 60 35 29 60 34 33 32 36 34 29 28 34 36 39
28 27 26 27 27 24 22 19 17 14 14 14 12 13 12 14 9 10 9 7 15 16 18 17 14 9 12 15 20 23 25 33 26 26 31 43 32 34 35 41 43 40 32 26 31 33 32 31 30 33 35 32 37 43
27 27 29 29 27 24 22 20 17 16 16 14 17 19 12 9 15 12 12 14 14 15 13 14 17 11 10 13 19 22 29 25 16 26 28 18 23 32 33 35 35 33 33 29 29 30 30 31 38 40 40 34 37 46
28 30 31 28 26 25 24 23 21 19 17 17 16 13 14 17 16 15 18 19 16 16 16 15 12 9 23 8 8 24 24 17 24 32 29 5 16 33 33 33 31 30 31 30 30 30 33 33 32 38 43 50 50 54
30 29 27 24 24 23 22 22 22 20 18 13 14 16 16 18 25 26 19 14 14 10 9 6 9 14 20 17 17 28 15 13 26 20 10 9 12 34 31 29 30 32 31 31 30 28 29 42 31 46 47 29 37 48
33 32 28 25 24 22 22 22 22 22 22 19 18 17 21 24 24 22 21 19 19 19 19 17 14 25 25 24 26 17 10 21 33 12 9 11 19 26 34 30 29 30 30 27 26 20 18 16 28 24 37 30 21 27
30 29 28 29 28 25 22 21 22 21 20 20 20 19 17 16 24 20 19 16 22 23 16 14 22 27 25 19 18 23 21 17 17 8 5 10 20 25 25 27 30 31 31 29 23 15 20 19 19 18 29 36 36 34
25 30 31 31 32 32 29 24 23 22 20 19 17 13 11 20 21 24 26 18 12 11 11 10 19 21 17 26 25 17 11 14 17 22 20 20 18 20 17 27 26 24 26 31 31 27 28 22 22 24 27 26 24 21
18 22 27 28 27 27 26 24 26 21 20 21 18 14 13 15 16 14 14 14 13 15 20 8 12 16 21 16 16 26 12 13 16 15 10 16 16 11 14 16 16 27 26 26 30 42 31 18 12 9 13 19 25 21
23 21 20 22 24 24 24 21 23 27 19 23 21 18 16 13 10 8 11 13 14 12 18 21 18 16 12 18 14 18 15 14 15 15 17 11 14 12 4 3 1 9 20 22 29 28 21 18 13 8 9 13 16 19
25 22 20 20 22 20 21 20 18 19 13 18 19 15 12 8 7 8 9 15 16 15 17 16 14 17 11 12 11 19 22 17 18 18 13 12 12 10 7 6 3 1 4 9 7 13 10 11 13 15 16 16 17 19
24 22 21 20 20 21 24 24 22 15 17 15 13 13 11 11 10 9 13 16 13 15 14 12 14 18 19 16 18 19 18 16 10 14 14 12 7 6 7 6 3 2 0 2 6 7 8 9 12 13 14 15 16 17
22 22 19 17 19 20 21 22 22 24 26 25 23 20 13 12 13 13 17 14 11 9 12 13 16 20 21 22 21 21 19 18 17 17 11 7 6 4 5 3 2 3 5 9 10 7 5 8 10 11 13 14 15 17
19 18 17 18 17 18 19 18 20 21 24 24 24 27 29 26 21 19 16 11 9 7 11 12 10 14 15 15 15 14 13 9 9 8 6 5 6 7 9 10 11 7 4 4 7 8 10 12 13 14 16 18 21 21
27 22 17 15 17 17 17 19 18 18 21 21 24 26 27 27 27 26 22 18 18 19 19 15 13 13 12 12 12 9 7 6 5 3 1 3 4 4 3 3 4 6 9 11 13 14 15 15 17 18 20 22 24 25
24 27 28 18 16 18 20 20 21 20 20 20 22 23 23 24 25 25 24 25 26 25 21 18 15 14 11 10 9 7 5 2 1 3 2 2 4 7 9 10 12 14 16 17 19 19 18 18 19 19 19 21 24 27
19 21 25 25 21 18 18 19 20 20 20 26 26 25 24 24 24 23 24 22 18 18 19 18 15 13 11 9 8 6 4 5 5 5 4 6 8 10 12 14 16 17 18 19 21 21 21 21 22 23 24 26 27 29
22 19 17 16 19 22 25 23 21 20 22 28 25 23 23 23 24 25 22 22 22 19 18 17 14 12 10 8 6 6 6 6 7 7 8 9 11 13 15 16 17 18 20 20 23 24 26 27 28 30 31 32 32 34
21 17 16 21 21 21 19 20 19 18 20 20 19 19 19 17 15 14 14 12 11 9 9 9 7 6 6 6 5 6 6 6 7 8 10 11 12 13 15 17 20 20 21 24 25 26 28 29 30 32 32 34 35 35
18 21 23 24 21 19 17 16 15 17 17 17 14 14 15 15 14 12 12 11 10 9 7 6 7 8 8 8 7 7 8 9 10 11 12 15 19 22 25 27 24 25 28 31 33 35 36 37 38 39 40 41 41 42
13 19 22 21 20 19 18 16 14 14 14 14 14 15 16 14 11 10 10 10 11 12 13 14 14 12 12 13 16 17 19 18 20 24 24 27 28 31 35 38 38 41 41 41 40 40 40 42 44 46 47 49 50 51
9 12 16 17 18 16 14 15 15 15 13 13 13 14 15 14 15 14 9 11 18 17 15 15 17 16 16 18 21 24 28 31 33 34 36 38 38 36 39 41 39 37 40 39 40 42 41 43 45 46 48 50 52 53
10 11 12 14 14 15 15 14 13 11 12 12 11 14 19 15 12 13 9 11 18 17 17 19 21 24 29 35 38 36 33 34 35 36 37 40 41 39 38 40 42 42 44 44 44 46 48 49 50 52 53 55 56 58
13 12 11 13 11 11 12 12 13 13 14 15 18 20 21 19 17 14 17 18 21 24 25 26 30 33 39 42 42 42 41 39 40 40 41 42 42 44 44 45 46 47 48 50 51 51 51 53 54 54 54 55 55 55
14 15 14 13 14 14 15 15 15 16 18 19 17 19 19 19 19 20 21 21 24 26 29 31 33 35 38 40 42 44 44 43 43 43 43 43 43 43 44 44 44 44 43 42 40 40 37 37 38 39 41 43 44 46
18 17 18 17 17 16 17 17 18 20 22 23 24 24 24 24 25 28 29 32 34 36 39 42 43 44 44 43 41 39 38 36 34 32 31 30 29 28 27 26 26 26 27 29 30 30 30 29 29 30 32 35 38 42
17 18 18 18 18 20 21 20 21 23 27 28 29 30 32 33 35 35 37 41 43 45 45 43 40 36 34 34 32 29 27 27 25 23 23 24 24 23 23 23 24 25 25 23 23 24 25 26 28 31 34 37 41 40
17 18 18 19 20 21 22 23 23 25 27 28 30 31 31 32 35 39 42 41 39 36 33 31 29 27 27 29 29 27 25 23 23 23 22 21 21 21 21 21 20 20 21 22 24 24 25 26 28 30 32 35 37 35

GFSWCAN_500_spd_012.txt.gz
Wind_Speed
55 52 50 49 42 39 37 34 31 27 23 20 19 19 17 15 12 14 15 16 20 19 14 21 18 18 22 14 22 18 21 30 35 50 49 45 63 58 56 49 59 69 61 58 47 43 44 49 45 35 43 37 39 43
53 49 44 40 37 35 36 34 29 25 22 19 16 16 15 14 17 19 16 16 19 19 13 18 13 16 21 19 25 24 12 21 25 41 53 42 55 56 46 49 44 64 62 59 55 52 32 18 50 46 40 42 34 36
46 40 38 36 36 38 36 30 26 22 19 17 15 14 12 10 8 6 6 8 8 14 15 11 10 17 19 19 18 23 19 21 20 34 49 43 51 55 55 50 56 55 48 45 49 47 45 52 47 43 46 43 42 42
39 36 39 40 39 35 31 28 23 19 18 17 15 14 12 9 6 4 4 4 4 3 3 1 8 16 19 18 19 28 21 21 26 29 44 50 39 41 53 54 54 56 47 41 43 45 53 51 54 54 52 47 38 44
36 42 44 40 35 30 28 24 21 21 19 19 18 17 17 15 12 10 10 7 5 4 4 5 12 13 14 11 12 16 21 29 31 35 41 46 51 43 30 49 53 46 50 47 47 57 57 58 53 49 45 43 40 37
41 44 40 38 36 32 29 25 22 22 19 19 17 16 17 17 13 9 10 10 12 11 13 15 17 18 11 9 5 6 13 20 33 38 36 41 34 37 19 50 41 51 50 47 58 57 61 71 61 48 41 38 36 35
43 41 39 37 32 31 28 24 23 21 18 18 17 19 18 15 15 14 18 14 13 11 10 14 13 13 14 10 8 7 6 16 29 29 32 14 31 25 28 49 26 29 43 56 53 65 53 61 53 39 37 42 37 26
43 42 40 36 31 28 28 27 22 19 23 24 21 18 17 17 18 18 17 16 13 10 10 10 15 14 13 9 3 3 13 23 18 15 13 16 33 26 25 29 25 11 51 20 46 26 23 36 35 37 33 31 31 31
35 38 37 34 31 29 27 25 22 21 20 19 17 17 19 24 22 25 23 20 19 16 15 18 16 17 9 4 9 12 21 16 17 15 15 22 20 27 18 12 21 21 12 17 10 9 14 24 29 31 34 36 34 35
35 42 42 36 31 28 27 27 28 25 21 19 21 19 20 26 25 18 15 16 20 18 12 10 10 13 19 10 18 23 21 21 22 19 17 8 8 18 24 22 22 22 14 17 20 17 16 20 24 27 24 26 27 28
32 37 39 40 34 29 26 25 26 26 23 22 21 28 23 22 19 20 19 23 25 27 17 15 10 17 20 18 15 17 15 21 18 15 9 6 11 20 19 24 24 24 22 20 20 16 16 14 17 25 26 27 28 34
28 33 33 32 32 30 28 27 24 22 19 21 27 32 33 31 30 31 27 33 31 22 21 23 26 26 22 15 19 16 11 17 10 12 9 13 18 25 18 22 27 23 21 21 18 16 16 13 12 18 20 30 30 43
28 27 29 30 30 23 28 23 21 19 17 20 25 24 31 34 27 27 22 20 40 19 12 22 19 19 19 10 15 20 15 13 22 23 24 22 26 21 15 18 15 15 17 19 19 17 11 18 14 14 12 13 11 26
29 27 27 28 26 22 19 18 17 15 16 15 14 16 20 31 24 22 20 25 25 18 5 10 10 26 21 27 20 26 27 27 23 24 24 24 25 21 11 17 15 15 16 18 19 20 21 21 21 23 18 24 23 25
28 27 27 27 27 25 20 17 13 15 15 12 8 15 19 19 20 17 23 25 24 13 11 17 11 13 24 19 21 31 29 27 24 25 21 13 19 16 12 10 12 15 20 21 11 14 18 22 21 23 22 20 19 19
26 24 22 23 24 24 23 21 20 17 13 10 9 8 11 16 16 16 20 22 21 26 26 19 16 16 26 26 29 30 28 24 23 20 21 18 15 17 14 12 7 8 16 18 17 25 29 24 18 15 9 7 7 9
22 23 22 20 20 21 23 25 23 20 15 9 7 8 11 14 13 13 17 25 23 23 30 24 29 35 31 29 27 30 25 19 16 15 15 14 12 16 10 8 15 10 2 5 4 4 8 14 13 13 10 10 15 16
21 19 21 20 20 19 20 22 24 26 28 23 17 12 11 11 13 11 11 15 18 21 25 28 26 30 29 33 26 18 15 12 10 9 8 7 6 4 5 5 2 3 6 3 3 4 4 6 6 9 12 16 19 17
29 20 20 22 21 20 19 19 22 26 29 30 27 19 17 15 11 9 9 11 13 15 18 17 22 22 19 16 17 13 12 12 12 11 8 7 6 4 2 5 9 9 10 6 3 5 7 7 8 9 12 15 15 15
28 21 18 21 23 23 22 22 20 23 25 24 28 28 26 21 16 12 11 15 16 17 14 13 16 15 13 12 10 9 9 10 8 5 3 2 4 5 6 8 8 6 7 9 10 12 13 14 16 17 18 20 23 23
22 22 20 17 18 20 21 23 26 27 23 23 24 26 26 24 22 21 18 19 14 12 11 12 11 9 7 6 5 5 6 5 6 6 3 4 5 7 9 10 12 13 15 17 18 19 21 21 22 23 22 21 23 26
20 19 19 18 17 17 20 24 26 21 23 27 28 28 27 24 23 25 28 24 22 21 17 15 12 11 10 9 8 9 10 11 8 8 6 6 7 8 10 11 13 15 15 16 18 18 20 20 23 24 25 26 28 29
23 20 13 10 11 16 18 18 18 16 18 20 21 21 21 19 19 19 15 17 15 13 9 9 8 9 8 7 7 7 8 8 8 10 10 10 10 12 13 13 14 13 16 19 21 20 21 22 24 26 28 28 32 33
20 16 11 11 13 16 17 18 16 14 14 15 15 15 14 15 16 14 12 12 12 11 12 12 12 10 9 10 11 12 13 15 15 16 17 17 19 21 21 21 23 21 21 26 29 30 31 32 32 34 35 37 37 38
15 15 15 15 16 15 15 13 15 17 18 18 19 19 19 18 15 13 14 15 13 9 10 10 12 13 14 15 16 17 18 19 21 24 23 25 24 29 35 34 32 33 37 36 39 42 43 42 41 41 42 43 43 45
9 13 17 18 16 16 16 14 10 12 12 12 13 14 14 13 17 17 16 14 15 18 19 19 18 18 19 21 22 23 23 24 29 34 36 36 36 36 37 40 44 46 46 45 42 41 42 41 41 42 43 44 46 47
9 10 12 13 13 12 12 17 15 14 13 13 15 16 18 18 19 20 23 23 23 22 27 29 28 29 29 29 30 32 35 37 40 40 41 42 41 38 36 37 38 39 42 43 43 43 44 45 45 46 47 49 51 52
13 11 16 12 17 20 21 21 17 15 16 17 16 18 20 22 21 21 21 22 22 23 26 28 30 32 35 37 38 40 41 42 43 43 45 48 48 46 43 42 42 43 44 44 45 47 48 49 50 51 51 52 52 51
14 5 16 19 18 14 13 15 17 19 20 20 20 20 20 20 20 21 23 24 27 29 31 34 35 36 37 37 37 38 36 33 34 35 35 36 37 38 39 40 40 40 41 41 41 39 34 35 34 34 35 36 36 37
16 15 14 15 15 16 17 18 20 22 23 24 25 24 23 23 26 31 32 34 36 37 36 35 32 29 28 26 27 30 31 28 28 26 25 25 23 22 22 22 23 24 25 27 28 29 29 29 28 28 29 31 33 35
14 15 15 15 17 18 19 20 20 23 24 25 26 27 27 27 32 37 40 40 38 34 32 31 29 27 25 26 27 28 29 28 27 26 25 23 21 21 20 20 20 22 22 22 23 25 26 28 29 29 29 30 31 33
13 15 15 14 15 18 19 20 22 24 25 26 29 32 34 34 38 41 40 34 30 29 28 27 27 27 27 27 26 26 27 27 26 24 23 22 21 20 20 21 21 21 23 23 24 25 26 26 26 26 27 28 29 31
14 15 15 16 17 19 20 21 22 23 25 27 30 31 33 36 39 42 43 38 31 27 29 30 31 30 29 28 27 25 23 24 24 23 22 21 21 20 20 22 22 22 23 24 25 26 26 26 26 26 26 27 28 29

GFSWCAN_500_spd_015.txt.gz
Wind_Speed
48 49 51 54 51 48 41 38 36 30 28 27 25 23 22 21 18 16 17 17 18 17 11 20 21 17 19 20 17 18 14 36 25 15 30 52 50 56 72 89 72 60 57 48 41 47 54 52 51 52 53 52 56 56
50 50 50 51 50 42 38 34 29 29 28 26 25 23 21 19 17 14 13 14 15 16 13 21 16 14 12 17 17 11 15 22 21 13 12 38 37 49 62 74 79 69 59 56 46 46 47 45 47 54 58 52 56 49
51 48 46 46 44 41 36 33 32 30 29 26 24 24 21 18 14 12 10 9 9 6 12 14 12 11 7 3 5 7 21 21 23 19 13 21 25 47 57 61 71 74 52 51 57 54 57 54 50 60 66 64 57 44
49 49 41 41 40 38 37 36 34 29 28 27 25 25 22 19 16 14 13 12 11 8 4 4 5 6 5 5 6 15 19 27 22 11 17 22 31 30 58 37 67 75 54 50 56 57 53 46 60 66 64 48 49 46
50 47 41 39 39 40 36 35 33 33 31 30 27 27 22 21 21 20 18 15 13 10 9 10 9 7 5 7 7 13 16 22 11 10 20 31 27 22 58 41 65 46 65 56 57 56 54 45 46 34 40 42 34 34
49 49 43 42 39 36 34 34 35 36 35 30 29 26 24 22 22 23 23 22 20 15 13 12 11 12 6 4 10 14 18 13 16 17 25 29 34 21 47 39 69 45 56 66 65 56 58 58 62 56 59 52 47 43
46 47 45 41 38 35 34 34 35 35 34 31 26 23 22 21 20 20 20 19 16 15 15 12 9 12 20 18 14 8 12 16 16 18 26 27 29 29 35 36 42 52 47 51 62 67 63 62 63 61 53 55 46 34
42 41 44 42 40 37 38 38 36 31 31 31 27 29 30 28 23 19 17 22 19 14 15 19 19 19 18 21 18 17 15 10 18 25 21 28 38 37 35 11 7 40 54 51 44 53 52 45 38 43 48 52 44 38
37 36 37 39 37 33 33 32 30 33 37 34 32 27 27 31 28 26 27 28 24 18 12 13 10 19 7 14 10 19 25 25 24 16 15 22 36 29 17 8 19 28 24 29 34 35 57 41 38 46 35 43 49 35
31 34 35 32 32 30 26 26 27 32 33 34 36 37 33 38 33 33 28 29 25 17 19 25 26 21 16 20 19 19 26 24 20 13 17 13 23 11 5 7 13 20 28 20 13 15 31 43 28 34 37 35 43 32
31 31 31 29 27 28 23 22 25 28 28 28 41 34 36 34 34 41 38 35 23 24 29 23 22 16 17 15 14 17 22 20 17 15 13 16 10 11 15 9 12 15 16 13 19 11 15 17 17 15 17 25 27 29
31 30 30 29 24 20 20 22 20 22 24 29 35 32 32 33 37 46 51 38 19 22 27 27 22 15 14 16 18 18 19 15 12 8 16 20 20 20 23 9 10 8 12 13 7 13 12 13 7 14 18 20 21 25
29 28 28 28 28 24 20 19 19 19 18 24 26 30 30 27 36 46 43 38 15 18 23 25 19 8 19 15 13 18 24 33 36 35 32 31 28 21 16 17 14 11 12 11 14 7 10 11 15 8 9 8 14 17
28 27 25 26 28 24 19 16 16 16 13 16 20 25 27 30 40 40 42 24 19 20 24 25 22 27 29 31 32 36 34 36 38 38 32 26 21 17 17 13 11 12 8 8 10 11 9 9 12 13 9 12 10 15
24 25 24 23 23 25 24 21 17 12 15 11 15 22 28 26 32 35 30 21 22 23 20 20 21 27 29 34 34 34 34 34 31 29 27 24 25 21 12 5 5 5 7 5 5 9 11 12 13 13 12 10 13 15
22 23 22 20 21 24 26 27 28 21 11 13 15 21 23 18 23 29 29 27 30 28 24 23 29 36 32 36 32 30 30 28 27 24 22 16 20 23 21 18 5 5 6 12 19 18 15 16 16 14 12 12 12 13
22 24 21 20 19 20 24 28 23 17 13 14 15 22 17 16 22 27 25 30 25 30 34 32 38 34 35 32 30 24 25 21 22 18 18 18 18 15 19 14 16 16 11 13 5 8 8 10 14 15 12 13 12 12
21 24 23 22 20 19 21 20 27 27 26 20 17 14 17 17 18 21 21 25 23 25 28 37 33 30 30 24 20 21 19 13 13 13 9 9 8 7 3 5 7 10 10 9 6 5 4 3 2 6 8 11 12 13
21 22 24 25 24 22 19 20 23 29 29 24 20 19 15 15 16 16 16 16 19 22 17 19 28 30 27 23 20 17 14 13 12 12 10 10 7 4 0 5 7 6 5 3 3 4 2 3 5 7 9 10 11 11
22 21 21 23 24 23 22 23 23 28 26 27 25 24 21 18 19 18 17 18 18 12 9 14 16 18 16 15 15 13 13 12 10 8 6 5 5 5 5 6 7 8 9 11 12 10 12 14 15 15 15 19 19 18
17 18 22 21 17 23 21 24 24 25 26 31 33 32 31 28 25 21 18 19 13 9 11 14 13 11 9 9 8 8 10 6 5 5 5 7 9 11 13 13 13 14 14 16 15 15 17 20 20 19 19 22 24 24
14 17 19 17 16 16 18 20 20 20 21 23 22 23 24 24 21 19 20 17 14 13 14 13 13 12 12 11 11 11 10 8 8 9 10 10 11 12 13 15 17 18 18 20 20 20 19 19 22 23 23 24 27 27
17 16 15 13 13 16 17 15 15 15 15 15 17 17 17 19 19 18 16 16 15 15 13 12 10 10 10 10 10 10 10 12 13 13 14 15 15 17 17 18 18 18 19 21 23 25 25 23 25 27 28 28 29 31
16 15 11 8 9 12 12 14 16 16 17 17 18 16 14 19 19 19 20 20 20 19 18 19 20 21 21 20 21 22 22 23 23 20 21 24 26 26 26 27 31 33 32 31 32 34 33 33 36 39 39 38 41 42
11 13 12 10 11 11 11 12 13 14 15 16 18 20 20 20 20 20 20 22 23 22 23 25 25 25 27 27 27 26 25 28 31 33 33 32 32 36 38 38 38 41 43 43 42 42 43 43 43 44 44 43 42 43
10 9 8 6 11 18 16 14 13 13 15 17 19 20 20 21 22 23 23 24 25 25 25 26 28 29 30 31 30 31 30 31 35 38 40 42 44 43 41 40 41 43 44 43 43 43 42 42 43 44 45 47 48 49
11 16 12 14 22 17 21 19 18 18 18 18 18 20 21 22 24 25 26 28 29 30 30 31 33 34 36 37 38 37 36 36 40 40 40 40 39 38 38 39 39 40 43 42 43 42 42 43 44 45 46 48 48 48
27 20 15 18 19 20 21 21 23 22 23 23 23 25 26 26 26 29 32 33 34 34 34 33 31 30 29 27 25 21 17 22 26 29 30 30 29 28 30 30 29 28 27 27 29 31 32 33 33 34 35 35 34 35
14 17 19 21 22 22 20 21 21 21 22 24 25 26 26 26 29 31 32 34 27 24 27 27 26 26 25 25 25 25 23 25 26 26 27 28 28 28 28 29 29 28 27 25 23 23 24 24 25 27 28 28 29 31
16 16 15 16 16 16 16 18 19 21 22 23 24 25 26 26 30 32 34 37 32 27 28 29 30 30 29 27 27 27 24 25 25 25 24 24 23 23 23 22 22 22 22 22 22 22 23 25 26 27 28 29 29 30
9 10 11 13 14 14 15 17 19 20 22 26 28 29 30 32 34 35 36 36 36 29 26 25 27 30 31 30 28 28 25 23 23 24 24 24 23 22 21 21 22 22 23 23 24 26 27 28 29 29 29 29 29 29
9 11 12 12 14 16 18 18 18 21 23 25 26 29 31 32 33 38 36 35 37 36 33 29 28 29 30 31 30 28 28 28 26 25 25 25 24 24 25 25 25 25 26 27 28 28 29 29 29 28 28 28 27 26
10 11 13 15 19 20 19 20 22 25 23 25 28 29 30 32 33 37 41 40 39 39 38 35 31 28 28 29 29 28 29 28 28 28 27 26 27 26 25 24 25 26 27 27 27 27 26 26 26 27 26 25 24 23

GFSWCAN_500_spd_018.txt.gz
Wind_Speed
51 58 53 50 46 42 39 40 39 38 35 31 30 32 29 25 22 19 18 15 17 16 13 16 15 11 15 20 20 18 19 18 18 12 22 25 29 35 46 76 90 80 73 68 66 47 57 69 62 56 57 51 54 53
51 55 52 46 42 39 39 40 41 40 37 36 32 30 29 26 22 18 16 13 11 9 11 15 14 14 10 12 3 2 8 16 16 23 9 16 23 29 35 58 67 69 66 67 58 38 51 69 48 54 58 57 54 58
48 52 51 44 39 38 41 43 42 41 38 37 36 33 29 27 24 19 16 15 12 6 6 7 7 4 4 4 3 8 9 16 21 19 7 4 9 12 30 47 59 47 68 73 59 38 45 60 70 56 53 61 61 60
46 47 49 41 43 48 48 46 43 41 39 38 37 35 33 32 25 23 21 21 16 12 9 3 9 9 3 2 1 7 13 22 25 10 15 10 11 10 31 38 44 44 64 62 63 35 65 65 60 63 58 58 66 65
42 43 44 43 42 43 42 44 40 37 33 32 33 34 34 32 29 27 27 26 25 22 19 15 13 11 13 11 8 12 17 19 11 10 12 13 10 22 19 24 29 43 34 54 58 47 58 60 63 65 59 61 62 59
38 37 36 37 36 33 39 43 41 41 38 33 33 33 31 27 25 23 21 19 18 15 13 12 10 13 13 9 3 10 25 23 8 7 14 14 16 17 21 33 17 28 44 44 66 49 45 55 50 50 49 48 47 49
34 36 32 33 30 30 33 38 40 42 41 40 40 35 29 26 30 26 22 19 16 14 10 6 8 9 8 12 6 3 6 5 5 7 11 13 15 12 27 41 9 23 38 42 54 44 54 54 50 46 27 53 51 31
31 32 30 28 27 25 29 31 34 40 44 49 42 34 35 34 31 31 25 21 18 13 9 13 16 13 15 15 21 9 12 11 19 12 13 6 6 16 28 32 25 19 29 27 49 39 49 46 42 45 53 46 38 29
32 31 29 28 25 22 24 25 31 33 39 42 41 28 43 50 44 36 29 26 27 27 30 27 23 18 14 18 25 22 23 20 23 17 16 12 17 16 21 30 19 26 34 23 46 50 42 49 46 52 56 60 39 45
33 29 29 30 27 23 21 23 26 30 34 36 41 35 50 50 33 38 25 26 31 28 30 26 22 19 24 22 21 23 26 23 18 19 19 13 16 25 20 20 12 22 34 39 33 35 46 50 53 59 53 47 50 36
32 31 28 27 28 23 22 18 21 27 29 32 38 31 33 47 45 39 32 27 26 30 28 19 16 20 25 24 27 24 22 19 21 23 18 17 14 13 10 18 16 25 25 28 39 44 43 44 46 45 49 58 36 30
26 28 26 24 25 25 23 22 22 23 23 29 31 25 31 49 56 40 33 46 34 33 27 16 14 19 22 21 19 19 18 19 19 23 19 14 14 16 16 15 19 24 22 27 24 22 27 16 14 21 40 48 41 33
24 25 23 22 23 22 21 25 21 18 21 28 23 31 36 37 47 40 31 33 29 29 20 16 13 14 22 22 24 30 35 35 27 23 27 21 17 19 16 13 15 16 15 19 19 15 20 9 11 17 15 14 18 17
25 25 22 21 24 25 23 17 18 15 15 19 19 36 44 43 34 31 26 29 26 24 23 21 27 36 38 44 44 44 38 35 33 32 30 27 27 27 19 19 21 8 8 4 10 13 12 10 9 8 6 10 11 13
27 25 22 21 24 24 24 17 13 11 15 14 24 35 35 35 32 27 32 22 22 23 25 26 32 34 39 39 37 35 37 36 33 31 24 16 20 15 10 9 11 6 16 7 4 4 3 5 5 8 8 8 8 14
27 26 24 21 20 22 26 22 21 15 15 18 24 25 28 24 28 27 33 34 33 32 29 28 32 29 30 36 33 33 33 30 24 22 22 27 28 24 16 10 7 5 2 7 5 4 5 5 3 7 9 8 8 10
25 26 28 26 22 22 26 22 16 9 16 23 25 25 26 24 27 30 35 35 33 27 29 29 33 35 32 28 27 28 25 22 22 21 21 19 16 19 20 19 20 15 12 9 3 4 6 9 11 13 14 15 15 15
23 26 27 28 25 23 26 21 18 17 21 20 18 19 20 23 22 25 31 31 26 26 19 23 31 30 31 27 22 18 16 13 10 9 10 9 6 7 9 8 11 10 9 8 7 4 0 3 4 7 11 15 16 17
18 21 27 26 27 29 25 23 21 25 24 18 18 20 19 19 19 23 21 22 23 21 16 16 20 24 24 21 17 14 12 9 8 7 5 3 3 3 3 5 5 6 6 5 7 6 5 5 6 8 9 8 8 12
15 18 20 24 23 22 23 29 30 31 29 30 31 25 21 19 22 24 23 21 20 15 8 6 11 13 12 11 10 8 6 6 8 10 11 9 9 10 10 9 8 8 7 7 10 14 14 11 13 17 17 17 17 19
14 15 16 20 20 13 15 19 21 21 21 20 21 19 17 19 17 17 20 22 17 13 14 18 17 14 11 11 9 8 8 8 8 8 9 11 11 12 11 11 9 8 8 8 10 14 15 16 16 18 20 19 19 20
13 13 15 18 17 15 16 16 16 16 16 18 19 20 22 21 22 22 24 18 15 14 16 16 16 16 16 16 14 12 12 13 13 13 14 14 15 16 17 15 14 15 15 13 14 15 18 20 19 20 23 24 22 21
14 14 14 15 13 14 16 17 17 16 16 16 15 15 21 20 23 23 20 17 16 14 11 11 13 14 14 15 15 16 16 17 19 20 20 21 22 23 26 28 29 30 30 31 30 28 28 29 30 31 32 31 31 31
14 15 13 10 8 8 10 10 14 14 16 15 21 25 18 20 21 21 22 22 22 23 22 21 20 20 21 20 21 25 26 25 25 27 29 28 28 29 31 34 36 39 42 44 44 43 43 44 44 43 41 41 42 42
13 11 7 13 13 8 8 12 15 16 17 20 22 22 21 21 22 23 24 25 27 27 27 27 27 27 27 26 23 24 30 33 32 31 31 33 34 34 35 38 41 43 45 47 50 51 52 50 49 49 49 46 43 43
15 15 15 12 15 14 13 13 15 17 20 21 23 23 25 26 26 29 30 31 32 32 27 25 25 26 26 26 25 26 27 28 27 26 24 23 23 24 25 26 28 29 31 32 35 38 42 46 47 47 45 45 45 45
14 13 16 13 12 14 17 19 21 22 23 23 24 25 27 27 30 32 33 35 35 31 25 27 27 26 24 22 21 21 23 23 22 18 19 21 22 23 22 22 23 23 25 26 27 28 28 28 29 31 32 35 37 39
12 11 10 11 12 15 17 18 18 18 19 20 23 25 27 30 33 35 34 31 31 31 28 27 28 29 27 27 25 24 26 25 25 25 22 21 21 22 23 23 24 24 23 21 21 22 23 23 22 22 22 23 24 26
8 9 10 12 13 16 17 16 17 18 20 22 24 26 26 28 30 33 35 35 35 36 35 32 30 30 31 28 26 27 27 25 24 25 25 25 25 26 25 23 23 23 23 22 23 23 22 22 23 24 25 26 27 29
10 11 12 16 17 16 17 19 21 22 22 24 24 25 25 25 28 31 35 38 37 34 32 32 32 30 29 27 25 26 26 25 25 24 24 24 25 25 25 25 25 25 25 25 25 26 26 26 26 26 26 26 27 27
13 14 14 13 12 14 16 16 16 17 17 19 24 26 27 27 29 33 36 37 37 34 33 33 32 32 31 29 28 28 27 26 26 26 25 24 24 25 25 25 25 24 24 24 24 24 24 24 24 24 24 25 25 25
10 13 16 17 17 17 20 20 20 21 22 24 25 27 28 29 30 31 34 38 39 38 34 34 35 34 33 31 29 29 29 29 29 30 29 28 27 26 26 26 25 24 23 22 22 22 22 22 23 23 24 24 24 23
13 14 16 16 17 19 21 22 23 22 22 24 25 27 30 31 33 35 35 36 36 36 36 36 36 36 35 33 32 31 31 31 31 31 31 31 31 30 28 26 25 23 22 22 22 21 21 21 22 23 23 22 21 21

GFSWCAN_500_spd_021.txt.gz
Wind_Speed
42 44 46 44 45 48 49 47 44 43 42 40 39 37 37 35 32 25 23 20 16 10 12 14 11 8 9 10 7 12 16 20 22 14 14 14 22 32 41 54 64 83 75 93 92 79 75 69 61 51 53 63 65 56
40 41 41 39 45 47 51 52 50 46 44 41 42 41 39 35 29 27 22 19 16 12 11 12 9 6 5 5 6 9 6 9 11 13 9 12 20 20 24 25 34 56 68 87 88 88 68 57 55 56 45 51 60 67
38 39 41 35 41 43 45 53 49 54 48 43 40 38 37 37 33 28 25 24 21 17 12 8 7 4 3 6 2 4 6 4 3 19 2 9 9 9 19 20 32 38 50 64 78 72 67 58 53 59 57 51 52 59
36 38 39 34 33 39 39 44 47 56 57 46 37 32 31 30 28 27 26 25 23 19 14 12 11 8 4 4 4 2 5 9 9 10 12 6 9 9 18 21 30 35 42 49 54 51 67 57 60 59 59 58 60 67
37 37 36 35 30 32 36 39 46 47 58 43 37 31 29 27 25 24 22 21 19 15 13 13 11 11 13 10 9 5 7 9 11 10 11 11 11 10 15 14 26 30 39 40 46 46 57 46 49 61 66 63 61 64
37 37 36 34 29 27 31 35 39 43 48 45 37 39 31 29 26 23 22 17 12 10 11 11 8 11 14 14 11 8 12 6 6 9 8 12 12 7 12 19 12 12 27 31 41 51 62 53 13 40 56 69 71 57
35 37 35 34 29 23 26 31 34 41 45 49 45 31 35 34 33 31 27 25 20 18 18 22 18 18 16 11 12 15 11 6 10 6 7 7 10 16 20 20 25 27 32 26 45 59 68 52 20 57 52 58 55 55
31 36 34 31 28 23 22 25 30 36 39 44 40 36 28 29 30 29 31 30 27 25 28 23 20 19 14 19 16 10 9 14 12 14 15 11 17 16 12 9 5 25 35 27 44 55 57 38 35 47 50 50 49 53
28 31 33 30 27 23 19 19 27 31 35 35 34 35 32 31 31 39 27 32 31 31 32 28 26 23 21 21 21 19 13 16 16 17 19 19 17 15 7 9 14 27 40 31 31 47 54 57 47 26 40 38 34 31
28 28 30 27 26 25 24 19 21 27 34 30 33 27 29 33 35 32 42 41 41 24 24 22 27 27 26 26 24 21 17 15 16 21 13 9 15 15 10 11 15 18 31 19 36 43 48 52 42 45 24 28 33 32
28 28 27 25 24 27 26 20 15 23 28 27 30 26 25 37 37 36 39 41 30 28 26 24 21 20 20 21 21 21 15 13 14 14 10 12 18 12 11 13 12 8 11 16 40 39 27 35 48 35 37 36 35 34
28 27 24 23 25 25 27 22 16 15 22 27 27 16 32 35 40 38 33 31 28 24 17 17 15 19 19 19 19 18 25 22 15 10 15 19 17 17 16 17 19 16 10 16 28 38 37 34 37 40 32 29 32 34
28 26 24 23 23 25 23 19 11 13 20 25 23 22 33 35 37 30 28 26 23 21 23 16 23 24 26 31 35 33 32 33 33 30 32 29 29 23 24 24 24 19 15 17 11 8 16 18 21 21 22 27 32 39
27 26 24 24 24 26 23 15 12 13 22 18 20 32 38 37 32 24 22 24 25 31 38 39 36 34 30 31 34 35 33 37 37 33 27 24 27 24 24 21 19 24 22 22 17 16 16 14 14 12 13 14 14 15
27 28 27 23 24 26 18 5 13 17 17 16 21 33 35 29 28 26 25 24 23 27 30 30 32 31 29 34 34 33 34 35 34 31 25 14 16 13 12 9 9 12 16 14 14 13 13 14 15 15 14 9 9 17
25 29 29 25 24 23 17 14 17 16 13 22 28 31 30 32 33 32 32 30 27 26 18 22 25 27 27 31 29 31 33 33 25 27 26 21 15 15 11 11 6 6 5 6 5 5 4 6 7 7 5 3 4 3
22 22 29 33 26 22 19 16 14 9 12 22 25 27 25 30 30 32 32 31 27 20 17 12 13 23 24 24 25 24 23 20 15 13 15 16 16 16 19 18 16 16 16 14 11 8 4 1 2 3 4 6 7 8
17 20 23 27 33 30 24 18 11 10 17 18 18 25 26 25 26 27 28 29 25 20 17 16 17 16 19 21 19 18 16 13 10 12 14 13 13 15 16 17 15 13 11 11 10 9 8 7 6 4 6 8 10 11
18 20 20 22 24 28 24 24 21 21 21 21 26 23 23 23 23 24 24 23 25 23 19 14 11 12 14 14 11 9 9 10 11 11 11 11 10 8 8 9 10 9 9 7 6 7 5 5 5 6 8 9 11 12
17 17 19 19 21 21 19 19 21 23 22 21 22 24 23 22 22 20 20 18 16 13 12 10 10 11 9 8 7 7 7 6 6 6 7 8 9 9 9 9 9 10 11 12 10 10 11 11 13 13 14 15 17 19
16 16 17 18 21 20 16 15 15 17 18 18 19 21 16 19 18 17 16 16 14 13 12 10 9 8 7 7 6 5 7 7 9 10 11 11 10 10 10 10 12 13 15 17 18 18 18 18 18 19 19 19 21 22
17 16 14 13 15 13 16 17 15 16 15 14 20 19 18 20 20 19 19 18 18 18 17 17 16 14 13 13 14 15 15 15 14 14 15 17 18 18 19 19 19 20 21 23 24 25 26 26 26 26 26 27 28 29
14 14 15 16 13 12 14 17 19 19 21 17 18 20 19 20 22 23 24 24 25 24 21 17 15 17 20 20 20 21 23 24 24 24 24 25 26 28 30 30 31 31 31 32 33 33 34 35 37 39 41 40 38 37
13 12 14 15 10 9 13 15 17 18 19 22 22 22 23 25 27 27 27 26 27 27 22 20 21 21 20 21 24 26 27 27 27 27 28 29 31 32 33 35 37 38 39 39 39 39 39 40 41 43 45 48 50 52
16 10 9 14 14 12 12 13 15 17 19 22 24 25 27 29 31 32 31 30 29 30 26 21 21 21 22 23 22 21 20 20 20 21 22 24 26 28 30 30 29 28 28 28 29 31 31 33 34 35 36 37 39 42
12 11 12 11 10 10 11 13 13 14 17 20 22 23 25 26 28 30 32 34 32 31 29 26 21 19 21 25 27 26 22 20 19 20 22 22 23 24 25 26 25 25 24 23 24 26 27 28 30 31 32 32 32 30
8 8 8 8 9 10 11 12 14 16 19 21 23 25 27 27 29 31 33 36 36 32 28 26 25 24 23 26 27 25 23 21 19 19 20 21 21 21 21 21 22 23 24 25 26 27 27 27 27 27 28 28 27 27
5 5 6 8 10 12 13 15 17 19 20 22 24 26 28 29 31 33 34 34 36 37 35 32 30 29 28 27 29 28 27 27 25 23 22 21 22 23 23 24 23 22 22 22 23 24 24 25 26 27 28 28 27 28
5 6 8 10 11 13 16 18 19 22 23 23 24 26 27 28 30 31 33 33 33 32 31 30 30 30 30 30 29 29 29 29 29 29 29 28 27 26 25 25 25 25 26 25 26 26 26 25 25 26 27 27 27 27
7 9 10 13 15 17 20 21 22 24 24 23 24 24 24 23 25 31 35 37 36 33 32 32 32 32 32 31 31 30 30 29 29 29 29 29 29 30 30 30 29 28 27 27 27 27 26 25 24 24 24 23 23 24
7 8 10 12 13 15 16 15 16 14 16 19 22 23 25 27 27 31 35 37 36 35 36 37 35 35 34 32 31 31 31 31 32 32 31 31 31 31 31 29 28 27 26 26 25 24 23 23 23 22 22 22 23 23
15 14 13 13 14 14 16 16 17 16 18 20 23 26 29 30 30 31 34 36 37 37 37 37 37 36 35 34 34 34 36 37 37 38 37 35 34 32 30 28 26 25 23 23 22 21 20 20 20 21 22 22 22 22
15 15 15 15 15 16 18 20 20 21 22 22 25 28 31 32 32 33 35 36 37 37 37 38 38 37 37 36 38 40 41 40 40 40 37 34 32 28 26 24 23 22 21 21 21 21 20 20 20 20 21 21 20 19

GFSWCAN_500_spd_024.txt.gz
Wind_Speed
41 41 41 42 39 33 39 45 50 56 60 57 48 47 43 38 37 39 37 35 28 22 14 10 8 6 5 6 6 6 5 9 9 10 12 16 15 22 35 41 56 75 87 99 98 100 101 93 86 83 80 74 71 67
40 41 40 42 40 35 33 40 46 50 60 57 49 48 47 40 33 33 32 30 29 26 21 13 8 7 8 6 3 7 8 8 6 6 7 10 12 9 11 18 36 52 75 89 100 106 95 95 88 83 78 78 75 70
40 39 41 41 38 36 30 35 43 50 52 54 44 42 39 42 40 32 31 28 25 24 21 17 12 9 7 5 2 2 3 5 1 5 8 4 3 7 12 15 27 35 47 67 85 101 100 96 79 79 74 72 66 67
40 38 38 40 38 38 29 30 38 47 49 49 42 42 38 41 36 37 31 28 25 21 19 17 16 12 4 5 7 8 6 8 6 4 3 3 7 9 9 11 21 31 40 45 53 80 92 94 81 68 65 55 48 38
41 37 35 38 37 36 30 26 33 42 44 45 46 41 37 40 35 31 31 30 26 24 23 25 19 15 12 16 16 18 15 10 7 6 11 13 8 9 19 20 21 34 34 42 41 45 66 63 73 66 56 59 49 40
41 36 34 37 36 34 29 23 29 37 41 43 44 36 31 35 37 31 28 27 27 24 20 20 21 16 13 11 9 6 4 7 12 10 7 8 8 12 8 7 12 17 31 38 38 39 41 52 50 62 55 48 53 54
38 33 33 33 31 32 27 21 27 33 39 40 42 33 30 31 36 30 30 32 26 28 25 28 22 15 10 11 13 8 5 8 9 12 18 16 15 4 3 10 7 8 29 31 39 36 44 47 50 56 55 61 47 51
34 33 33 31 29 27 27 18 22 29 35 38 37 32 31 30 30 24 21 28 29 32 29 28 25 23 20 16 12 12 15 21 23 20 20 14 14 24 23 13 4 12 26 38 43 44 41 48 50 58 44 57 63 54
32 31 31 29 27 28 25 16 16 23 31 36 30 32 23 22 24 24 28 31 29 24 25 25 23 22 20 18 18 19 21 21 20 24 24 23 21 14 21 19 16 22 26 42 39 35 41 52 54 62 46 35 36 67
31 31 29 26 26 25 23 15 16 19 27 33 31 30 21 23 18 22 27 24 25 19 19 21 20 18 17 17 17 20 24 21 20 20 20 24 15 18 25 17 8 21 19 36 43 40 31 56 57 59 36 26 34 36
31 30 27 24 23 25 23 17 13 16 23 30 28 27 19 23 25 23 21 22 25 23 18 14 15 17 19 18 17 18 20 21 21 25 28 21 16 13 15 27 19 15 30 35 36 24 21 57 58 49 34 14 30 30
31 30 26 23 22 22 19 12 8 14 19 28 24 19 21 24 29 26 27 23 22 22 20 17 19 23 26 26 30 39 39 36 36 36 40 36 29 17 13 17 21 19 17 20 22 31 27 34 26 34 39 37 19 20
30 33 30 25 24 22 14 7 10 16 22 24 20 17 28 30 29 32 32 33 30 29 28 29 28 27 33 37 31 35 41 41 36 41 38 34 31 23 17 14 15 11 12 12 27 24 20 35 31 25 26 41 44 24
27 34 31 26 23 19 12 12 12 22 21 15 16 29 37 31 26 25 25 27 28 29 27 26 23 29 29 37 37 38 39 37 37 35 35 26 22 28 32 38 28 29 32 23 16 15 16 9 7 8 9 18 22 25
23 30 33 28 22 17 11 10 15 25 12 14 20 30 32 30 24 17 15 17 22 24 25 22 23 26 24 28 31 33 35 37 29 32 26 30 26 18 18 17 20 20 28 25 20 17 20 15 15 14 14 15 19 17
25 27 31 31 25 16 8 11 24 21 14 20 24 28 28 27 27 25 24 18 21 20 18 18 19 20 23 24 25 27 29 28 25 22 20 20 26 26 24 24 24 20 14 10 11 12 15 23 21 19 19 16 13 12
22 22 22 29 29 21 22 23 23 13 19 18 21 19 20 17 18 19 20 23 28 26 24 21 15 15 14 16 19 20 17 14 14 14 13 15 17 19 20 21 18 19 18 17 12 9 8 7 5 5 4 7 10 10
20 20 19 20 22 27 27 24 22 22 24 24 20 22 20 19 16 15 17 19 19 19 18 15 17 14 13 11 11 10 8 7 8 10 11 11 12 12 12 12 11 10 10 10 10 10 11 11 9 7 7 6 4 3
17 17 18 17 18 21 18 16 18 18 21 24 24 22 23 21 19 19 20 20 17 18 21 19 14 10 7 6 5 6 7 9 9 9 8 8 9 10 11 11 9 7 7 8 9 8 7 7 8 9 9 10 11 11
15 15 15 14 17 21 17 16 19 20 18 22 24 17 18 19 19 19 18 15 14 14 15 17 18 17 14 10 9 10 11 11 11 11 10 10 12 13 14 15 15 15 14 12 12 12 13 14 15 15 14 15 17 18
15 15 14 12 12 15 17 20 22 19 15 19 22 22 21 22 22 21 20 20 21 20 19 19 20 20 19 18 15 13 13 14 15 15 16 16 15 16 16 17 17 18 17 18 19 20 18 18 19 20 21 22 23 25
15 13 14 13 9 13 15 17 16 18 19 21 20 21 24 25 26 25 25 23 21 22 23 21 20 20 21 22 23 23 22 22 21 22 23 24 25 26 27 27 27 27 28 28 27 27 28 30 32 33 33 33 34 35
12 10 14 14 15 17 17 19 17 18 18 19 20 22 24 25 26 28 30 29 27 25 24 22 22 22 21 21 20 20 21 21 21 24 27 30 32 33 34 35 34 34 34 33 34 35 36 37 37 37 37 38 39 41
9 11 16 17 15 15 15 15 15 16 18 19 21 22 23 24 26 28 30 31 29 29 28 26 25 24 24 23 23 23 22 22 22 23 22 22 23 25 27 29 30 31 31 29 28 27 26 26 27 27 28 29 29 30
11 11 10 10 10 10 11 12 14 16 18 20 21 23 24 24 25 27 29 32 33 32 30 28 26 26 25 24 23 22 22 23 25 25 24 23 23 24 25 26 27 28 28 29 30 30 29 28 27 26 27 28 29 30
9 8 8 9 9 11 13 14 16 18 20 21 22 24 25 25 25 28 30 33 34 32 30 28 27 26 26 25 24 23 22 22 22 22 22 22 23 24 25 25 25 25 26 27 28 29 30 30 30 31 32 31 30 30
7 9 9 10 12 14 16 18 18 18 19 20 22 24 26 28 28 30 31 34 35 33 33 32 30 28 28 27 26 24 23 23 22 22 22 22 22 23 23 24 25 26 27 29 29 29 30 29 30 30 31 32 32 33
9 10 11 12 14 15 17 19 17 18 19 19 22 26 29 32 33 33 32 32 32 31 30 30 29 28 30 30 29 27 26 25 25 24 23 23 24 24 24 24 24 25 26 27 27 28 29 30 30 31 32 31 31 31
9 11 12 13 14 16 18 20 20 21 21 22 24 26 26 28 30 31 32 33 33 34 33 32 31 29 30 32 31 30 30 30 31 32 32 32 31 31 30 30 30 30 29 29 29 28 28 28 28 28 28 28 28 29
11 13 14 15 16 17 18 20 23 24 25 23 23 26 27 27 28 31 32 33 35 36 36 35 34 33 34 35 36 35 35 35 36 36 35 36 36 36 35 33 32 29 28 27 27 26 25 25 24 24 24 24 24 25
11 13 14 15 16 18 17 18 19 21 23 25 25 26 27 28 29 32 32 34 35 36 37 37 36 36 37 38 39 40 40 40 41 41 39 38 36 32 30 27 25 24 23 22 22 22 22 22 22 22 22 22 21 22
11 11 12 13 15 17 18 19 20 21 22 23 24 25 27 30 33 34 35 36 35 35 36 38 39 40 40 40 41 42 43 45 46 44 41 35 29 25 23 22 21 21 20 20 20 20 19 19 19 19 20 20 20 21
15 16 16 17 17 19 20 21 21 22 24 25 26 27 30 33 33 33 35 36 36 36 37 40 41 42 42 41 43 44 46 47 44 38 31 25 23 23 23 21 20 21 21 20 19 20 20 20 21 21 21 21 21 21

GFSWCAN_500_spd_027.txt.gz
Wind_Speed
41 44 45 42 39 44 44 36 31 39 48 51 54 53 47 39 38 41 39 36 30 26 24 22 20 15 12 10 8 7 2 2 4 6 9 12 15 21 31 40 57 73 87 97 99 97 94 86 82 80 75 70 66 64
40 44 45 40 36 41 43 34 29 37 46 50 50 51 47 42 38 41 36 35 33 33 27 22 15 16 10 6 5 7 7 5 3 3 7 9 12 13 15 20 35 57 74 86 99 102 96 92 87 81 78 73 69 64
39 42 43 35 38 40 37 28 26 35 43 45 45 45 37 44 44 36 34 33 31 32 35 30 23 12 10 12 12 8 8 7 9 11 8 5 4 4 3 11 21 32 44 73 87 100 97 97 91 90 84 78 73 69
38 41 38 36 37 37 33 24 24 32 40 43 45 43 43 38 41 36 32 30 27 24 25 25 25 19 15 15 16 15 15 11 10 10 8 5 2 4 6 6 4 14 31 46 69 85 92 97 95 94 88 83 77 73
37 39 34 36 36 36 30 20 21 31 38 42 45 44 41 33 30 26 30 30 27 22 18 17 20 17 15 13 13 12 10 11 10 9 10 8 6 7 10 14 6 19 23 31 42 53 73 75 85 94 90 82 75 77
36 38 33 37 36 33 29 20 17 25 34 39 43 40 35 33 30 27 31 31 30 30 21 17 19 17 18 14 11 12 18 23 23 21 20 18 16 12 4 8 9 19 25 17 25 42 58 60 70 81 86 80 76 75
35 35 37 37 34 31 28 21 16 22 28 35 40 38 32 28 23 23 27 28 28 26 24 24 24 23 23 24 24 26 25 24 24 22 20 15 14 21 25 14 10 22 24 20 25 42 50 52 59 62 56 61 70 67
32 36 38 35 32 30 24 17 13 19 26 33 39 36 28 19 15 20 24 23 25 25 25 26 24 24 24 25 24 23 25 27 26 29 30 32 27 33 33 23 15 19 14 11 23 42 54 47 43 43 42 48 47 52
32 36 37 34 31 29 24 12 10 19 24 32 37 37 23 13 13 16 20 16 16 19 19 24 23 23 23 24 24 25 26 30 33 33 39 39 34 30 29 30 20 10 10 13 32 38 40 40 35 45 46 49 53 53
30 35 36 32 29 28 22 15 11 15 23 31 32 30 12 15 12 13 18 21 21 21 22 20 22 23 21 23 29 33 37 39 37 36 33 33 30 26 27 19 22 10 15 22 27 28 35 24 33 56 60 54 57 53
28 35 35 30 28 25 17 13 10 18 23 27 32 13 17 18 18 22 27 30 27 26 25 23 23 28 33 38 39 41 45 48 44 39 36 38 33 27 26 18 19 17 11 14 22 31 31 19 24 46 54 54 51 45
29 34 34 30 26 19 11 9 12 16 24 28 18 18 26 32 32 30 32 33 29 26 25 29 32 33 35 36 37 38 43 41 40 40 40 44 46 30 29 26 19 20 15 22 25 15 17 28 18 27 34 35 41 44
29 33 34 29 24 15 10 10 18 22 27 23 11 17 25 27 27 30 32 27 24 24 24 22 25 27 29 32 36 36 41 40 37 35 40 34 43 32 29 24 29 21 19 8 8 5 15 16 16 14 16 17 11 17
27 32 33 29 25 16 17 19 29 26 21 16 18 15 22 22 24 24 25 30 25 20 19 15 21 23 29 32 34 35 34 35 35 39 37 25 24 29 26 27 25 28 29 24 24 24 18 12 13 16 16 12 9 18
23 24 30 28 25 19 19 23 29 23 19 16 19 28 25 23 19 18 16 21 23 28 28 22 20 20 20 22 26 27 29 28 27 26 26 28 27 19 13 13 16 24 26 30 24 22 27 22 23 21 18 23 16 14
19 20 23 22 18 15 21 28 28 24 19 18 23 23 23 21 20 16 15 16 22 27 26 25 22 19 15 16 16 19 18 19 17 15 18 20 22 22 21 22 18 10 7 11 16 16 16 21 17 15 15 15 19 21
16 18 18 17 16 15 25 26 20 17 19 20 21 21 20 18 16 14 14 14 15 19 17 17 17 15 20 17 13 13 15 14 12 13 13 13 14 15 14 16 18 18 18 16 11 7 5 8 12 9 7 12 16 20
12 15 15 13 14 18 20 20 18 17 21 24 17 20 22 24 23 22 22 21 18 15 14 15 18 21 22 20 16 15 12 10 14 16 17 17 15 13 12 11 10 9 8 7 7 9 11 13 13 13 12 10 7 3
15 13 12 11 11 16 18 16 16 14 21 27 25 25 23 23 21 20 21 21 21 20 20 19 17 17 19 18 18 18 16 15 15 14 15 17 17 16 14 11 8 8 7 6 5 5 5 5 7 8 10 10 9 11
15 14 11 9 12 15 15 14 15 18 20 22 24 25 25 25 26 27 27 24 22 22 22 20 20 20 17 17 17 18 19 20 20 19 18 18 19 20 20 19 18 17 13 11 12 12 10 10 11 13 13 14 15 16
16 14 13 11 10 12 15 15 16 18 19 20 22 23 23 25 26 27 28 27 27 23 21 19 18 17 17 16 15 14 17 21 24 26 27 27 26 25 25 25 25 25 24 24 24 25 25 25 26 26 25 25 25 26
11 10 10 10 10 13 14 14 15 17 18 20 21 23 23 23 24 26 29 30 28 25 24 23 23 23 22 21 20 20 18 17 18 20 23 26 28 30 31 31 31 32 33 33 33 34 35 36 36 36 36 36 36 36
8 10 10 11 11 12 12 13 14 16 18 20 21 22 23 23 24 26 28 31 31 28 25 25 25 25 24 23 22 21 22 23 23 23 23 22 21 22 24 25 24 24 23 24 27 29 33 35 37 37 38 39 39 38
10 11 10 10 11 12 14 16 18 19 20 21 21 21 22 23 24 25 28 30 32 31 29 28 28 28 27 26 26 26 25 24 24 24 24 23 22 22 23 23 23 24 25 24 23 22 22 22 25 27 28 27 27 26
8 10 10 11 13 15 17 18 20 20 20 21 19 20 21 22 23 25 27 30 33 34 33 31 30 29 26 27 27 26 24 24 24 24 25 25 24 24 24 24 25 25 25 26 27 27 27 26 26 26 26 28 29 30
8 9 11 13 16 18 19 20 20 19 20 20 19 20 20 22 24 27 29 31 32 33 34 33 32 32 28 27 27 25 24 24 25 25 25 25 26 26 26 26 26 26 27 27 27 27 27 27 27 26 26 26 26 26
11 12 14 15 16 18 19 20 21 21 22 21 20 22 24 25 27 29 29 30 31 30 30 31 30 30 28 27 28 27 27 26 26 27 28 28 28 29 29 29 30 30 30 30 30 30 30 29 28 28 27 27 27 28
12 13 14 15 17 19 19 20 21 22 23 24 22 23 25 28 29 30 31 31 31 30 30 30 30 30 30 29 30 30 30 30 31 31 30 31 32 32 31 31 32 32 32 32 32 31 30 30 29 29 28 27 26 26
12 13 14 16 18 19 19 21 22 24 25 26 27 30 31 29 30 32 33 34 36 35 34 32 32 33 34 34 34 34 33 34 36 37 39 39 38 36 35 33 31 30 28 27 26 25 24 24 24 24 24 23 23 23
15 16 16 18 19 19 19 21 23 25 27 27 28 29 30 30 30 32 31 34 39 38 38 34 33 37 37 37 38 37 38 38 40 42 40 37 34 30 26 23 21 20 19 19 18 18 18 19 19 19 19 19 19 20
14 16 18 20 19 19 19 20 21 23 25 26 27 27 26 28 31 32 31 35 38 38 38 35 37 39 39 39 40 41 41 41 43 41 37 31 25 20 19 19 19 19 19 19 18 17 17 17 17 17 18 18 19 19
15 16 18 18 18 18 18 19 21 22 23 24 25 25 26 28 30 31 31 34 37 38 37 39 40 40 41 43 43 42 42 44 41 35 30 25 21 20 20 20 20 19 19 18 18 18 18 19 19 19 19 20 20 19
12 15 17 17 17 17 19 21 22 21 22 24 25 28 30 32 33 32 33 35 36 38 40 41 41 42 44 45 44 44 45 42 35 29 26 24 23 23 23 22 21 20 20 20 21 22 22 22 21 20 19 18 18 17

GFSWCAN_500_spd_030.txt.gz
Wind_Speed
39 38 38 40 38 40 39 37 24 28 35 43 48 49 52 52 49 46 41 32 30 31 31 26 18 18 15 12 11 8 6 3 3 5 8 10 15 20 37 49 62 82 91 89 89 88 88 85 81 80 74 74 70 67
39 37 37 39 38 39 39 35 24 24 34 42 46 47 46 44 46 39 33 27 28 30 28 24 23 18 16 16 15 9 7 5 3 4 6 8 9 11 15 28 46 63 81 91 94 94 87 88 86 83 78 77 70 66
38 36 38 38 38 38 37 34 25 23 30 37 44 46 42 38 35 33 32 33 28 25 24 22 21 20 17 13 13 11 10 10 10 9 6 5 4 5 7 16 26 45 57 79 90 94 94 94 85 83 83 75 74 69
34 36 36 38 37 37 34 33 30 21 28 34 40 45 37 31 29 27 28 31 27 23 22 23 21 20 16 16 15 14 13 13 11 11 9 7 3 0 4 9 8 22 37 55 76 88 93 95 92 88 84 84 78 72
33 34 35 37 38 37 32 30 29 17 26 32 37 40 31 27 26 24 25 25 27 30 27 27 28 25 29 30 31 29 28 25 24 22 18 12 9 5 9 6 4 18 19 34 48 60 79 90 94 92 92 88 80 76
32 33 35 38 36 34 30 27 24 18 24 30 36 39 26 20 21 27 23 26 28 28 28 28 30 30 31 31 31 30 29 30 30 27 22 16 13 11 12 8 19 19 15 12 27 47 63 77 88 91 91 88 82 80
31 30 34 36 34 31 27 24 18 20 24 31 36 34 21 19 21 21 20 22 24 27 28 26 30 30 29 28 30 36 38 37 35 28 31 24 20 23 30 26 6 24 25 21 18 26 47 55 66 80 86 83 81 78
30 31 33 35 33 30 25 20 15 19 25 31 34 25 20 20 20 23 21 19 23 22 23 26 27 27 29 28 35 46 53 51 45 44 35 31 26 24 25 27 22 15 17 25 29 27 30 49 57 70 74 78 75 72
30 32 32 34 30 26 22 16 15 19 26 30 25 26 23 19 16 19 16 18 21 21 24 24 23 25 34 39 40 45 50 54 50 47 38 41 33 28 27 26 27 21 20 7 19 28 30 45 56 56 56 56 60 60
29 31 35 31 26 22 18 14 14 20 24 20 24 23 22 22 20 18 17 23 24 28 30 29 27 32 34 37 39 38 44 47 50 49 39 38 33 25 17 28 27 31 23 16 24 26 23 19 33 35 42 40 34 33
27 34 31 28 25 21 17 15 18 16 28 16 18 22 26 23 19 22 26 27 28 29 27 29 26 28 26 26 31 35 35 38 42 48 40 43 37 29 28 23 26 23 20 18 29 40 37 27 37 45 36 36 32 37
26 33 27 27 25 21 19 21 21 29 34 13 14 16 18 22 25 26 28 26 23 24 22 24 26 22 26 26 31 31 33 33 35 33 38 41 45 42 30 28 30 24 24 16 22 30 32 32 46 33 34 43 45 48
23 30 23 21 23 20 19 20 25 28 32 28 8 9 14 19 24 23 24 25 21 21 23 26 27 28 28 31 31 32 36 37 32 31 36 34 31 33 33 26 21 23 22 22 22 22 19 20 20 24 44 26 17 18
18 23 23 19 25 25 16 18 26 30 28 20 16 20 25 24 21 20 19 22 24 19 20 24 26 19 23 25 25 26 29 31 32 37 37 38 29 23 26 27 29 30 28 28 26 23 23 17 21 28 36 38 35 34
15 16 18 18 16 18 17 18 31 29 23 15 12 16 19 17 18 18 16 13 13 14 17 21 22 21 24 23 21 22 24 25 27 28 26 25 27 30 22 14 17 18 24 19 19 25 25 27 21 19 21 26 25 20
13 13 12 14 14 17 20 19 24 23 21 21 24 23 22 23 22 20 19 19 18 16 15 13 16 19 19 20 22 21 18 19 21 19 18 18 18 19 21 22 20 11 7 10 9 8 9 8 22 29 29 27 30 29
10 11 10 10 10 14 16 17 15 15 17 17 17 17 18 17 16 16 15 14 14 15 16 16 13 12 17 22 24 23 21 20 20 19 19 18 17 17 15 13 14 15 15 14 9 6 3 6 5 6 8 13 13 20
10 10 10 11 11 13 15 14 11 13 20 22 23 24 24 24 23 22 20 18 17 16 16 14 14 16 17 18 18 20 19 18 18 19 20 19 18 16 15 13 11 9 8 7 7 9 10 9 7 6 5 5 3 3
13 12 11 9 11 15 13 13 15 17 18 21 22 23 24 25 26 27 26 23 18 16 17 18 17 15 14 15 18 20 22 23 23 22 20 20 20 20 19 17 14 12 11 12 11 9 9 8 8 7 6 6 6 7
15 13 11 8 8 11 11 12 15 16 18 20 21 22 21 21 24 27 29 30 28 26 22 19 18 19 19 20 20 20 21 21 23 24 24 24 24 25 23 23 22 21 20 19 17 16 16 15 15 16 17 16 15 13
10 9 8 7 7 7 10 12 14 16 19 20 22 21 22 22 23 25 27 29 28 26 23 21 20 19 18 18 19 20 21 21 22 23 24 25 24 23 25 26 25 26 27 27 27 28 28 27 27 27 28 28 29 29
4 6 7 7 7 7 10 13 16 19 20 21 21 21 22 23 24 24 25 27 29 31 31 27 24 24 22 21 22 22 21 20 19 20 20 22 22 23 22 21 22 23 24 25 27 28 30 31 32 33 34 34 35 35
5 5 6 7 9 11 14 17 19 20 20 20 20 19 21 22 23 23 23 24 26 28 29 29 25 24 25 23 24 24 24 22 22 21 20 21 21 21 21 21 21 20 20 21 22 23 23 24 24 25 26 27 27 28
6 7 9 10 13 15 17 18 20 20 19 20 20 20 20 21 23 24 24 25 26 27 28 29 30 28 27 26 26 27 27 25 24 23 21 21 21 21 21 21 21 21 21 20 20 21 22 22 23 24 25 25 25 25
9 10 11 13 15 17 18 19 20 19 19 20 20 19 21 22 22 24 25 27 29 30 30 31 29 30 30 29 27 27 27 28 27 26 25 25 25 25 25 25 25 25 25 24 24 23 22 22 23 24 25 26 27 29
11 12 13 16 17 18 19 19 20 20 20 20 20 18 22 25 25 24 26 29 29 32 33 32 29 28 29 30 30 29 29 28 27 27 27 27 27 28 28 29 30 29 29 29 28 28 27 27 27 26 25 24 25 25
12 13 14 16 17 18 19 19 19 20 21 22 23 24 26 27 27 26 28 29 27 30 36 35 32 30 29 31 32 30 30 29 29 29 30 30 31 32 33 33 33 33 33 32 32 32 31 31 30 30 29 28 27 26
12 12 14 15 17 17 18 19 20 21 23 25 26 28 29 30 27 29 28 30 32 34 39 37 34 31 32 34 34 34 34 32 31 32 32 34 35 33 32 30 29 27 26 25 25 24 24 24 23 23 24 24 24 24
11 13 14 16 17 18 19 20 22 24 26 26 27 27 28 29 30 31 31 33 33 35 39 39 36 34 36 36 35 36 37 36 36 36 38 38 35 31 27 22 18 17 16 15 15 15 16 16 16 17 17 18 18 19
14 15 17 18 20 20 20 21 24 26 27 26 25 25 27 30 32 34 35 32 32 34 38 39 38 39 38 39 40 40 39 39 40 40 37 32 27 25 21 20 19 19 18 17 16 16 15 15 15 15 15 15 15 15
17 16 18 20 21 21 21 21 22 23 24 23 24 26 28 30 30 32 33 32 35 39 39 39 40 39 39 40 41 42 44 42 39 35 31 27 25 23 22 21 20 20 19 18 17 16 16 15 16 16 17 16 16 15
15 15 17 19 20 20 19 20 21 23 23 24 26 29 31 31 31 32 32 35 39 41 40 40 40 40 40 41 43 43 39 36 34 32 30 27 24 23 23 23 22 21 21 20 19 19 19 20 20 20 19 19 18 17
13 15 17 19 19 18 18 19 22 22 22 24 27 31 32 32 33 33 33 36 40 42 41 40 40 40 41 43 40 37 35 33 31 30 28 26 25 25 24 24 24 23 22 22 23 23 22 21 20 19 18 16 15 13

GFSWCAN_500_spd_033.txt.gz
Wind_Speed
35 36 34 36 36 39 39 36 34 31 24 28 36 41 46 38 34 35 34 32 28 29 30 29 26 18 19 19 15 10 7 6 4 10 13 13 14 22 36 35 36 53 68 73 75 78 77 53 68 63 51 69 70 69
34 33 32 34 36 39 38 34 32 27 21 25 33 38 42 32 30 32 33 34 36 30 35 29 27 23 18 15 12 12 6 4 4 6 10 11 12 19 24 32 47 62 57 58 78 79 79 72 78 73 79 75 66 76
33 30 32 33 36 39 37 31 29 24 19 24 32 35 37 25 28 30 31 32 34 35 36 37 39 34 33 29 23 16 11 12 11 13 10 8 7 16 20 25 41 53 68 74 86 90 89 85 84 83 85 80 79 71
30 31 32 32 34 38 36 29 27 19 19 26 32 35 33 21 25 28 28 32 32 33 37 36 35 35 34 34 32 29 27 20 14 10 9 8 8 6 5 14 31 43 57 71 83 86 89 92 91 86 88 81 79 74
28 30 31 32 33 36 35 26 18 19 22 28 32 32 24 17 19 23 25 28 29 30 32 32 31 32 34 37 39 39 35 33 34 30 22 15 7 7 7 8 10 26 39 53 67 76 83 89 92 91 87 79 77 73
27 30 32 33 33 33 33 24 17 21 26 31 33 24 16 16 19 24 25 21 22 27 25 25 25 25 28 35 37 37 36 39 39 34 27 14 11 18 3 12 22 16 15 30 47 64 77 86 93 93 90 87 84 77
27 31 33 34 35 32 27 17 15 21 28 32 21 17 17 18 24 24 24 23 22 22 18 19 25 28 32 28 39 45 48 53 54 46 36 28 19 16 13 7 5 18 19 16 25 46 62 74 82 85 90 87 83 78
28 32 36 36 30 23 16 13 14 21 26 21 21 21 20 22 24 25 22 20 20 19 18 22 23 27 34 38 42 41 45 48 53 50 43 40 31 17 13 18 19 18 17 21 25 31 34 48 65 75 83 84 85 81
28 33 29 26 23 20 18 15 16 20 19 18 21 25 24 23 23 23 21 24 25 21 20 21 22 25 30 36 36 40 44 48 46 44 44 44 36 31 21 23 16 24 25 18 27 36 30 31 42 57 64 79 79 77
26 27 26 27 24 20 19 20 17 17 7 16 24 23 20 21 20 21 20 20 23 23 22 26 33 36 32 28 29 32 35 41 44 43 49 50 49 40 21 22 18 25 36 19 10 17 35 26 23 37 55 60 64 66
21 20 24 24 23 22 20 18 23 14 12 16 19 23 19 20 16 10 13 16 21 28 29 30 33 33 31 32 33 32 33 32 34 35 40 42 47 43 34 28 23 20 20 32 30 14 8 21 21 19 30 48 52 53
16 13 15 20 26 25 23 17 22 18 6 10 14 16 17 13 14 12 13 18 22 25 27 27 30 32 32 33 32 31 34 35 37 33 29 37 39 43 45 34 26 27 25 32 23 20 14 17 21 18 18 29 39 42
15 16 11 17 22 24 16 18 21 26 27 26 21 16 12 17 17 16 16 12 14 16 18 19 22 25 27 30 30 27 29 29 30 31 36 35 29 29 30 32 31 27 24 24 21 15 26 20 24 38 27 26 32 39
15 16 16 17 15 15 18 22 18 26 27 21 17 13 11 14 13 13 14 17 15 11 12 12 13 14 19 21 20 20 22 23 25 27 31 29 31 28 22 20 21 25 25 23 19 20 11 12 26 16 29 39 31 48
13 15 15 13 12 14 14 14 19 20 16 13 12 11 11 10 11 14 14 12 13 14 16 16 16 12 12 14 15 16 18 22 23 24 23 24 24 23 24 28 19 14 17 17 18 21 25 26 25 24 19 21 13 25
11 12 12 12 13 16 17 16 15 19 17 13 14 17 19 19 18 17 16 14 13 14 14 15 16 18 17 16 17 19 22 21 20 21 21 20 21 21 21 19 19 21 20 15 14 10 8 8 16 26 29 26 21 15
9 9 9 9 11 15 20 14 13 15 15 16 19 20 21 23 23 22 20 18 16 15 15 14 16 18 17 19 20 21 22 23 23 22 20 18 18 18 18 17 16 15 14 12 14 13 14 16 13 10 6 6 10 14
11 11 11 11 12 14 11 13 13 15 17 17 17 17 18 21 23 24 25 25 21 17 15 14 15 16 18 18 19 20 21 22 24 24 23 22 20 19 16 14 14 14 10 11 9 6 6 7 6 6 5 5 5 6
14 14 12 11 10 10 9 11 12 15 16 17 18 18 18 19 21 21 23 24 25 25 24 23 22 21 20 21 22 21 21 21 21 22 23 24 24 23 22 20 18 16 16 15 12 11 10 10 10 10 7 7 6 7
11 10 8 6 6 7 9 10 14 16 18 19 18 17 18 18 19 20 22 25 26 27 26 26 25 23 22 22 22 22 22 22 21 20 20 21 22 22 22 21 20 20 22 24 24 23 20 17 16 16 15 14 13 13
5 5 4 5 5 7 10 14 16 18 18 18 18 17 18 19 21 21 21 23 23 24 25 26 26 25 23 23 22 21 21 22 21 21 20 20 21 21 21 22 22 22 20 20 23 26 29 29 28 27 26 27 27 25
3 3 4 6 8 10 13 16 18 19 19 18 18 17 18 19 22 24 24 23 23 23 23 24 25 25 25 23 22 21 21 20 21 21 21 20 19 20 20 20 20 20 19 20 21 22 23 26 29 30 31 32 32 33
5 5 6 8 11 14 15 17 19 20 20 20 20 19 18 21 22 23 23 22 23 23 23 24 24 24 24 24 24 23 23 24 24 25 25 24 23 21 21 21 21 21 21 20 20 20 21 23 24 26 28 28 29 29
8 9 10 12 14 15 17 18 19 20 20 20 20 21 21 23 25 25 23 23 26 24 25 28 30 28 28 27 27 29 30 29 29 28 27 27 27 26 25 24 23 23 23 23 24 25 24 23 24 24 25 27 28 29
10 11 13 14 16 16 17 19 19 21 21 21 21 21 22 24 25 24 23 25 27 27 30 31 35 36 30 28 28 30 31 30 30 31 30 30 30 30 30 30 29 27 28 28 28 28 28 28 28 28 27 27 27 28
11 12 13 14 16 17 18 18 19 19 20 21 22 22 22 23 24 23 26 29 29 32 34 34 37 41 33 29 30 33 34 34 34 34 34 33 32 32 32 32 33 33 32 32 32 32 32 31 30 30 30 30 31 31
11 11 13 14 15 17 18 17 17 18 20 22 24 25 26 28 31 31 31 30 31 33 31 35 35 36 36 35 36 36 34 34 35 36 35 34 33 33 33 32 31 30 30 29 28 27 26 25 25 25 26 27 28 29
11 11 13 15 17 19 19 19 19 21 24 26 26 27 28 32 32 33 34 33 33 30 34 37 39 39 39 38 37 38 39 39 37 37 36 32 31 29 26 24 23 22 20 18 18 17 17 16 16 16 16 17 18 19
13 13 14 15 18 20 21 25 22 18 25 27 26 25 27 31 34 34 33 32 32 35 34 38 41 40 38 39 38 35 36 39 36 33 31 30 28 25 23 21 19 18 18 17 18 17 16 16 15 15 15 14 14 15
17 16 14 15 18 19 14 16 21 22 24 25 25 27 30 34 34 33 28 30 32 34 37 42 40 38 38 38 39 41 36 31 32 31 30 28 27 25 24 22 21 20 19 19 17 16 16 16 15 14 13 13 13 13
18 15 14 16 18 19 18 20 22 24 25 25 26 27 29 33 32 30 32 33 34 38 41 41 40 39 38 38 37 35 35 33 31 31 31 30 28 26 25 24 22 21 20 18 17 16 16 16 16 16 15 16 16 16
15 14 15 17 18 18 18 21 23 24 25 26 27 29 30 30 32 34 35 35 39 40 39 38 38 39 39 38 34 33 32 33 33 32 31 30 29 28 26 24 23 22 22 21 20 19 19 19 19 18 18 17 17 17
12 13 15 16 17 19 21 22 22 23 24 25 27 30 31 29 31 33 34 37 39 39 39 38 38 36 34 33 33 34 33 33 33 33 32 31 30 29 27 26 24 22 21 21 20 20 19 19 18 16 15 14 13 13

GFSWCAN_500_spd_036.txt.gz
Wind_Speed
34 31 33 32 34 34 36 39 35 29 27 23 22 30 35 38 26 30 33 36 38 38 36 35 32 29 24 23 18 14 7 7 12 12 11 10 24 18 41 28 25 45 53 55 63 63 52 31 44 49 53 55 65 71
31 32 30 32 34 34 35 38 33 30 25 19 25 31 35 35 25 27 32 32 34 35 32 30 29 28 26 23 19 17 15 5 10 11 14 13 22 17 39 47 31 29 41 46 52 68 60 42 46 54 56 61 54 63
29 30 29 32 34 34 33 35 29 25 21 24 29 33 34 26 23 28 25 27 30 30 28 25 25 23 24 26 26 22 17 12 10 9 11 12 12 24 30 53 50 43 43 49 61 65 72 54 56 56 58 65 73 76
28 26 29 33 35 35 34 31 26 24 25 29 33 30 19 18 20 20 22 25 27 26 26 22 21 21 23 29 29 27 26 21 16 13 8 6 7 6 12 25 55 65 62 63 78 79 78 83 77 73 75 73 73 70
24 27 32 36 40 38 29 24 18 21 26 32 26 19 15 16 17 20 23 25 25 25 25 18 19 21 26 36 40 40 39 36 30 22 13 10 6 2 4 4 16 49 61 71 77 78 85 87 88 85 88 87 82 76
23 29 35 36 32 28 20 14 14 19 27 25 17 14 15 15 19 25 26 24 25 24 24 22 21 28 28 30 40 44 42 42 38 34 30 30 32 29 14 5 16 23 39 57 74 73 82 88 89 89 87 86 81 77
23 29 29 29 28 23 19 14 16 23 20 21 19 16 17 20 24 28 30 28 27 25 22 26 29 29 37 37 39 40 41 40 40 39 36 30 26 25 19 3 8 12 11 12 25 47 63 73 82 88 87 86 83 78
22 22 22 23 21 19 17 18 21 18 17 18 18 22 22 21 23 29 29 25 28 29 22 29 27 27 27 29 35 38 38 42 42 41 37 33 29 28 30 24 5 13 18 21 28 33 44 53 73 80 83 86 84 80
19 18 20 21 22 22 20 26 22 12 14 22 20 22 21 18 23 26 26 24 23 26 30 32 31 32 34 32 31 31 34 38 42 44 43 41 36 35 29 16 16 22 29 32 20 35 36 49 64 72 79 83 84 82
16 14 18 21 20 24 24 24 14 9 14 19 24 21 20 17 19 22 22 23 20 25 29 29 32 33 31 27 30 34 33 32 33 42 45 47 41 32 32 26 21 28 22 19 9 5 28 34 42 54 66 75 82 83
14 15 14 18 19 21 20 24 21 7 11 17 18 21 22 20 17 15 11 18 18 19 19 23 26 26 28 28 25 30 32 33 28 28 29 30 35 35 37 39 32 32 23 15 19 17 15 16 13 19 34 55 69 75
14 18 15 15 15 19 17 23 16 12 12 16 20 21 20 15 13 12 14 17 17 16 18 17 22 22 22 23 21 21 22 27 29 28 25 25 31 25 25 30 34 32 26 21 22 18 7 11 14 13 10 14 39 61
14 14 18 13 12 15 16 14 13 10 12 18 19 15 13 14 14 14 14 15 15 14 17 16 19 17 16 16 17 16 20 21 21 23 26 29 28 31 29 26 25 28 29 21 16 17 16 18 10 5 4 4 10 34
14 15 15 12 12 14 14 15 18 14 13 16 16 14 14 15 15 16 16 17 16 16 15 17 17 17 18 20 17 16 16 18 19 19 21 22 23 24 24 29 33 27 23 25 22 17 16 13 15 26 22 9 20 24
12 12 12 12 13 14 16 16 16 13 18 16 14 13 15 16 17 17 18 20 20 20 20 20 18 21 19 18 18 18 18 20 20 20 20 19 19 18 20 20 20 21 27 26 20 19 19 17 4 13 21 19 32 40
11 11 12 12 13 15 17 14 12 15 16 14 15 18 20 20 21 22 22 21 19 18 19 19 19 19 20 20 20 21 20 20 22 22 22 22 21 19 18 19 18 17 18 18 22 26 22 15 10 10 16 24 27 30
12 13 12 12 13 14 9 10 14 17 16 16 16 16 17 19 20 21 22 23 23 21 20 19 18 18 19 20 21 22 22 21 21 22 24 23 23 23 20 18 19 18 15 13 13 15 15 17 21 18 10 5 7 14
13 14 11 10 9 9 8 11 13 15 16 17 17 16 17 17 18 18 20 22 22 22 22 23 24 23 22 21 22 23 23 22 18 19 21 23 24 23 22 20 18 18 19 18 11 10 12 12 11 11 12 9 5 1
13 11 9 8 7 9 10 13 15 17 18 17 17 17 16 17 18 19 20 21 22 22 23 24 24 26 27 27 26 25 24 23 23 22 21 21 22 23 23 21 19 19 17 20 23 19 13 12 11 9 9 8 6 4
9 7 7 7 7 9 12 15 18 19 19 19 17 16 16 15 17 20 22 21 22 22 23 23 23 24 25 27 28 27 25 24 23 23 23 23 22 22 23 24 24 22 20 18 18 23 24 24 21 19 17 16 14 14
7 6 7 8 10 13 16 18 19 20 20 20 19 17 16 16 18 19 21 22 22 24 25 24 25 25 25 25 26 26 27 27 26 25 24 23 23 23 23 22 23 23 22 20 20 20 22 23 24 26 27 27 25 26
7 7 9 11 13 15 17 18 20 20 20 20 20 20 19 18 20 23 24 22 21 24 23 22 26 26 27 28 29 29 28 28 27 25 25 25 25 24 24 24 23 24 25 25 24 22 21 22 24 24 24 26 28 30
8 10 11 13 15 17 18 20 20 20 20 20 20 21 22 23 25 25 25 23 23 23 22 25 26 25 27 30 26 25 25 28 31 29 28 28 28 27 27 27 27 25 26 27 27 27 25 24 25 24 23 25 25 25
11 12 13 15 17 18 19 20 20 19 20 21 22 23 23 24 25 25 26 27 27 28 28 31 30 31 32 35 37 32 29 32 33 32 31 31 31 32 31 30 30 29 28 29 29 29 29 29 29 28 26 27 27 27
12 13 13 15 16 17 19 20 21 20 21 23 24 22 20 19 22 26 28 29 30 31 32 31 33 32 33 37 38 39 36 36 36 36 36 35 34 33 33 33 34 30 30 31 31 32 32 32 31 32 32 31 31 31
10 10 12 13 15 17 18 19 17 17 19 22 27 28 28 22 25 38 37 33 33 31 32 34 33 32 34 41 41 37 37 36 36 36 37 36 33 31 30 30 31 32 31 30 30 30 31 31 32 31 32 30 31 31
10 10 11 14 16 18 17 17 18 14 16 13 25 33 30 28 27 30 34 35 34 34 34 35 30 33 42 44 40 39 39 40 36 33 29 26 26 26 26 26 25 24 23 23 23 21 20 20 20 20 21 22 21 24
13 13 14 14 17 21 25 20 8 12 20 22 30 31 30 35 33 17 28 38 33 36 35 36 40 41 40 40 38 35 31 31 32 29 29 29 28 26 25 25 24 23 22 22 20 19 19 17 16 15 14 13 13 13
15 15 15 12 15 16 21 23 19 21 30 30 31 29 28 30 36 29 36 37 37 37 39 43 41 39 39 39 38 36 34 32 33 33 32 30 29 29 27 25 24 23 23 20 21 21 19 18 17 16 15 14 14 13
14 13 11 13 15 14 17 23 23 26 26 25 29 26 22 37 34 26 31 34 39 43 44 43 41 40 40 36 34 35 37 36 33 34 33 32 30 30 28 27 25 24 23 23 21 19 19 18 17 16 15 14 14 13
17 14 13 14 14 13 10 14 22 26 26 26 26 29 23 31 36 37 37 40 44 43 39 40 39 36 35 36 34 33 35 37 34 32 32 32 32 31 29 26 25 24 23 22 21 20 19 18 17 16 15 15 15 15
13 12 12 14 15 14 17 20 20 25 28 30 28 15 29 30 30 34 38 41 42 41 40 38 35 33 34 35 37 35 34 35 35 33 32 32 31 29 28 27 26 24 23 22 21 20 19 19 19 18 17 17 16 16
10 10 11 15 16 18 19 22 24 26 27 28 30 27 33 34 33 36 39 39 37 37 35 32 31 33 34 36 36 37 33 34 34 33 32 31 30 30 31 30 27 25 23 20 18 16 15 14 14 13 12 12 11 11

GFSWCAN_500_spd_039.txt.gz
Wind_Speed
39 28 31 32 32 35 35 33 33 31 28 26 28 32 34 31 26 27 30 31 34 33 34 29 24 18 19 19 19 18 8 4 7 11 8 22 19 39 32 11 21 31 55 64 61 60 64 63 59 67 65 64 65 66
28 25 30 31 35 38 39 35 31 28 25 27 31 31 28 21 23 24 26 30 33 32 37 33 27 22 15 17 21 19 16 5 6 4 6 15 22 30 35 28 22 30 40 64 69 55 51 54 67 82 72 71 73 70
25 26 29 35 38 38 37 30 25 22 22 29 29 22 21 20 20 22 23 26 30 32 33 31 29 23 17 15 16 20 19 20 15 8 6 7 13 23 33 37 27 31 43 57 71 74 70 49 50 67 80 75 71 73
22 25 31 32 34 33 29 24 20 19 23 26 22 19 20 21 20 19 23 26 31 33 33 32 32 24 22 20 18 18 20 18 16 14 11 14 11 17 24 33 38 33 40 54 64 64 79 67 47 59 66 73 68 75
20 26 27 29 30 29 26 21 22 24 22 25 19 20 20 22 22 23 26 27 32 32 34 34 33 30 30 27 24 24 23 25 21 22 24 19 16 16 7 14 37 51 55 56 62 61 69 73 61 46 56 61 70 76
21 23 23 25 27 27 25 26 23 22 24 23 21 21 22 27 25 24 25 27 28 27 29 31 34 36 34 33 31 31 31 31 32 38 43 39 31 22 12 6 31 55 67 67 65 66 69 64 68 57 53 58 61 67
19 18 20 25 29 28 25 26 15 18 22 19 20 19 23 26 24 23 30 32 33 32 29 32 36 36 31 30 31 34 34 34 34 37 35 31 28 26 25 22 10 10 11 25 50 63 73 76 74 70 73 55 56 57
17 16 18 23 26 25 31 26 15 17 20 18 18 16 21 24 25 26 28 27 28 26 26 28 28 29 32 30 25 30 35 35 36 38 39 37 39 34 31 25 19 14 13 15 19 25 41 61 81 85 83 83 76 66
17 14 15 21 21 21 25 31 16 16 18 16 14 21 18 19 17 22 23 19 20 22 24 29 29 27 27 28 31 25 26 29 32 33 34 36 37 35 26 26 22 16 11 13 18 27 35 41 52 75 92 90 86 85
15 18 14 16 20 18 20 24 26 13 14 14 17 20 16 15 16 17 22 22 22 20 21 32 24 25 25 22 24 22 25 24 24 26 25 27 28 24 24 25 25 31 22 26 28 19 19 31 47 57 66 81 92 92
14 16 18 17 17 18 19 20 18 11 7 8 10 11 13 14 15 16 16 17 16 16 17 16 34 21 22 21 19 20 21 23 22 22 21 24 25 20 21 23 21 19 17 19 30 27 9 5 21 40 50 59 72 80
13 15 17 19 12 16 15 17 18 15 15 12 13 17 21 17 15 15 15 17 17 17 18 18 21 18 20 21 20 17 15 21 22 20 18 18 21 22 23 20 21 19 18 20 26 23 6 4 10 10 14 21 37 53
13 14 14 14 14 15 18 18 19 18 17 16 17 17 16 18 15 17 19 20 19 19 19 21 22 21 19 18 18 18 17 19 20 21 20 18 18 19 20 19 18 16 17 21 16 19 21 3 6 9 11 17 22 22
13 13 12 11 14 16 18 18 15 15 11 14 16 16 15 19 22 23 25 25 24 21 18 16 17 18 17 17 17 16 14 18 20 21 22 23 20 17 16 16 17 16 18 18 15 9 8 12 8 1 5 7 3 9
11 12 13 13 13 16 16 12 14 15 16 15 15 17 18 19 20 20 22 23 23 23 21 19 20 20 20 18 18 19 19 20 21 22 22 22 23 22 19 18 17 15 15 18 19 15 9 2 4 13 17 21 13 3
12 14 14 13 13 12 10 12 14 17 17 18 17 17 17 17 17 17 19 21 21 21 22 22 21 21 20 20 21 22 22 22 22 23 24 25 24 23 23 21 19 18 15 12 13 18 15 12 6 5 7 14 11 12
13 14 13 11 11 10 10 12 14 17 18 18 18 17 17 17 18 18 19 20 20 19 20 21 21 21 23 24 24 24 24 22 21 22 22 22 23 24 22 21 22 20 16 16 13 10 9 12 9 5 6 13 19 19
12 11 10 10 10 12 12 14 16 19 19 19 18 18 17 16 16 18 20 21 21 21 21 23 22 23 22 23 24 26 27 28 27 25 22 22 23 22 23 23 20 20 21 17 16 15 13 9 6 7 2 4 2 13
9 9 9 10 9 11 13 16 18 19 19 19 18 18 19 18 17 19 22 23 22 21 22 23 22 22 23 23 24 25 26 26 27 29 28 27 25 23 22 23 25 23 20 19 19 17 16 15 16 11 11 10 5 4
8 7 9 9 11 13 15 17 19 20 19 20 20 19 18 19 18 20 22 23 22 20 21 21 20 24 24 23 24 25 27 27 27 28 30 30 29 28 26 24 24 26 26 21 18 20 19 16 15 16 15 17 17 13
8 8 10 11 13 15 17 19 19 20 20 21 20 18 17 17 19 19 19 21 22 25 26 26 26 26 26 26 27 26 30 29 30 29 29 31 29 28 27 25 25 25 25 27 23 17 21 21 18 18 17 16 20 20
8 9 11 12 14 16 18 19 21 22 20 20 21 19 17 15 17 19 18 17 18 21 24 26 26 26 27 28 26 29 32 31 30 30 31 31 31 30 30 30 28 25 25 27 27 22 20 21 21 18 22 20 18 20
11 12 13 14 16 17 19 20 20 18 16 17 19 20 21 19 16 22 23 22 23 24 25 26 27 28 29 31 33 31 40 37 33 32 31 30 31 31 31 31 30 27 25 28 28 29 25 22 22 21 24 23 22 22
13 13 13 14 15 17 19 20 18 15 13 14 19 16 26 26 13 11 25 30 36 32 30 34 34 35 36 34 36 39 44 39 36 36 33 32 32 31 31 31 30 26 25 28 28 29 29 28 26 22 24 26 25 24
11 11 11 12 15 18 20 22 21 16 17 14 17 25 36 33 32 28 12 24 33 29 31 35 34 34 38 41 40 39 38 37 37 36 32 30 28 26 26 27 25 23 24 24 25 26 26 27 27 27 25 25 27 25
10 11 12 13 15 17 21 26 22 20 24 25 25 24 23 28 36 19 17 20 37 42 39 38 40 43 41 38 38 39 38 36 34 31 30 28 27 27 26 25 26 25 24 23 23 24 23 23 24 24 20 19 21 23
14 13 11 12 14 16 17 14 24 13 24 29 26 27 25 28 30 31 12 26 35 37 40 45 46 42 41 39 37 35 31 28 31 32 30 28 26 24 25 25 24 25 24 23 23 22 23 22 21 20 16 15 14 15
16 13 15 15 16 17 20 21 16 25 29 31 29 30 39 20 25 30 23 36 37 41 42 43 41 41 39 33 33 36 37 36 34 36 37 33 31 28 27 27 25 23 23 24 23 23 22 21 20 18 16 15 14 13
18 17 16 15 16 13 15 19 20 23 27 25 31 29 27 33 28 19 30 37 40 45 44 42 40 39 36 38 37 39 40 40 37 36 36 35 32 31 30 29 28 27 24 21 21 21 21 19 18 17 15 14 12 12
20 18 14 13 15 13 14 18 20 19 22 32 32 38 20 16 28 39 40 43 45 45 44 44 39 36 38 38 38 38 40 37 35 35 35 34 32 31 29 27 27 25 25 24 21 19 18 18 17 15 14 13 13 11
17 14 14 14 15 14 16 16 18 26 29 30 30 34 31 30 28 42 43 46 49 46 43 38 35 38 39 39 37 37 38 37 34 31 31 30 30 31 32 30 28 25 23 22 21 19 17 15 15 15 13 11 11 10
14 11 10 16 15 14 16 20 21 24 28 28 25 30 29 30 37 40 40 43 42 41 36 32 35 36 38 39 38 34 35 36 34 30 28 30 31 33 34 31 27 24 20 18 16 14 13 12 11 11 12 13 12 11
10 9 11 12 11 12 18 24 26 27 28 27 28 29 29 31 33 36 42 43 40 38 31 32 34 35 37 40 39 34 33 32 30 30 32 32 33 36 34 30 26 22 18 15 10 6 4 3 3 4 5 5 5 5

GFSWCAN_500_spd_042.txt.gz
Wind_Speed
42 30 25 29 35 35 35 32 27 21 19 23 28 22 22 21 21 24 26 30 33 34 36 35 35 33 28 22 21 19 9 7 10 10 15 25 27 19 14 20 27 56 63 67 70 76 65 73 66 52 63 63 60 53
24 23 28 31 32 30 28 26 25 24 25 26 23 22 21 20 21 21 25 29 32 35 37 39 40 38 33 27 22 18 14 5 6 7 9 20 36 26 20 15 20 36 62 66 69 77 75 66 69 48 68 63 59 59
23 25 27 28 29 27 26 27 28 26 27 23 19 21 23 22 19 20 25 27 31 37 39 39 43 42 37 31 26 21 17 13 10 11 14 19 28 29 20 11 6 18 35 58 72 72 77 57 70 59 62 68 64 67
19 25 24 27 27 26 28 28 24 26 26 20 21 25 23 21 21 20 26 28 29 34 37 41 44 48 44 37 33 29 29 24 15 14 15 19 21 18 17 18 19 18 34 50 68 72 73 72 57 69 56 71 71 71
22 23 23 26 29 23 22 23 22 25 23 18 23 24 22 24 23 27 28 29 31 34 39 42 41 45 48 41 34 34 35 41 39 27 21 19 14 12 13 20 22 22 19 46 62 65 66 70 66 52 62 67 73 75
22 19 20 24 27 28 23 17 22 23 21 16 20 22 22 22 24 25 26 29 32 31 32 35 39 37 41 39 36 37 32 30 27 26 29 28 17 15 19 22 26 29 30 41 51 67 63 56 58 53 52 58 69 83
19 19 18 21 24 24 27 17 18 20 18 18 15 15 17 20 21 21 24 27 28 29 29 29 31 32 29 31 31 32 35 35 34 32 31 31 27 14 3 8 19 26 38 39 37 54 68 69 64 53 46 56 61 63
16 20 18 17 22 24 23 20 14 16 17 15 13 13 13 14 18 21 23 24 22 27 33 28 28 26 25 27 26 24 25 26 26 29 28 28 27 22 17 11 6 8 30 44 49 52 52 62 78 75 78 69 57 72
14 17 21 18 19 22 24 21 23 16 13 12 12 11 11 14 16 17 18 19 20 19 20 26 25 25 24 22 20 23 22 21 22 24 23 23 26 32 27 24 18 14 6 6 19 38 54 66 73 79 83 76 79 71
13 18 18 21 17 15 17 21 22 21 20 19 17 14 15 16 17 18 20 20 20 20 16 19 21 20 23 23 21 18 18 21 21 21 21 23 21 20 18 20 17 11 6 9 13 14 18 30 45 75 87 85 82 77
12 15 16 17 15 18 19 18 20 19 19 19 16 15 16 18 21 21 20 20 19 17 15 16 16 16 19 22 21 17 19 20 21 19 18 17 15 13 10 10 11 14 17 20 19 20 14 12 13 49 68 90 94 90
11 15 13 13 14 18 20 21 19 17 18 16 17 19 22 18 16 18 20 22 21 19 18 16 16 16 16 16 15 15 14 20 21 20 17 14 14 12 12 11 11 13 14 14 19 26 22 10 7 8 37 61 70 88
12 14 14 13 15 16 19 17 15 18 17 14 17 16 14 15 17 20 23 26 26 25 25 22 18 14 15 14 15 13 17 18 20 19 17 15 14 14 14 13 14 16 17 16 14 17 21 21 8 6 10 18 32 55
11 12 14 15 16 16 15 13 14 16 16 15 16 16 16 17 18 20 22 23 23 23 23 21 21 19 18 17 17 17 17 18 19 20 19 17 16 15 14 14 13 14 15 17 17 13 13 16 17 4 3 11 14 20
10 13 14 13 13 13 11 12 14 16 18 18 18 18 17 18 18 19 19 21 22 21 21 21 19 19 18 18 18 19 20 20 20 21 20 20 20 20 18 17 14 15 14 14 15 15 12 7 10 15 7 10 12 6
11 12 12 11 11 12 11 13 15 19 20 19 18 18 18 17 17 17 19 21 22 21 19 20 21 19 19 20 19 19 20 21 22 23 23 23 22 22 23 21 18 15 16 14 12 12 11 13 4 7 10 8 16 14
10 10 10 10 10 11 12 15 18 21 22 23 21 17 17 18 17 17 18 21 22 20 18 20 21 21 22 21 20 20 21 21 22 23 24 25 24 22 22 21 21 19 15 15 16 13 10 6 12 8 6 14 15 20
8 8 8 9 9 11 13 16 18 19 20 21 22 22 18 16 17 18 20 21 21 20 19 20 22 22 24 25 23 24 25 25 26 25 24 26 27 26 24 23 22 21 19 14 15 16 15 10 8 10 11 13 7 13
6 6 7 8 9 12 15 16 18 19 19 19 20 21 21 19 17 17 19 19 20 21 24 25 24 22 22 24 24 23 22 24 26 27 28 29 29 29 29 26 24 23 22 19 16 15 13 14 14 12 9 12 14 15
5 6 7 9 12 14 15 17 19 20 19 18 19 19 18 17 17 17 17 20 21 21 21 21 21 21 23 25 28 28 26 26 27 30 30 32 32 31 31 29 26 25 24 21 19 18 16 14 12 14 12 10 13 17
6 7 9 11 13 16 17 18 18 18 16 17 19 19 19 19 16 15 16 16 19 21 22 23 25 25 24 27 30 31 32 34 33 35 30 30 32 32 31 29 28 26 26 25 22 19 17 19 18 15 16 14 13 14
7 9 11 13 14 16 16 16 17 17 16 15 16 18 20 32 15 12 13 14 15 21 21 20 26 27 29 31 31 32 31 33 36 30 27 26 27 28 30 29 28 26 27 28 23 21 19 16 21 23 18 15 15 14
10 11 12 12 13 15 16 19 20 20 17 16 20 20 32 28 22 25 32 28 22 20 28 32 30 34 39 39 35 33 33 35 34 31 29 28 27 27 25 24 22 20 21 24 22 20 20 19 17 22 25 20 18 15
10 10 10 10 12 15 18 21 23 16 13 20 27 20 27 29 30 27 30 19 20 19 27 35 39 39 41 41 38 34 33 31 31 32 31 30 29 29 27 24 21 22 23 23 22 21 20 19 16 17 21 23 22 20
10 11 11 13 16 19 21 19 19 15 16 27 25 17 21 35 31 23 25 14 15 33 31 30 45 44 41 38 35 33 31 31 32 35 35 33 33 31 29 28 26 25 24 23 23 22 20 19 17 17 17 17 21 22
11 11 12 13 13 12 14 21 19 16 24 29 27 25 24 35 12 15 22 28 29 32 28 35 40 39 38 35 32 32 31 28 27 30 31 28 25 23 25 27 27 25 25 24 23 23 22 19 15 15 16 17 16 16
15 13 13 15 15 19 22 20 19 22 22 25 30 28 23 24 19 21 24 27 30 33 35 34 37 35 32 32 33 35 36 36 35 33 31 30 28 25 22 23 24 23 24 23 24 23 22 20 17 15 14 16 16 13
19 18 17 14 14 19 22 23 21 24 27 27 34 28 33 34 19 31 36 39 38 37 33 33 32 33 36 37 38 37 39 39 38 38 37 35 32 31 28 27 26 24 25 23 22 22 21 20 17 15 13 12 13 12
18 16 15 15 15 15 15 19 24 24 29 29 29 32 37 33 35 37 38 41 43 40 34 32 34 37 39 40 38 41 41 40 40 38 37 34 31 31 31 30 29 26 24 24 21 18 18 17 15 13 12 10 9 9
15 15 13 11 16 18 16 17 23 24 28 30 31 33 35 36 37 37 39 42 44 40 36 33 37 39 42 41 42 42 41 38 36 34 33 33 34 35 34 33 31 27 22 19 19 16 14 13 12 11 9 8 7 7
13 15 13 14 18 17 16 17 23 25 26 28 29 31 33 36 37 37 41 44 42 37 31 34 38 39 40 40 39 37 38 36 33 31 31 31 33 36 37 32 26 21 18 15 14 11 8 7 7 7 8 7 6 5
10 10 10 12 13 13 17 23 23 22 23 25 25 27 31 37 38 40 42 43 40 33 28 33 35 36 35 33 31 33 33 33 33 32 32 32 35 38 34 28 23 19 15 11 7 4 1 2 3 3 3 4 4 4
7 7 9 10 9 12 14 16 21 23 26 27 28 29 32 37 38 39 42 43 38 31 31 35 36 37 36 30 31 33 33 33 34 34 33 32 34 38 36 32 29 24 20 17 15 13 12 10 9 8 7 6 5 4

GFSWCAN_500_spd_045.txt.gz
Wind_Speed
35 24 28 28 29 28 29 29 26 27 24 22 21 22 21 18 19 21 24 26 28 34 43 43 35 33 31 29 20 17 9 8 14 9 14 24 20 27 24 39 35 27 43 56 63 62 62 55 60 61 62 61 58 57
22 26 25 29 28 26 27 27 25 25 23 20 23 22 21 20 20 22 27 31 34 37 41 44 42 41 37 31 27 17 14 5 9 8 13 27 29 29 24 21 15 31 49 53 63 64 64 51 59 62 56 61 60 57
20 25 24 28 27 27 28 23 22 23 19 25 22 21 21 20 20 23 26 31 35 38 38 41 43 46 47 40 31 28 17 10 5 7 16 27 33 30 27 21 25 14 28 44 57 63 62 69 59 68 56 63 65 60
21 24 22 25 27 30 30 20 20 19 16 23 21 21 21 19 21 24 28 33 31 33 37 38 44 45 49 47 43 38 34 18 12 12 13 12 15 16 17 15 14 11 29 47 55 63 58 67 64 67 55 56 62 63
19 22 22 22 24 26 29 20 22 22 18 17 17 17 18 17 21 24 25 33 36 32 33 37 37 40 41 41 39 41 38 35 25 18 17 15 18 10 9 7 9 10 35 47 53 63 65 66 61 68 68 46 64 69
19 20 24 21 22 24 27 22 18 21 20 18 16 12 16 18 20 24 22 25 30 33 31 32 34 35 37 39 39 40 38 32 27 25 19 20 10 4 3 4 3 1 3 28 48 48 56 59 68 61 66 72 62 73
18 19 23 21 21 22 24 21 17 16 19 19 18 13 13 16 19 21 22 21 21 24 30 32 31 31 29 31 33 34 36 36 33 32 27 18 11 1 4 5 7 10 4 11 40 52 55 55 58 73 71 63 46 73
15 18 18 24 21 19 19 19 20 20 20 19 18 16 15 17 19 20 21 21 22 22 19 21 24 26 27 25 24 27 28 27 28 27 24 22 11 2 1 2 4 8 17 18 20 32 55 63 61 66 70 70 62 61
12 16 17 19 17 18 18 21 22 21 19 19 19 18 17 17 18 21 21 20 19 19 18 16 17 20 21 24 21 18 19 23 20 20 20 20 16 12 11 12 10 6 10 14 23 28 32 42 60 62 69 70 74 67
11 14 17 16 15 15 18 20 21 20 19 19 18 15 15 14 17 22 23 23 21 18 17 18 17 17 18 19 20 18 18 19 18 14 13 13 14 15 13 10 9 6 2 4 9 16 31 41 46 61 72 72 69 67
10 13 17 17 16 18 19 21 18 17 19 18 17 19 19 19 21 18 20 21 22 21 20 18 16 14 17 18 18 19 19 19 18 16 15 14 10 9 10 11 9 9 9 5 3 11 20 28 36 46 61 75 78 78
10 14 15 16 15 16 17 16 17 19 19 17 18 18 18 16 14 18 20 21 21 22 22 22 21 20 19 19 19 20 20 21 22 21 20 18 14 12 10 9 11 13 11 12 12 8 11 21 25 26 30 39 64 78
11 12 13 14 14 13 12 13 16 18 18 20 20 18 16 15 17 18 19 20 21 21 20 20 20 20 20 20 20 20 19 19 19 20 20 21 21 18 15 14 13 13 15 16 14 16 18 11 7 9 18 19 21 60
7 11 13 11 11 11 10 12 14 17 19 20 21 20 20 19 18 18 19 21 22 21 20 19 18 18 18 18 19 19 18 18 18 18 18 19 20 19 19 17 15 14 16 16 16 18 17 21 20 14 11 12 14 17
8 10 10 10 10 11 11 12 16 19 21 22 24 24 22 21 20 20 20 22 23 23 22 20 18 18 18 20 19 18 18 19 19 19 18 18 19 21 21 18 18 16 15 16 16 18 21 18 17 18 17 13 9 8
7 8 8 10 10 11 12 14 17 20 21 22 22 21 20 19 18 18 18 19 21 24 21 20 21 21 20 20 20 20 19 20 20 21 21 20 21 22 23 22 20 18 16 16 18 17 17 20 18 15 15 18 14 15
6 7 7 9 10 11 13 17 19 21 23 23 23 21 19 17 18 19 19 20 20 19 18 19 20 20 22 22 21 20 20 21 20 21 20 20 21 22 23 24 24 21 19 18 18 19 17 15 17 21 17 11 17 20
6 6 7 9 10 11 13 16 18 19 21 21 22 21 21 21 22 22 22 21 20 20 19 18 20 22 25 27 26 27 28 27 26 28 29 29 27 25 24 23 24 23 22 21 18 17 19 19 16 15 18 21 21 16
6 6 7 9 11 13 15 18 20 20 19 17 18 21 21 20 21 22 21 22 21 21 21 20 21 22 25 25 26 29 32 33 32 32 33 33 35 31 28 27 26 24 24 24 23 20 19 20 20 20 16 16 15 17
5 6 7 10 12 13 16 18 19 20 19 17 16 16 21 22 25 30 19 19 20 21 20 21 19 22 24 24 29 31 33 35 33 31 34 35 34 33 30 29 28 24 23 24 23 23 21 22 21 19 20 17 18 18
5 6 9 11 14 15 16 17 19 20 21 20 20 21 23 23 28 19 20 22 26 26 24 16 19 22 27 33 36 37 35 34 32 31 29 29 28 30 28 24 22 22 22 23 22 22 20 20 23 22 20 21 20 18
8 10 12 13 13 13 15 17 20 20 17 16 20 26 31 27 28 30 27 24 25 26 23 20 28 22 29 40 38 39 34 31 28 26 27 26 24 23 23 24 23 23 21 19 15 13 15 18 21 25 23 20 22 24
9 10 11 11 11 13 16 19 20 16 14 14 22 23 23 22 26 33 30 27 20 15 22 27 28 23 34 43 41 35 30 30 30 30 30 30 29 29 27 26 26 25 24 21 18 15 16 16 14 18 24 25 23 24
8 9 10 10 11 13 15 19 14 19 18 24 26 22 22 26 33 34 20 21 20 27 30 23 26 37 39 39 31 31 32 31 31 31 32 32 32 31 30 29 26 24 23 22 21 20 18 17 16 17 17 20 21 22
8 9 10 12 12 11 12 16 18 19 22 26 29 32 17 31 33 27 28 35 30 28 30 26 29 31 30 29 30 31 32 32 31 31 30 29 27 27 28 29 29 25 22 21 21 21 19 17 17 17 16 17 18 18
12 13 12 12 10 11 14 16 14 18 23 25 24 29 34 29 30 28 30 32 34 34 34 29 27 26 28 30 33 33 35 34 32 31 29 25 23 21 22 24 25 24 24 24 22 20 19 18 18 18 17 16 16 16
14 16 14 13 13 14 13 15 20 21 24 27 31 31 31 34 36 36 35 35 38 36 33 27 25 29 30 34 34 35 35 36 35 32 29 28 27 26 24 23 23 23 22 22 22 20 18 16 17 17 16 15 14 14
15 16 15 12 13 16 18 17 20 24 27 29 32 34 37 38 38 38 37 38 38 35 30 26 32 33 36 37 37 35 37 36 35 33 32 31 31 31 31 30 29 27 25 24 22 19 17 14 13 13 13 12 11 11
17 15 13 9 10 16 15 15 17 22 26 28 30 35 37 37 38 39 37 38 36 32 28 32 35 37 40 38 34 36 36 34 35 35 33 34 34 34 32 29 24 21 21 20 18 15 12 11 9 8 8 9 9 8
15 14 14 13 14 13 11 13 19 21 25 29 31 33 36 37 38 38 38 38 35 31 31 37 37 40 41 37 35 37 36 35 36 35 35 36 37 33 29 25 20 17 14 13 11 7 5 4 4 5 5 6 5 5
11 12 11 12 12 12 13 14 17 20 21 25 28 31 34 36 38 38 38 38 34 31 35 37 38 39 38 33 33 33 32 32 33 33 34 38 37 35 34 30 24 18 12 9 7 4 3 3 4 4 4 4 3 2
8 7 8 10 10 12 13 15 17 20 21 24 27 30 32 36 39 40 39 37 33 31 34 35 37 37 33 27 30 29 28 29 32 35 36 38 40 38 35 34 32 29 25 20 16 14 13 12 10 8 6 5 3 1
6 5 7 10 12 14 16 16 18 21 23 25 27 29 31 35 38 39 39 36 32 31 35 36 38 36 30 28 28 27 27 29 30 32 34 36 38 40 40 38 35 33 31 28 26 24 22 21 19 17 15 13 11 10

GFSWCAN_500_spd_048.txt.gz
Wind_Speed
31 26 24 27 30 31 36 29 25 22 26 24 21 21 19 20 23 23 26 29 32 35 41 47 52 53 39 34 14 21 19 19 25 18 15 13 13 7 8 25 33 33 32 37 38 48 47 46 65 61 60 57 53 54
26 24 23 24 27 31 34 27 23 20 25 22 23 20 19 19 18 24 25 25 31 36 40 44 48 51 50 48 27 18 15 21 25 32 29 26 26 24 29 31 27 20 27 40 45 48 52 51 56 65 55 54 50 54
23 22 25 22 24 27 29 27 25 23 19 21 20 21 20 21 22 22 27 30 34 34 38 41 44 50 50 50 41 22 20 22 25 28 27 24 27 29 31 19 15 10 24 41 46 50 50 49 50 58 55 48 50 48
20 20 23 26 23 23 27 30 20 23 21 21 18 19 17 21 24 26 27 30 32 33 34 37 41 42 46 48 45 24 20 17 20 21 21 21 28 31 19 14 10 10 30 34 28 51 56 50 46 50 50 50 54 52
21 18 21 24 27 26 22 25 21 19 20 21 21 17 18 21 23 26 28 28 28 29 29 32 36 37 39 41 40 36 20 13 13 12 11 13 16 19 22 20 14 14 27 22 34 40 51 49 44 48 44 42 50 52
20 17 20 23 28 20 20 20 20 20 19 19 20 21 21 22 23 23 24 25 24 21 23 30 33 33 36 34 35 35 33 27 24 24 18 15 14 8 14 16 17 6 25 31 29 42 49 49 47 39 60 53 50 50
18 14 17 20 21 20 20 19 20 20 21 20 20 20 20 21 22 24 24 23 23 20 20 24 29 29 32 31 29 31 33 30 29 24 22 15 8 6 6 9 11 12 16 30 21 58 48 47 48 45 44 46 59 49
17 12 14 17 19 19 21 22 22 23 21 20 22 22 22 21 22 23 23 24 25 24 22 20 18 19 25 26 25 26 27 29 26 24 24 24 18 10 10 9 7 14 22 10 17 37 45 48 47 50 50 52 56 56
16 12 14 17 18 19 22 22 21 21 21 21 20 18 18 17 18 21 23 25 27 27 26 23 21 18 21 22 23 24 22 24 24 22 20 21 21 19 18 14 9 6 2 10 16 17 20 48 53 53 52 52 56 60
13 12 14 17 19 19 19 18 20 20 20 18 19 17 18 18 20 22 22 21 22 23 24 25 23 18 20 20 21 21 20 21 21 22 21 19 20 19 15 13 10 7 2 4 11 19 25 26 28 34 47 53 50 53
11 11 15 16 16 17 16 15 18 21 20 21 20 20 20 20 20 20 20 20 21 20 20 22 22 23 23 23 23 22 21 20 19 19 19 20 20 18 18 17 15 11 8 7 3 11 16 27 36 36 36 52 54 59
9 11 11 13 14 14 14 14 16 18 21 23 23 22 21 21 19 19 20 21 22 22 21 20 20 21 22 22 23 22 21 21 21 22 21 21 21 19 20 20 20 20 19 16 13 9 7 14 22 33 41 46 51 52
7 8 10 11 11 12 12 14 16 19 22 24 25 24 22 19 19 18 17 19 21 23 23 20 20 20 20 22 22 20 20 20 20 20 20 20 21 20 18 18 19 20 22 24 24 21 17 17 11 11 20 30 38 45
6 7 9 9 10 11 12 14 16 20 23 25 26 25 25 24 21 19 19 19 21 21 21 20 20 20 20 22 23 23 21 20 20 21 21 21 21 21 20 19 17 19 18 18 21 22 22 20 23 21 17 23 30 34
7 7 8 10 10 10 12 14 17 19 22 24 25 25 26 25 22 21 21 21 21 20 21 21 21 19 18 19 20 21 23 23 25 26 24 25 25 24 24 22 21 21 20 19 19 19 20 19 19 19 21 20 21 22
8 8 7 10 10 11 13 15 18 21 22 23 22 22 23 24 23 22 22 21 22 21 21 20 18 18 17 19 20 21 22 23 23 25 27 28 28 28 29 28 26 25 23 22 21 21 21 22 22 19 17 18 21 18
9 10 8 9 10 11 13 17 19 21 23 22 22 20 20 23 23 23 24 24 23 20 21 22 20 18 17 17 18 19 22 27 30 29 27 26 27 28 28 31 30 27 26 24 23 23 22 22 23 21 20 19 17 19
10 11 10 9 10 11 14 18 20 22 23 24 23 22 22 21 26 29 33 27 21 23 24 25 25 27 25 22 23 23 27 32 31 30 30 30 29 28 29 27 26 26 26 26 26 25 24 24 24 25 22 19 19 20
9 9 9 10 11 13 16 19 21 22 24 24 22 21 23 24 26 25 30 28 28 30 33 38 34 30 30 28 28 23 27 29 31 32 30 29 29 25 23 23 24 23 23 23 25 26 25 25 25 26 25 23 19 19
7 6 9 10 12 15 18 20 20 21 23 25 22 21 25 29 28 30 28 29 31 27 26 28 28 36 32 29 23 37 40 35 28 28 29 28 29 30 27 23 22 23 23 22 24 25 25 25 25 26 26 26 23 21
6 8 10 12 15 16 16 18 20 23 24 24 19 24 32 32 33 32 31 39 40 32 29 27 30 40 35 36 34 44 40 33 31 33 32 29 28 28 27 26 24 24 24 22 22 22 21 21 23 25 26 25 24 21
8 10 12 12 13 13 15 18 21 18 17 21 24 29 31 26 29 30 33 24 28 28 24 27 23 33 40 36 39 46 42 39 35 34 34 32 30 29 29 28 26 24 23 22 20 19 20 22 20 20 21 23 24 23
6 8 9 9 11 12 14 15 17 18 21 21 25 30 25 18 32 29 30 28 33 32 27 25 23 26 31 35 36 35 35 34 32 32 33 33 32 30 28 26 24 23 21 20 19 18 19 21 20 21 22 20 18 19
6 8 8 9 10 11 13 18 19 16 19 25 26 24 28 27 30 29 29 29 28 30 29 27 27 28 29 30 33 33 33 30 29 28 31 31 32 31 30 28 26 24 22 21 20 19 17 19 20 21 22 22 20 18
7 8 9 10 11 9 12 16 15 20 23 23 22 28 32 34 33 33 33 33 34 34 31 27 24 24 29 30 32 31 29 29 29 28 28 28 28 28 27 27 26 25 24 23 21 18 18 18 19 19 20 21 21 19
10 12 11 10 8 11 13 12 16 21 24 27 28 33 35 34 36 38 40 37 36 33 27 23 26 30 30 31 30 28 28 30 29 28 28 26 27 26 25 25 26 25 25 24 23 21 19 18 18 18 17 18 18 18
12 14 13 11 9 11 12 13 18 23 24 26 31 32 34 37 39 40 40 38 36 29 25 28 32 31 32 29 24 29 31 31 30 31 31 30 30 29 28 21 22 27 24 22 21 19 17 15 16 16 15 14 14 15
13 16 15 13 8 11 14 14 16 22 25 27 30 33 33 36 38 40 39 39 35 28 29 33 33 34 30 25 28 29 29 31 31 31 34 35 33 31 30 28 24 20 18 20 18 15 12 11 11 11 10 9 10 11
14 14 13 12 10 11 11 12 17 21 23 27 30 32 34 36 37 39 39 38 33 31 35 38 38 34 26 24 27 27 29 31 33 35 38 37 34 32 30 25 18 9 16 13 8 5 4 4 5 5 6 5 5 5
11 11 11 10 11 11 12 13 16 20 22 27 30 32 33 34 35 38 38 37 33 33 38 39 37 31 28 28 28 28 29 31 34 35 38 39 35 34 34 30 24 17 13 11 8 6 7 7 6 5 3 3 2 2
10 9 10 9 10 9 10 13 16 18 22 26 29 31 32 34 34 37 37 35 32 34 38 40 35 27 25 25 26 27 30 31 32 32 33 36 40 37 35 35 33 29 25 21 19 18 17 14 10 8 7 6 5 4
8 8 6 7 8 9 10 11 13 17 21 25 29 32 33 34 34 36 37 35 32 35 39 38 32 25 24 23 26 29 31 31 31 32 32 33 35 37 39 38 37 35 32 30 27 25 23 20 19 17 15 12 9 6
8 7 6 8 8 9 10 11 13 16 19 25 29 32 33 35 35 37 37 34 32 35 39 38 29 23 22 25 28 31 31 31 30 31 33 34 34 34 34 35 35 35 35 34 33 31 30 28 26 24 21 19 17 15

GFSWCAN_500_spd_051.txt.gz
Wind_Speed
37 26 25 28 27 25 27 28 25 27 22 23 24 20 21 24 25 27 28 30 31 32 39 44 48 42 31 27 25 23 27 20 20 20 19 13 9 9 11 1 16 23 34 33 32 41 36 40 56 59 56 59 57 57
33 23 23 27 28 27 24 28 21 23 23 21 20 20 20 24 26 28 30 32 32 31 37 41 43 37 26 28 19 22 26 27 25 23 17 16 15 19 25 22 21 21 25 29 23 33 38 32 54 59 57 56 52 53
28 22 21 23 29 30 22 21 25 21 23 21 19 20 23 25 27 28 31 31 30 26 32 36 36 38 30 29 16 19 25 34 35 29 23 14 15 17 21 23 21 19 22 23 20 34 30 22 41 57 54 52 50 49
25 20 18 21 27 26 21 21 22 23 23 21 20 21 23 25 28 30 30 30 27 24 22 32 30 36 35 35 32 23 29 32 32 28 24 19 12 13 17 18 17 11 14 19 20 29 30 22 50 45 54 52 43 46
22 18 15 17 22 23 22 21 20 21 22 22 21 21 22 24 25 28 28 29 26 23 23 21 24 32 32 32 32 30 31 32 30 30 28 21 18 9 12 13 16 11 9 20 28 27 33 28 39 28 41 53 49 46
21 17 13 16 20 21 22 23 23 23 24 23 23 23 23 22 23 25 28 29 29 27 23 22 26 22 24 31 26 28 31 26 28 29 24 22 16 12 11 17 15 14 16 16 22 31 27 36 31 32 32 44 50 46
21 17 12 15 19 21 22 23 22 22 23 22 20 20 20 20 22 24 26 27 28 28 24 21 22 20 18 27 26 22 25 26 27 24 28 24 19 11 13 15 14 13 8 12 21 29 40 43 37 35 34 34 46 51
20 16 12 14 18 20 21 20 19 22 22 20 22 21 19 19 22 24 25 26 26 26 28 28 26 26 23 23 25 24 24 25 24 25 25 23 23 20 15 13 18 15 13 9 5 10 41 45 44 36 35 33 41 41
19 15 11 14 16 18 16 15 18 21 21 22 23 23 20 21 21 22 23 25 26 25 23 23 23 23 23 25 25 24 24 24 25 25 23 22 20 18 21 18 13 15 16 10 2 6 10 35 39 42 45 40 51 47
16 13 11 13 13 14 13 13 16 18 21 22 23 23 22 21 20 19 19 19 21 22 21 21 22 22 21 22 23 25 25 25 25 24 24 24 24 24 20 16 13 12 9 10 11 9 7 10 38 39 43 47 43 36
13 11 10 11 12 12 11 12 15 18 21 22 23 23 22 20 20 19 18 20 21 22 20 20 21 20 19 20 21 21 21 23 24 25 25 24 23 24 23 21 19 15 9 5 4 3 5 13 24 22 31 38 39 44
10 9 9 10 10 10 11 12 14 17 20 22 23 23 22 20 19 19 20 20 21 22 21 19 19 20 19 18 18 17 17 19 21 23 23 24 23 21 21 22 23 21 17 15 9 6 4 7 11 18 29 29 32 33
8 7 8 9 9 11 11 13 16 19 21 23 23 23 23 21 20 18 18 18 18 19 19 19 19 19 18 18 19 20 19 17 19 22 23 23 24 25 24 22 21 22 22 20 18 14 9 10 12 12 15 25 32 38
8 8 8 8 10 11 11 13 16 19 21 22 22 22 21 23 23 22 20 20 21 20 19 18 18 18 18 18 18 17 20 20 22 23 26 26 26 26 26 27 26 24 23 22 23 21 19 14 12 16 17 17 16 21
8 9 9 10 10 11 12 14 16 19 22 24 24 22 21 22 22 24 26 25 20 20 18 17 19 21 22 21 21 21 20 21 24 25 28 30 29 27 28 29 29 29 28 28 27 26 24 21 18 14 13 17 19 18
9 9 9 10 12 12 13 15 18 20 23 24 24 23 22 22 24 26 27 28 25 21 23 26 25 24 25 25 25 24 22 23 25 28 30 31 33 33 29 28 30 29 30 30 28 26 27 27 25 23 20 15 14 19
9 10 9 9 11 12 14 16 19 22 22 24 26 26 24 24 26 27 26 26 26 27 29 32 34 33 34 30 24 25 24 26 24 25 25 29 32 32 28 25 28 28 27 28 27 26 26 27 26 26 24 23 20 16
8 9 9 7 9 11 13 16 19 22 23 26 28 25 22 25 30 30 27 28 33 35 36 45 42 36 37 37 28 26 29 28 22 21 23 25 25 26 25 22 22 23 22 23 26 26 24 26 27 27 26 25 23 22
7 8 7 8 10 12 14 18 20 23 24 24 22 21 24 27 26 27 27 28 30 32 28 33 45 29 34 40 33 26 20 34 23 18 18 21 25 28 29 25 22 23 23 21 22 22 21 20 20 22 26 27 25 23
6 6 7 9 12 14 16 17 18 22 18 17 23 25 29 28 24 32 29 30 29 25 32 27 24 24 30 33 25 37 41 30 24 26 28 30 30 30 30 30 28 25 25 25 24 24 23 23 22 21 20 22 25 23
5 6 8 11 13 13 13 15 17 17 17 20 23 23 29 21 24 29 31 29 30 30 31 29 28 26 26 28 38 38 35 34 30 37 36 34 33 32 31 30 29 27 25 24 24 24 25 26 25 24 21 17 18 21
6 8 9 10 12 12 14 15 16 19 19 21 21 22 23 26 26 29 30 29 29 30 31 29 27 27 27 27 28 31 31 33 35 34 33 33 33 34 33 30 28 26 24 23 22 22 23 24 25 24 22 21 17 15
5 6 8 9 11 12 12 13 15 16 18 21 20 22 27 31 32 36 35 34 32 32 30 27 27 25 27 30 30 31 31 31 31 31 33 33 32 33 33 31 27 23 21 20 20 21 21 22 23 23 22 20 19 17
3 6 8 9 11 10 10 12 12 15 19 21 23 29 31 32 35 34 36 36 36 33 28 27 27 29 30 30 31 30 29 28 29 30 32 34 34 33 33 32 29 27 25 22 19 18 19 19 20 21 21 19 18 17
7 9 10 11 10 9 11 10 11 16 21 25 29 31 32 34 34 37 39 38 37 31 27 29 30 30 30 31 29 26 28 27 27 28 29 31 32 32 32 30 29 28 27 25 22 19 17 17 19 20 20 18 16 16
9 13 13 12 10 9 12 12 14 18 25 28 30 32 34 35 37 39 40 39 36 29 29 31 30 31 29 28 26 27 24 26 29 31 33 35 35 33 30 28 26 21 21 24 23 24 20 17 15 15 16 16 15 15
10 13 15 12 9 11 14 15 17 19 23 26 29 31 33 35 37 40 41 40 35 31 33 32 30 28 25 24 25 25 27 29 30 32 36 36 32 32 29 25 22 19 21 23 24 17 14 13 13 12 12 12 11 11
11 14 14 12 8 10 13 13 14 18 21 26 28 31 33 35 36 39 40 40 35 34 35 33 29 25 25 24 25 27 29 30 30 32 36 37 33 34 30 25 19 15 11 9 8 7 5 6 7 7 7 6 6 7
12 12 13 11 9 9 10 13 16 19 22 26 28 31 33 34 36 39 40 39 35 36 36 32 27 24 24 28 30 31 30 31 32 33 34 37 36 35 34 29 24 19 14 11 9 7 6 6 6 5 4 2 1 1
9 9 10 9 9 10 11 13 15 18 20 24 26 28 32 35 36 38 40 38 35 36 35 27 24 24 28 30 31 30 30 31 33 33 34 34 37 38 36 34 32 28 24 21 19 17 16 15 13 10 7 6 6 6
9 8 7 7 7 8 10 13 15 16 19 22 24 27 31 34 36 36 39 37 35 36 32 24 22 24 29 30 29 30 30 31 32 33 34 35 35 35 36 38 37 35 32 29 27 24 22 20 18 15 14 12 10 8
7 7 6 6 5 6 8 11 13 15 16 20 24 27 30 33 35 33 36 35 33 34 31 23 21 23 28 28 28 28 30 30 31 31 32 33 35 35 36 36 36 35 35 34 33 31 30 27 25 22 20 17 15 13
7 6 7 7 7 9 10 11 12 14 16 19 23 27 29 31 34 33 32 33 32 32 31 24 20 21 24 27 26 29 29 28 28 28 29 30 31 32 33 34 34 34 34 33 33 32 30 29 27 25 23 21 19 18

GFSWCAN_500_spd_054.txt.gz
Wind_Speed
37 34 26 23 25 29 23 20 24 19 22 23 19 19 21 24 25 27 28 26 23 21 23 25 14 21 28 22 23 27 28 27 26 25 23 18 16 13 8 5 8 19 20 22 27 36 40 35 32 52 50 54 52 55
35 32 24 20 23 25 21 23 21 23 22 22 22 21 21 23 25 27 26 23 22 16 23 20 26 23 28 24 24 27 28 32 30 25 21 17 12 9 10 9 7 11 15 22 29 33 27 24 29 40 46 42 44 50
33 29 23 16 20 23 23 22 23 23 23 23 22 22 23 23 23 24 25 27 24 21 19 15 23 26 25 28 28 29 30 31 27 25 23 16 14 10 10 14 12 13 18 10 8 13 15 6 9 41 47 43 40 41
31 27 23 15 18 22 22 23 24 23 23 22 23 24 21 21 24 25 27 28 26 23 22 20 20 19 29 27 26 27 27 30 29 19 17 13 6 6 6 8 12 10 10 12 9 9 18 15 14 43 49 45 45 40
30 25 22 16 17 21 21 24 23 21 23 22 21 20 20 20 23 24 25 25 27 28 24 21 18 27 18 29 26 26 27 27 31 30 21 12 7 2 2 2 5 5 7 8 10 11 8 17 7 51 52 46 42 45
28 23 21 17 17 20 21 21 19 20 22 20 21 20 18 19 21 22 23 23 23 25 27 26 19 23 19 23 25 25 25 26 27 27 28 21 15 12 10 6 5 2 4 3 7 10 12 13 20 48 58 38 47 44
26 21 18 16 15 17 18 17 17 20 19 21 20 20 20 20 19 20 21 22 23 22 23 23 22 24 25 24 24 24 25 26 26 25 26 27 27 21 15 18 15 8 2 6 6 8 14 14 19 32 46 48 44 45
25 20 16 13 13 13 15 14 16 18 19 20 21 21 21 21 20 19 19 21 23 23 20 19 21 20 22 21 22 23 24 25 25 27 27 26 24 22 25 26 22 21 18 12 5 6 10 18 17 27 42 40 48 47
23 17 13 11 11 10 11 12 13 16 18 20 22 22 22 20 19 19 19 20 21 23 21 18 18 18 18 18 19 20 20 21 22 25 25 26 26 27 26 24 22 21 19 19 17 10 3 10 24 32 29 39 38 44
19 14 11 10 9 9 9 10 13 15 18 21 22 22 21 21 19 17 17 18 19 20 20 18 17 17 17 16 16 18 18 18 18 18 21 21 23 24 26 26 24 22 20 19 18 16 16 3 12 32 38 37 43 40
16 12 10 8 8 9 9 10 13 15 17 19 21 21 21 21 19 18 17 17 18 18 17 18 17 17 16 16 17 17 18 17 18 17 18 18 21 22 22 23 23 22 21 18 13 9 9 10 11 5 15 40 39 41
14 10 8 8 8 9 10 10 13 15 18 20 20 19 20 20 21 22 22 21 20 19 19 17 15 15 15 15 14 14 15 18 19 20 18 19 20 21 23 24 23 23 21 18 18 15 10 9 10 13 13 17 27 34
11 8 7 7 8 9 10 11 13 16 19 21 21 20 18 18 19 22 21 22 23 21 19 18 17 18 18 18 17 17 16 17 19 20 20 22 23 24 23 22 23 23 23 21 19 17 15 11 9 10 12 14 17 19
9 7 7 7 9 10 10 12 14 17 20 21 23 23 22 19 19 21 23 24 24 19 18 19 21 23 24 23 23 23 24 23 21 19 21 23 23 22 24 25 26 26 26 25 20 19 17 13 11 12 12 15 18 16
7 6 7 8 10 10 11 12 14 17 20 21 23 25 24 21 18 21 23 22 20 21 25 26 26 27 33 31 28 28 26 25 25 22 22 24 22 19 23 24 26 26 26 25 26 22 20 18 16 14 14 15 17 22
7 7 6 8 10 10 11 12 14 18 20 21 22 24 21 19 24 25 20 22 23 27 35 35 36 42 39 36 43 35 31 30 27 25 27 27 13 17 20 22 23 21 18 22 24 23 20 19 20 19 17 16 17 17
6 5 5 8 9 10 10 12 15 18 19 21 22 21 21 23 23 20 25 28 28 27 28 29 28 40 45 38 37 38 34 31 31 29 29 21 18 14 20 22 23 24 20 22 25 24 21 19 17 18 21 21 19 19
6 4 5 6 7 8 10 13 15 16 20 17 19 22 25 24 20 20 28 26 29 29 30 27 27 34 33 29 26 22 16 33 32 16 15 15 17 19 20 22 22 23 21 21 23 24 22 20 18 15 16 19 22 23
5 5 5 5 6 8 12 13 14 16 16 17 20 22 21 22 23 25 29 31 32 33 33 33 32 31 29 27 27 26 28 26 23 20 22 23 21 21 21 21 21 21 21 21 22 23 23 21 19 18 17 17 17 20
4 3 4 6 8 9 10 10 13 14 15 17 21 21 20 25 28 27 29 30 31 31 33 33 32 29 27 25 22 23 27 27 27 22 30 30 28 27 27 26 25 25 23 22 22 22 24 24 22 21 19 18 18 17
3 4 5 6 8 8 8 10 12 14 14 18 21 22 25 28 29 29 30 32 32 32 32 29 25 24 22 25 27 27 28 30 29 23 22 29 32 32 30 29 29 26 24 23 23 23 22 23 24 23 22 20 18 17
3 3 4 6 7 7 8 8 10 12 16 19 20 23 27 28 29 31 33 32 30 32 28 25 25 25 24 25 26 29 29 27 28 26 31 32 34 37 38 35 31 27 23 21 20 22 23 22 22 22 20 19 18 18
1 3 5 6 6 7 5 8 9 12 16 19 23 26 29 29 31 33 33 29 34 30 29 30 30 27 28 29 28 25 25 27 24 27 31 31 32 33 36 35 32 31 27 23 19 19 20 20 20 19 18 16 16 16
2 3 5 5 6 5 7 7 8 12 17 21 23 28 30 30 32 33 29 33 34 31 32 34 31 29 27 24 24 25 23 26 27 29 30 33 35 33 31 31 29 27 24 28 23 18 16 15 16 16 14 12 13 14
5 6 6 6 6 6 8 9 10 13 17 21 26 28 30 31 31 32 31 31 32 32 35 33 27 24 25 26 26 26 28 29 30 30 32 35 34 30 30 28 28 29 28 16 14 13 12 12 13 14 12 10 10 10
5 8 9 9 8 7 9 12 13 15 17 22 25 28 29 30 31 33 35 34 32 35 34 27 24 24 25 26 28 29 29 28 27 29 31 34 32 31 27 24 19 18 15 13 16 18 18 16 12 11 11 9 7 8
6 10 11 11 10 9 10 12 12 14 16 20 24 27 30 33 32 33 34 33 34 35 29 24 23 26 28 29 29 29 30 30 30 30 31 34 33 31 27 22 17 12 8 8 6 9 12 9 7 7 7 5 4 5
7 10 10 10 8 8 9 10 10 12 15 19 23 27 30 33 32 32 34 34 35 34 25 23 26 29 29 29 29 30 31 31 31 31 31 34 36 34 31 27 23 17 12 10 7 5 4 3 4 5 4 3 2 1
9 10 9 8 7 8 8 9 10 12 15 19 23 26 29 32 33 31 34 33 34 32 23 23 26 28 28 28 29 30 30 31 33 35 36 35 36 38 38 33 31 28 26 23 21 19 17 14 13 11 10 8 6 5
8 8 8 7 6 8 7 9 12 14 17 20 22 25 28 29 33 31 32 33 33 31 23 22 24 27 27 28 28 28 28 29 31 32 34 36 36 37 37 38 38 36 33 29 26 24 21 20 18 16 14 12 9 7
7 7 6 6 7 9 9 11 14 16 17 20 22 24 26 28 30 31 30 32 31 31 24 20 21 24 26 27 28 27 26 26 27 28 29 31 32 34 35 36 36 36 35 34 32 30 28 25 22 19 16 13 11 9
7 6 5 5 6 8 10 12 14 15 16 18 20 22 25 27 29 30 28 29 29 29 28 21 20 20 23 25 25 26 27 26 26 26 26 27 27 28 30 31 32 32 32 32 31 29 28 26 24 21 20 18 16 15
7 6 6 6 6 7 9 12 13 12 14 17 20 22 23 26 28 29 27 27 28 27 27 25 21 21 20 21 23 24 25 26 25 25 25 25 25 25 26 26 26 26 26 26 26 26 25 25 24 24 23 22 21 20

GFSWCAN_500_spd_057.txt.gz
Wind_Speed
30 31 30 22 17 22 24 22 22 22 22 23 21 21 23 21 19 21 23 23 19 13 13 12 18 21 23 23 21 21 22 20 22 23 22 11 10 9 10 7 9 17 17 17 22 31 38 39 30 40 48 56 56 55
27 28 29 21 17 19 24 24 23 22 23 22 21 22 19 17 18 22 24 26 25 19 14 11 15 20 26 25 24 24 26 27 25 21 23 16 8 11 11 6 4 4 13 20 21 24 29 32 33 24 38 35 55 50
26 26 27 20 16 17 22 23 22 20 22 20 19 18 17 17 19 21 22 23 26 21 14 8 20 21 18 27 24 22 24 27 27 23 20 19 13 10 9 7 5 1 5 12 9 9 10 19 27 19 36 48 37 46
25 25 26 19 15 16 19 20 19 20 21 19 19 18 17 18 20 21 22 23 22 24 22 16 23 21 17 23 23 20 22 21 27 29 19 20 16 12 10 6 7 8 6 6 7 5 6 6 10 16 15 43 44 42
23 23 25 18 15 14 17 18 17 19 19 19 19 18 17 19 20 20 21 23 23 22 20 18 19 21 21 21 22 22 24 26 28 27 31 24 17 15 13 10 6 7 10 6 4 5 3 6 11 12 8 36 44 42
21 22 23 16 13 11 14 15 15 16 18 19 20 20 20 20 19 18 19 20 21 21 19 20 18 19 21 21 21 22 22 24 27 28 27 25 30 25 17 13 11 10 8 8 4 4 4 7 9 8 9 39 47 49
19 20 20 15 11 9 11 13 13 14 17 19 20 21 22 21 19 18 18 19 20 21 21 20 17 18 19 19 20 21 20 22 24 25 27 28 30 27 29 29 22 14 8 6 6 6 4 9 11 11 13 18 40 38
18 18 16 13 10 8 9 11 12 14 17 19 20 21 22 22 20 18 17 18 20 20 20 19 17 15 18 18 17 19 20 21 21 22 23 24 25 26 27 28 27 27 28 24 10 5 8 3 8 11 10 15 36 33
16 17 13 10 8 7 8 10 10 12 15 18 19 21 22 23 22 19 18 17 18 19 19 17 15 14 15 15 16 15 16 18 20 20 20 20 20 20 21 23 26 26 25 24 24 24 17 11 5 10 10 17 31 42
14 14 11 8 7 7 9 9 10 11 14 18 20 20 19 19 21 21 19 18 18 18 18 17 14 14 14 14 13 16 15 14 15 14 15 17 19 20 21 22 22 23 25 26 26 25 23 23 13 8 3 12 39 37
13 12 8 6 5 6 9 9 10 12 15 17 19 22 21 18 17 19 21 20 19 18 17 17 15 16 17 18 18 17 17 14 14 15 16 15 15 17 16 17 19 20 20 17 18 18 21 20 19 16 1 12 19 42
11 9 6 5 4 6 9 10 10 12 14 17 20 21 22 20 18 19 22 20 19 21 18 18 17 17 19 20 22 22 21 20 19 21 19 18 19 18 16 17 17 19 21 23 16 11 11 15 15 16 16 7 9 20
10 7 5 5 4 6 9 10 11 12 15 18 19 20 21 20 17 17 21 21 22 23 23 24 22 19 23 26 26 22 23 22 26 24 23 22 22 22 23 21 21 22 21 20 21 20 13 9 12 11 12 16 9 9
8 6 6 4 5 7 9 10 11 13 16 18 19 20 23 21 18 22 23 21 20 21 25 31 44 35 35 32 36 19 18 26 26 20 24 22 21 23 28 27 25 23 23 20 18 16 18 15 12 14 12 11 14 11
6 6 5 5 5 7 8 9 11 13 16 19 21 22 21 20 22 22 20 20 24 27 24 28 29 32 33 30 23 23 28 29 22 19 23 30 29 27 32 28 26 25 22 21 19 16 16 17 15 15 16 14 14 16
5 5 5 5 6 7 8 9 11 14 17 19 16 18 21 23 22 21 21 25 30 31 34 32 31 33 25 30 26 31 28 23 20 20 27 28 29 28 25 22 22 24 26 27 24 21 20 17 15 14 18 19 18 19
5 5 5 5 6 5 7 8 11 14 16 17 15 21 22 23 23 24 28 29 32 34 36 36 35 32 31 28 27 25 18 20 24 18 10 11 17 17 21 23 23 24 24 24 25 21 21 19 17 17 15 17 23 23
5 4 4 5 4 6 7 9 11 12 14 15 17 21 22 22 26 29 31 31 33 35 36 34 31 29 26 23 21 19 18 19 20 19 19 16 17 19 20 20 21 21 22 22 23 24 25 20 19 17 16 16 15 19
4 4 4 4 4 6 8 9 9 11 14 14 18 21 21 25 28 29 31 32 33 32 30 31 28 26 25 23 22 22 21 20 21 23 19 15 19 24 22 21 21 21 21 20 21 23 24 21 21 18 18 18 18 18
4 3 2 3 4 6 7 7 9 11 11 15 18 20 24 27 29 31 33 33 32 33 29 28 28 28 25 24 24 22 22 21 21 22 19 16 23 27 25 25 24 26 25 22 21 20 22 23 21 19 20 19 19 18
3 2 2 3 3 5 5 6 7 9 12 16 19 22 27 28 30 32 33 33 34 33 30 32 30 26 23 22 23 23 24 23 22 19 19 24 30 29 29 31 31 29 26 24 23 21 21 20 21 20 16 18 19 19
3 2 2 2 3 5 5 5 7 8 12 17 20 24 26 28 29 32 31 31 34 34 34 32 27 25 25 26 24 25 25 24 25 26 26 30 30 31 30 30 30 25 23 23 21 21 20 18 18 19 19 18 17 16
4 2 1 2 4 4 3 6 6 9 13 17 21 25 28 30 31 31 27 32 33 33 31 25 24 25 23 23 24 25 26 26 26 26 28 29 31 33 31 29 27 24 22 23 21 20 16 16 17 18 16 17 16 16
5 3 1 3 3 2 4 6 7 10 12 17 21 24 28 30 31 30 28 33 34 33 26 23 23 25 27 28 28 28 29 28 26 27 29 32 35 33 31 30 24 24 15 20 19 9 17 18 14 14 14 14 14 15
6 4 2 2 3 1 3 6 7 9 12 15 20 24 28 31 29 29 32 34 35 29 23 24 26 26 27 27 28 30 30 30 31 28 29 33 32 29 28 26 20 18 20 16 6 17 18 11 9 11 11 11 12 12
6 5 4 4 3 2 3 5 7 9 11 15 18 21 26 30 32 32 34 34 33 25 21 23 26 26 26 26 26 27 29 30 32 30 30 34 32 27 27 17 16 18 15 7 12 10 4 14 16 14 9 9 9 9
3 5 6 5 3 3 5 5 7 9 12 16 19 23 28 32 34 32 32 32 32 24 19 21 25 25 25 25 25 26 28 29 31 32 32 34 37 33 29 27 25 21 17 13 8 3 9 9 7 6 6 6 6 6
3 7 8 6 6 6 6 6 8 10 12 15 20 24 27 29 30 32 30 31 30 26 18 20 23 24 26 25 25 25 25 25 27 31 34 35 36 38 39 35 30 28 25 22 19 16 14 9 9 8 6 5 4 2
7 9 9 8 6 6 7 7 8 10 12 16 19 21 24 27 28 29 28 30 29 30 21 19 20 23 24 25 26 26 26 27 29 29 29 31 33 35 36 37 37 36 32 28 25 23 20 18 16 14 11 10 8 6
9 9 8 7 6 8 13 8 9 11 13 16 18 19 22 25 28 28 27 27 28 29 29 22 21 21 23 24 25 26 25 25 25 26 28 29 29 30 31 32 33 33 33 32 30 27 24 22 19 16 14 12 10 8
9 9 8 7 5 8 8 10 12 13 15 17 19 20 22 23 26 28 27 26 27 27 27 26 23 22 20 22 23 24 24 24 23 24 24 25 25 26 28 28 28 28 29 29 29 27 26 24 21 19 16 14 12 10
9 9 8 6 7 14 10 11 13 14 15 16 18 21 21 21 23 24 25 25 26 26 26 26 26 25 22 21 22 22 22 23 22 22 22 23 24 24 24 25 26 25 25 25 26 27 27 26 24 23 21 19 17 15
9 9 8 7 9 9 10 12 13 14 15 17 20 22 22 23 20 20 24 25 24 25 25 25 24 24 23 23 24 23 22 21 22 21 22 22 22 22 22 22 24 24 23 22 22 24 25 26 27 26 25 24 23 21

GFSWCAN_500_spd_060.txt.gz
Wind_Speed
13 16 23 23 18 15 17 21 20 19 20 20 19 18 17 18 20 21 23 23 22 17 14 11 14 20 19 20 20 18 20 20 21 15 13 14 10 9 10 7 7 9 14 19 18 30 37 42 41 39 46 54 60 62
14 12 21 21 17 13 15 18 17 17 18 18 18 18 17 17 19 19 21 23 21 23 17 12 18 21 18 20 20 19 20 21 22 20 15 17 17 14 10 5 8 8 13 19 22 17 24 28 36 49 42 53 47 56
18 10 18 19 15 12 12 15 15 16 17 18 19 19 18 18 19 20 20 22 22 19 15 11 16 16 17 19 20 21 22 21 24 27 23 22 22 21 17 11 7 7 10 17 19 25 27 25 28 36 47 53 47 53
19 9 17 17 14 10 10 12 13 14 16 17 19 20 20 20 19 18 18 20 22 20 18 17 17 19 19 19 20 19 21 22 21 23 28 28 21 16 16 13 12 13 13 13 13 13 14 12 16 30 38 42 42 44
18 9 16 16 12 9 8 10 12 13 14 16 18 20 21 21 20 18 17 18 20 20 18 17 16 19 17 18 19 20 20 21 23 24 26 23 26 31 20 14 12 12 13 12 11 13 13 11 10 14 24 27 26 40
16 8 16 15 11 8 7 9 10 12 13 15 18 20 22 22 20 18 18 17 18 18 17 15 14 17 16 15 17 18 19 20 21 21 24 23 23 21 20 33 21 13 13 13 12 11 13 11 11 11 8 14 19 37
6 9 15 14 9 7 6 8 8 9 11 14 16 18 20 22 22 18 17 15 16 17 17 13 11 13 14 13 12 14 16 18 20 18 19 19 21 22 23 22 19 20 26 27 17 11 12 13 12 10 9 7 13 20
2 11 14 12 7 5 5 8 8 7 9 12 15 18 20 19 20 20 19 17 17 16 16 16 14 13 15 15 16 17 16 14 17 16 19 19 19 19 19 18 18 19 19 20 20 26 19 12 13 11 11 8 10 8
4 11 13 10 6 4 4 7 8 8 10 13 16 19 21 20 18 18 20 20 20 19 18 17 16 15 14 15 16 18 19 16 16 15 16 18 18 20 20 19 20 19 19 19 20 20 20 25 19 12 12 9 12 9
4 11 11 8 5 3 4 7 7 8 10 13 16 19 22 23 19 18 18 20 19 21 21 18 20 20 18 18 15 21 21 22 18 18 18 19 18 19 18 18 20 22 23 22 23 22 20 18 19 24 14 9 11 18
8 10 10 7 5 3 5 7 7 8 10 14 15 17 20 23 21 18 17 21 18 12 12 16 20 23 23 27 24 24 24 27 22 19 19 22 22 23 24 21 18 18 21 22 20 20 21 19 17 17 22 13 9 5
9 9 8 7 4 3 5 7 8 9 11 14 17 19 21 22 19 19 23 21 20 19 23 22 29 32 39 29 29 31 29 30 22 18 20 24 26 23 22 23 22 23 23 23 26 24 22 21 17 16 15 17 14 4
9 9 8 7 4 4 4 7 8 9 11 16 19 21 20 20 20 20 23 22 23 25 17 29 35 33 34 38 38 39 21 15 14 16 27 19 15 20 23 25 29 32 25 25 25 24 25 25 20 17 14 14 14 17
9 9 9 7 5 5 6 6 8 9 12 16 18 17 18 20 21 20 23 24 26 36 38 38 37 35 34 32 26 33 28 25 22 17 18 16 16 12 26 25 27 28 28 28 23 21 22 24 24 20 17 15 13 14
9 8 9 7 5 6 6 6 8 9 12 15 17 15 20 20 21 22 27 18 23 37 35 36 36 35 31 28 26 28 23 22 21 23 14 12 13 20 27 31 26 29 30 28 28 24 21 21 25 25 19 17 18 15
8 8 9 7 5 6 5 6 7 10 12 15 15 17 20 20 15 22 30 28 36 38 38 38 32 29 27 24 21 18 18 18 19 21 19 15 19 28 28 25 26 27 29 30 30 28 22 20 20 24 25 20 16 21
7 8 8 6 6 4 4 5 8 10 11 14 14 18 19 22 26 30 33 33 34 37 35 32 28 25 26 23 20 17 16 17 19 20 20 18 20 21 22 23 24 25 24 23 24 25 24 21 19 21 23 23 22 16
8 8 7 6 4 4 5 7 8 9 11 12 15 18 21 25 27 30 30 30 30 31 32 27 28 25 24 21 20 21 21 20 20 21 22 19 18 19 19 22 25 24 24 23 21 25 27 27 23 22 22 24 24 20
8 7 6 4 3 4 6 7 7 8 10 10 15 20 25 29 29 30 34 35 34 37 37 33 29 24 23 21 19 21 20 20 18 18 18 15 12 15 20 23 26 24 22 22 24 18 18 25 24 23 22 24 26 22
9 7 6 4 4 4 4 5 6 8 9 13 16 20 27 29 17 37 34 33 36 38 35 31 25 23 22 22 22 22 21 20 20 20 15 20 21 24 28 29 29 29 28 26 22 17 23 26 24 24 20 22 26 24
9 7 5 4 3 4 5 5 5 6 7 13 14 13 25 29 27 33 33 33 37 33 30 27 24 24 25 25 25 27 27 27 26 25 24 24 24 27 28 30 28 28 18 24 22 14 12 10 19 22 23 20 24 24
9 6 5 5 3 4 5 4 5 8 12 19 11 24 19 28 32 30 29 29 32 28 24 23 24 25 25 25 23 27 27 28 28 27 26 26 31 32 33 19 26 25 22 16 10 13 18 25 27 14 15 20 17 17
8 7 5 3 2 2 2 3 3 6 7 9 13 21 26 31 34 30 30 31 32 26 24 24 25 24 22 21 20 24 26 27 28 28 28 32 34 32 21 21 32 36 31 15 15 15 27 23 18 19 21 21 17 17
8 6 4 1 1 1 2 3 5 6 14 5 19 20 23 29 32 28 32 35 35 28 26 24 24 24 23 27 29 28 29 30 30 30 32 35 34 29 27 17 25 32 32 17 13 20 17 11 14 13 18 16 14 13
9 5 3 1 2 2 4 6 5 3 6 12 16 20 25 29 32 34 32 33 33 28 22 23 25 25 24 25 25 27 28 28 30 31 32 34 35 31 27 23 15 21 17 14 10 15 3 3 13 16 19 15 12 10
8 5 2 2 3 2 4 9 10 11 12 14 17 11 23 30 33 34 32 32 32 31 23 22 23 24 24 24 25 26 27 28 28 30 31 33 35 38 35 28 24 18 11 5 8 9 13 10 10 10 13 11 9 7
6 4 2 3 4 3 10 13 3 11 13 15 23 19 18 32 33 34 32 30 31 31 27 21 21 23 24 24 24 25 26 26 26 27 28 30 33 35 37 36 31 26 22 15 6 6 4 8 12 7 0 3 4 4
4 2 4 6 5 3 4 7 8 9 8 8 16 16 20 25 27 30 30 27 27 29 30 26 23 23 23 24 25 26 25 23 25 26 28 29 31 32 33 34 34 33 29 24 19 15 12 11 9 8 6 4 2 2
4 4 6 7 8 6 4 4 7 4 13 16 15 16 19 21 23 26 29 27 27 29 28 28 28 26 21 22 23 24 26 26 25 25 25 27 29 30 29 29 30 30 29 28 26 23 19 17 15 13 11 10 9 8
9 8 8 8 8 5 17 2 7 11 15 17 16 16 19 22 22 24 25 28 26 26 27 27 27 27 24 23 23 23 24 24 24 25 26 26 26 26 26 26 26 29 29 28 26 24 22 20 18 16 14 12 11 9
11 9 9 8 3 14 6 11 15 13 16 18 17 19 21 23 27 24 22 26 25 25 25 25 25 26 26 25 23 22 21 23 23 23 23 23 23 24 26 25 23 24 27 28 27 26 25 24 23 21 20 18 16 15
9 9 8 8 10 10 1 9 13 12 9 14 19 16 18 19 25 27 18 23 24 24 24 24 24 23 24 25 24 22 20 20 21 22 22 21 21 22 23 23 22 21 22 24 26 28 28 28 27 26 25 24 23 21
9 10 7 7 5 10 8 10 13 17 18 18 16 20 22 24 22 24 25 29 25 25 24 22 22 22 22 22 23 22 20 19 19 19 20 19 20 20 20 21 21 21 19 20 22 24 25 26 27 27 27 27 27 26

GFSWCAN_500_spd_063.txt.gz
Wind_Speed
36 32 27 5 14 18 11 12 14 15 16 16 19 20 20 19 21 21 20 22 22 19 17 11 14 16 15 15 16 15 13 14 18 16 12 12 8 6 7 12 14 15 15 16 25 33 23 25 32 38 41 45 54 61
35 39 29 4 13 16 11 11 12 13 14 16 18 20 21 21 20 19 18 19 18 17 15 16 18 16 14 15 16 18 17 16 17 18 13 7 4 4 6 12 9 13 13 13 18 20 23 23 25 30 38 45 48 56
33 32 26 4 11 16 11 10 10 12 12 15 17 20 22 21 20 19 18 18 19 16 15 14 15 15 14 15 17 18 20 20 19 18 22 23 17 10 8 6 10 14 13 17 20 22 26 29 25 27 31 40 49 57
32 28 25 3 11 15 11 10 9 9 10 11 14 17 21 23 21 18 17 16 16 15 12 13 16 15 15 14 17 19 19 19 19 19 20 20 27 26 19 13 11 10 12 11 14 17 17 24 30 33 35 37 41 53
31 27 17 5 13 14 11 9 8 5 8 9 11 15 18 21 23 20 17 16 16 14 9 7 10 10 10 10 14 16 17 18 17 15 15 19 21 19 19 22 19 15 12 11 11 11 10 12 16 20 25 28 28 45
31 27 12 6 13 11 10 10 8 5 5 8 10 16 20 19 19 21 20 15 15 16 11 10 10 10 11 11 11 11 12 14 15 15 16 16 16 18 19 19 19 16 17 21 18 10 10 8 8 14 19 22 25 27
28 27 7 5 12 10 9 9 8 6 7 8 12 17 21 21 18 16 18 18 16 14 14 14 13 13 14 14 17 19 19 16 12 14 16 17 19 19 19 21 22 20 19 21 19 20 20 11 11 12 13 14 12 18
25 22 3 7 11 8 8 9 8 6 8 10 14 17 19 20 21 18 17 18 18 16 16 17 15 15 18 18 18 20 24 22 18 18 18 16 16 17 18 20 21 23 22 19 16 19 22 26 25 18 12 9 10 11
25 12 3 10 9 7 7 8 8 7 8 10 14 16 17 19 21 19 17 18 20 19 17 17 16 17 20 21 22 19 19 26 24 22 22 21 21 20 19 18 20 22 23 23 25 25 22 19 24 26 19 11 8 9
25 8 2 11 8 7 6 6 7 5 7 10 13 16 19 21 21 19 18 17 19 17 17 21 21 20 26 30 33 21 33 26 29 23 25 20 20 21 23 24 22 19 20 24 27 28 27 25 22 22 25 18 8 4
24 5 8 10 8 6 7 5 5 5 7 9 12 16 17 16 20 21 20 27 18 14 20 17 13 26 32 30 30 32 38 31 25 29 23 21 15 20 22 20 22 23 25 26 26 28 28 24 24 21 19 22 17 7
12 2 10 9 7 8 7 6 5 7 8 10 13 15 17 18 22 23 25 19 28 23 26 22 36 32 35 34 34 34 24 19 16 21 21 11 21 16 18 18 19 23 23 22 21 24 28 26 21 23 21 17 18 19
7 7 9 8 8 8 7 7 6 7 8 11 15 18 18 21 22 19 21 29 28 34 21 41 39 38 34 31 28 27 26 28 29 24 14 19 23 19 18 20 21 25 28 29 30 28 27 28 25 22 21 21 18 13
6 8 8 8 8 8 7 6 6 7 8 10 14 16 17 21 22 25 34 27 38 38 38 39 36 34 31 29 27 24 20 15 15 14 14 16 15 18 21 17 25 29 30 31 33 30 31 29 30 29 24 20 18 18
8 8 7 8 8 8 7 5 5 6 8 11 14 15 22 25 21 36 30 34 40 39 40 39 32 29 25 24 21 17 16 12 17 17 17 19 18 24 26 29 29 28 29 30 32 32 29 31 25 26 23 20 19 16
8 7 8 9 8 7 6 4 5 5 8 10 12 15 20 24 20 26 26 30 36 36 38 36 30 27 22 22 21 18 19 19 21 22 19 21 23 24 26 29 30 29 26 26 25 4 17 33 26 23 21 22 23 18
7 7 8 7 7 6 5 5 5 6 7 9 9 9 19 22 25 26 30 37 29 34 37 28 25 22 22 22 19 21 20 23 23 22 21 21 22 24 25 26 23 23 23 24 26 25 25 24 27 26 25 21 25 23
6 8 6 6 7 6 4 4 6 6 8 9 10 12 13 29 31 23 21 35 36 38 31 27 23 22 21 20 19 20 21 21 20 21 22 19 22 22 17 17 21 25 27 25 25 27 29 27 27 24 23 23 22 22
6 7 6 6 6 5 4 5 5 5 7 9 12 17 12 22 33 32 30 34 35 33 29 30 25 25 23 21 20 23 23 22 22 22 22 20 25 20 21 25 29 28 25 29 25 27 22 22 21 24 27 30 25 22
8 8 7 6 5 4 4 5 5 5 8 9 14 24 9 23 32 28 34 37 39 37 27 26 27 24 24 24 23 25 27 27 25 25 24 23 25 24 35 30 29 29 30 28 17 18 13 17 20 26 28 27 22 21
8 9 8 6 4 3 4 5 5 6 9 14 7 18 19 21 32 36 34 35 35 29 24 26 23 21 21 22 23 23 25 25 25 24 24 27 28 31 27 28 26 26 18 8 22 29 14 18 17 15 19 24 21 19
11 9 8 5 3 2 4 5 6 7 8 10 13 15 21 24 30 33 30 28 30 26 23 23 23 21 20 22 23 21 21 24 25 26 28 30 34 31 27 23 22 9 15 16 21 25 22 18 19 19 19 16 19 24
11 9 6 4 3 4 4 6 6 8 11 10 12 18 20 26 29 31 32 34 32 33 30 24 24 24 22 20 20 24 25 24 26 28 30 33 36 38 32 26 26 17 32 37 30 23 26 17 14 12 13 13 16 23
9 7 6 4 4 4 6 7 9 8 7 10 11 11 19 27 29 30 36 36 35 34 34 28 25 26 27 28 28 27 27 28 27 28 29 30 33 36 35 33 29 24 18 22 30 30 26 18 13 9 8 16 23 23
9 7 6 4 4 4 4 6 9 8 7 11 15 11 22 18 31 33 34 35 33 32 33 33 28 25 25 27 27 27 25 26 26 27 29 32 32 35 36 35 32 29 21 11 7 2 7 4 4 4 12 17 16 14
10 7 5 2 2 4 4 7 4 4 5 8 10 20 27 12 27 28 30 33 32 31 31 32 32 29 23 23 25 27 27 26 26 27 28 29 31 31 34 35 33 30 26 13 5 3 4 8 11 15 18 17 11 7
9 7 3 1 3 6 9 14 2 5 10 14 8 18 18 22 25 28 28 29 33 30 30 31 33 32 28 23 22 22 24 24 24 25 27 28 27 28 32 34 32 30 30 25 17 10 6 5 9 10 8 6 5 4
9 4 1 3 4 4 3 7 10 6 8 11 14 17 17 19 23 25 28 27 31 29 26 26 27 30 30 27 26 24 23 24 24 25 26 26 26 26 28 32 31 30 28 26 24 22 19 16 14 12 11 11 10 9
8 2 3 5 7 3 12 5 4 8 10 11 12 17 17 19 22 26 25 23 26 29 29 28 29 27 27 28 27 25 25 26 27 26 26 25 26 25 24 27 29 28 30 30 28 25 22 20 18 16 14 13 12 11
9 8 10 10 13 13 16 13 7 6 11 12 10 15 19 22 21 25 21 27 25 27 29 29 28 27 27 28 28 26 23 23 25 26 24 24 24 23 22 23 25 27 29 29 30 30 29 27 24 22 20 18 16 15
14 13 12 12 11 8 9 4 7 15 8 14 12 11 13 19 26 26 26 28 31 29 28 28 27 27 27 26 25 25 23 22 22 23 23 23 22 22 21 20 19 21 24 26 28 29 30 30 29 28 27 26 24 23
12 11 11 13 10 7 9 5 11 17 14 14 9 10 18 18 20 25 28 27 28 30 30 31 29 25 26 24 24 25 24 21 21 21 22 21 20 20 19 18 16 17 20 21 22 25 26 27 27 26 26 26 26 25
8 9 13 13 11 10 12 15 9 15 16 18 18 22 26 26 27 29 27 27 29 33 28 27 31 29 21 21 20 21 22 21 20 20 20 19 19 18 17 16 15 15 16 18 19 21 22 24 24 24 23 24 24 24

GFSWCAN_500_spd_066.txt.gz
Wind_Speed
34 33 28 32 27 6 9 14 11 10 12 12 15 18 21 22 20 18 16 18 20 16 15 16 16 14 11 9 11 10 10 9 15 12 9 9 11 12 14 16 20 20 23 24 25 25 26 28 26 28 34 35 42 64
34 32 29 31 26 4 8 13 10 7 9 8 12 16 20 22 20 16 15 15 15 13 14 15 16 14 14 13 14 14 13 12 12 16 16 13 11 12 14 13 17 20 24 22 24 21 21 26 29 32 28 34 40 44
35 31 29 28 27 4 10 12 10 7 5 5 9 13 17 21 21 17 13 13 13 8 9 10 10 9 9 14 13 14 13 11 10 10 13 16 16 10 6 8 8 12 15 16 20 20 20 25 27 30 31 32 39 46
32 25 26 27 24 2 12 11 9 6 4 5 8 12 16 20 19 19 15 12 12 10 8 9 8 7 7 8 9 11 12 12 8 8 11 14 12 11 15 15 12 12 12 11 14 15 15 19 22 23 27 34 38 43
30 26 28 27 18 3 12 11 8 6 5 6 10 13 16 20 19 16 16 15 12 9 10 9 10 11 10 10 12 12 10 9 9 9 10 10 10 11 13 14 18 18 18 15 18 21 17 17 19 18 21 27 33 38
31 24 25 26 11 5 11 9 7 6 6 7 10 13 15 17 18 17 15 13 16 15 13 14 15 15 17 17 15 16 15 16 15 13 12 14 15 11 9 11 14 16 16 17 16 16 16 20 15 17 21 25 30 30
27 20 24 20 4 8 10 8 5 5 7 9 11 12 14 15 17 19 17 15 16 17 15 15 17 18 17 19 22 20 18 21 22 18 18 19 19 16 17 14 12 14 18 18 19 20 21 21 20 19 22 23 25 24
17 18 23 16 2 9 9 7 5 5 6 9 10 11 13 15 17 18 17 16 16 18 19 15 14 15 18 24 26 24 23 20 15 15 24 25 22 23 19 18 15 16 18 19 19 19 20 21 22 21 18 24 21 20
17 20 21 12 3 9 8 5 5 5 6 8 9 11 13 16 17 19 20 21 21 19 21 21 19 19 13 26 25 23 27 25 26 31 28 24 20 25 24 18 19 19 19 19 19 20 22 21 20 20 21 19 22 15
15 21 21 9 5 9 6 5 4 4 6 7 9 12 15 18 18 19 19 24 17 22 20 22 24 15 30 25 23 23 23 24 30 26 20 21 23 24 16 15 16 12 15 18 22 19 18 22 25 23 20 20 21 21
15 25 16 6 8 8 6 4 3 5 6 7 9 13 16 15 18 19 22 22 31 28 25 25 26 29 18 20 20 23 23 21 14 25 24 25 14 7 10 15 16 14 15 18 21 24 22 23 25 25 25 21 19 22
20 20 12 4 7 7 7 4 4 5 5 7 9 12 14 15 16 21 20 24 27 31 30 25 23 31 19 29 24 23 23 21 20 18 12 6 15 12 16 21 18 16 19 23 23 27 25 25 26 27 27 26 24 20
17 14 6 6 7 8 7 5 5 5 5 8 11 12 12 19 15 18 29 28 27 28 28 30 34 31 27 25 25 24 22 17 4 14 22 17 16 15 20 14 14 15 18 28 29 30 31 28 24 23 22 21 23 20
13 8 5 6 7 8 6 5 6 6 6 8 10 11 14 18 15 21 27 30 38 33 35 32 31 27 24 21 21 18 16 16 18 13 14 17 20 20 22 19 21 30 22 25 25 21 24 22 15 19 25 22 17 18
8 6 5 5 7 6 5 5 5 6 7 9 11 11 15 18 21 28 25 23 37 36 35 29 25 24 20 17 18 16 17 19 21 23 23 24 23 23 24 26 28 30 28 25 16 19 16 20 25 25 29 25 19 17
6 6 5 6 7 6 5 5 5 6 7 8 11 12 13 16 20 26 24 21 32 36 33 26 24 20 19 19 19 17 18 19 21 20 20 22 22 22 23 24 28 29 29 24 23 21 18 22 26 31 26 18 19 19
7 6 5 6 8 7 5 4 5 6 6 7 10 13 17 14 31 24 23 29 28 30 26 27 23 21 20 18 18 18 20 20 19 19 18 20 21 21 23 24 29 25 24 25 23 16 20 23 26 29 24 20 16 15
6 5 6 7 7 5 4 4 4 5 4 4 7 16 21 18 27 30 28 26 27 29 25 23 21 20 19 19 19 20 21 22 22 21 22 21 22 24 18 31 33 24 30 13 19 22 26 26 24 22 25 18 17 18
6 6 8 8 6 5 4 3 4 6 7 7 3 18 11 18 24 28 30 32 31 32 30 26 22 19 19 20 22 24 24 24 24 24 23 23 24 26 26 24 34 36 26 33 30 28 32 22 17 15 16 17 19 23
7 8 8 6 5 5 4 3 5 7 8 9 10 14 17 20 25 28 29 32 35 35 30 23 22 21 21 22 22 24 26 26 25 26 27 27 28 30 31 29 25 24 24 27 23 19 20 23 17 24 17 15 13 19
9 9 8 6 6 5 3 4 4 3 4 6 5 6 12 18 25 28 29 32 29 28 31 28 24 23 22 23 25 25 26 27 27 27 27 28 30 32 35 33 29 24 29 27 24 16 11 14 8 14 16 27 26 24
10 10 7 6 6 5 6 5 3 2 6 9 4 8 10 20 24 29 27 23 27 31 31 29 24 24 24 23 22 22 22 23 25 26 28 31 33 34 37 34 31 25 25 28 17 18 15 15 14 14 16 24 24 20
11 9 7 8 7 6 6 6 5 6 10 6 8 11 10 19 21 30 29 29 32 32 32 33 32 27 24 23 24 25 26 26 26 26 29 32 33 33 36 36 34 34 23 13 13 22 19 10 12 11 15 9 7 7
10 9 8 8 6 5 6 6 6 5 7 11 11 9 13 24 18 25 29 29 32 33 32 31 33 33 29 25 24 25 27 27 27 27 28 29 30 32 33 35 33 34 29 21 17 10 3 2 2 1 2 5 10 15
10 9 9 7 5 5 4 3 5 7 8 11 13 7 14 18 18 24 27 28 27 31 32 31 30 32 32 28 25 26 27 27 27 27 29 28 28 31 33 34 33 30 28 22 18 14 9 11 9 6 10 16 20 18
12 10 8 6 5 5 3 5 5 5 4 9 11 12 11 18 18 22 23 25 25 29 31 31 29 29 30 29 27 26 26 28 29 28 27 27 27 28 30 32 34 32 30 26 21 16 10 7 11 13 13 11 10 7
12 10 5 3 3 3 3 5 3 7 8 6 9 13 16 14 16 21 24 22 23 27 28 30 30 28 28 28 26 23 23 26 28 28 27 27 26 26 28 29 32 32 28 26 24 22 19 17 16 14 12 11 10 10
11 8 4 1 3 6 8 4 4 8 11 12 12 10 11 13 20 24 20 22 25 25 24 25 27 28 28 29 29 25 22 23 25 26 27 27 25 23 25 27 29 31 33 33 29 25 22 19 18 17 16 15 14 13
11 7 1 3 6 10 8 9 12 13 12 11 13 11 10 13 17 20 23 25 23 25 23 21 20 23 27 27 28 28 26 24 24 25 26 25 24 22 21 23 25 28 30 31 31 31 30 28 25 22 20 18 17 15
12 7 2 5 8 9 8 13 12 11 10 16 19 14 7 10 18 20 19 20 23 26 26 22 26 28 21 23 26 28 27 26 25 25 25 25 24 22 17 18 21 23 26 28 28 28 28 28 28 28 27 26 24 22
14 10 8 6 9 12 9 12 10 8 12 10 13 11 10 11 18 20 21 22 23 26 29 25 26 27 21 21 23 24 25 25 23 23 23 23 22 20 19 17 18 19 21 23 24 25 24 23 24 25 25 24 23 22
14 13 10 8 9 13 11 12 10 9 6 11 12 8 12 11 14 19 21 21 23 26 27 29 23 24 26 22 20 20 21 23 23 21 20 20 20 20 19 18 17 19 20 21 22 23 23 23 23 22 23 23 22 21
10 11 10 9 12 11 8 10 10 5 9 6 10 11 8 7 12 17 22 25 24 26 28 27 23 22 22 23 20 19 20 20 21 21 20 18 18 19 18 17 17 18 19 20 21 21 21 21 22 22 22 22 23 22

GFSWCAN_500_spd_069.txt.gz
Wind_Speed
37 36 31 29 29 23 17 6 7 9 6 3 7 13 19 22 21 18 14 14 14 14 15 14 14 15 14 11 10 9 8 7 8 11 12 7 7 9 11 12 12 14 16 19 26 32 36 35 32 35 30 28 37 45
35 37 32 26 26 22 13 3 8 8 6 3 3 9 17 21 20 20 15 12 11 10 11 10 9 13 14 12 11 10 8 7 6 7 10 12 12 10 7 7 9 12 18 21 25 28 32 28 27 29 34 37 40 40
33 32 28 24 26 19 13 2 9 8 8 7 7 8 14 20 18 16 17 12 10 9 7 7 6 6 8 10 10 10 10 7 5 7 8 8 8 8 11 10 7 10 14 20 23 26 26 22 22 26 29 34 38 41
33 31 27 22 22 17 11 3 9 8 8 8 9 10 13 18 16 15 13 15 12 10 9 10 8 10 9 9 11 11 11 12 12 12 11 9 9 9 9 7 4 4 6 8 11 13 13 13 17 20 21 25 30 36
32 26 23 19 18 16 8 6 7 8 9 9 9 10 13 16 14 16 13 12 14 14 14 16 17 16 17 19 19 19 18 18 18 17 16 15 15 16 16 14 11 8 7 8 9 12 13 16 17 16 17 20 21 26
26 23 17 16 16 11 6 6 6 8 9 9 9 9 12 13 12 16 17 14 13 14 16 19 18 16 14 15 18 19 23 26 25 21 21 22 23 21 21 23 21 20 17 16 15 15 15 16 16 18 20 20 20 22
24 21 14 16 17 12 6 6 6 7 8 8 8 7 11 12 14 15 17 17 18 19 20 20 20 21 19 19 17 22 24 23 24 28 32 21 22 26 22 24 24 24 24 21 20 22 21 21 20 21 21 19 22 25
23 16 15 18 19 10 5 6 6 6 6 6 5 6 9 12 13 14 17 17 14 17 15 15 18 21 24 31 20 23 23 23 25 18 18 22 24 25 23 25 24 26 25 24 25 24 23 23 25 24 23 22 21 21
18 15 14 17 20 9 6 6 6 5 5 5 5 6 9 12 14 14 12 11 23 23 19 22 22 25 27 22 27 28 26 22 25 28 29 37 34 24 21 26 25 29 22 23 20 19 19 21 21 20 20 21 22 23
16 11 14 20 16 7 7 6 6 5 5 5 5 8 11 12 13 15 17 22 18 17 22 26 24 23 24 27 28 22 17 19 23 20 16 16 15 18 21 28 24 20 21 19 18 14 16 19 20 21 20 23 27 30
14 12 16 22 14 6 7 8 6 5 5 5 6 10 12 12 15 12 20 20 21 23 24 27 22 25 27 20 19 23 19 19 18 20 18 17 16 15 10 15 18 22 24 21 18 18 21 22 22 24 26 26 29 28
14 17 22 19 8 7 8 8 6 5 4 5 7 10 11 13 16 14 22 25 24 29 31 33 29 28 24 20 17 16 18 18 18 13 15 16 16 15 13 17 20 21 23 18 17 23 26 27 25 26 26 19 21 24
15 16 17 10 5 8 9 8 6 5 4 7 8 10 10 13 15 20 26 27 27 31 36 33 25 23 22 20 17 18 18 16 15 19 17 18 19 18 16 14 15 16 18 24 29 26 31 23 22 26 18 16 23 25
13 9 9 4 7 8 8 8 7 5 5 6 8 9 10 13 17 21 26 26 27 29 32 25 23 22 21 20 20 19 18 20 20 19 21 21 20 20 20 20 21 23 26 24 24 23 20 24 25 24 21 22 25 29
9 8 5 6 8 9 8 8 6 5 6 5 7 7 9 10 16 27 24 26 25 25 23 23 23 20 19 17 17 17 18 20 21 21 21 21 22 22 22 22 24 23 22 26 23 18 20 23 24 23 25 25 24 26
12 6 6 7 10 10 8 6 5 5 5 6 8 7 11 14 15 16 21 22 24 25 25 24 21 18 17 16 16 17 18 18 18 18 19 19 21 23 25 26 33 27 27 28 27 22 27 27 26 23 23 24 24 23
9 6 6 8 10 9 7 4 4 5 4 6 7 13 16 10 17 20 20 20 25 27 24 22 22 18 17 17 18 18 19 20 20 19 20 20 21 23 25 27 29 26 27 26 23 28 28 21 19 18 23 22 19 21
7 6 8 10 10 8 6 5 4 2 1 2 4 12 7 16 19 21 23 23 25 24 24 23 22 21 20 19 20 21 21 22 22 22 22 23 24 26 27 30 33 31 28 32 30 24 14 22 23 21 17 15 15 14
6 6 9 10 9 7 5 5 3 2 3 4 11 5 10 15 19 23 25 25 25 25 26 28 28 26 23 22 21 21 23 25 25 24 24 24 25 28 29 29 32 32 29 29 27 25 28 27 25 24 17 9 11 7
5 8 10 10 8 7 6 5 4 2 3 5 5 4 10 14 20 25 26 26 29 30 29 29 27 25 23 23 23 24 26 28 28 26 27 28 29 31 31 34 35 32 30 26 22 27 24 20 20 14 12 12 13 9
7 9 10 9 8 7 6 5 3 2 4 3 3 2 7 11 19 22 27 27 28 29 27 27 29 30 29 25 23 24 24 25 25 27 27 27 28 28 32 33 34 33 31 25 20 19 12 11 8 4 14 19 17 17
9 10 11 9 9 8 5 3 2 4 5 7 9 10 12 15 21 24 25 26 26 27 26 29 30 32 31 27 23 24 24 26 26 27 28 28 28 31 33 35 34 33 30 23 10 6 6 12 2 1 6 7 14 16
11 12 11 10 9 7 4 3 3 5 6 3 4 11 14 11 17 18 22 26 27 27 27 27 29 30 31 30 26 24 25 27 28 28 28 27 28 30 31 34 34 33 31 25 23 3 7 2 7 2 3 7 7 8
12 12 10 10 9 7 4 4 4 6 7 8 7 8 6 12 17 19 24 24 24 24 27 26 26 28 30 31 29 25 25 27 28 28 27 27 27 28 30 33 33 32 32 28 24 18 12 8 3 2 5 5 8 11
12 12 11 9 7 4 3 4 5 4 5 7 8 8 10 12 17 19 22 23 22 24 25 25 24 27 29 30 29 26 26 26 26 28 29 26 25 27 30 32 34 33 30 29 25 18 10 7 8 5 7 9 7 8
13 12 9 7 4 3 4 5 5 6 6 7 9 10 13 14 15 19 22 21 21 27 25 24 23 22 24 26 27 27 27 26 26 28 28 26 25 26 28 31 32 33 33 28 25 22 19 17 16 14 12 12 12 11
13 11 8 6 4 2 3 6 4 5 8 10 14 13 12 14 16 20 24 23 21 24 26 24 25 23 21 22 24 24 24 25 25 26 26 25 24 23 26 29 32 32 31 31 31 27 23 21 19 19 19 18 16 14
13 11 9 6 2 0 3 4 2 6 6 6 9 8 13 8 14 22 20 17 21 26 23 23 24 24 18 19 21 22 22 23 24 24 24 24 23 22 23 26 29 30 30 29 29 30 29 27 24 22 21 20 18 17
14 12 9 6 2 3 5 2 8 12 10 9 10 13 14 9 9 14 17 18 21 22 23 21 23 26 21 17 19 20 22 23 24 23 23 23 24 23 22 23 25 26 28 28 26 27 27 27 27 26 26 25 24 22
16 12 6 2 2 5 7 5 5 7 6 10 12 10 9 7 8 12 16 18 18 17 18 21 18 19 22 20 19 19 21 23 23 23 22 22 21 23 23 22 22 24 25 25 26 26 26 27 27 26 24 23 22 21
15 11 7 7 8 8 9 6 6 6 9 11 7 9 3 4 6 9 14 18 18 16 18 20 18 17 21 22 20 20 21 22 23 24 23 22 21 21 20 20 21 21 22 22 23 24 24 24 24 24 25 25 23 22
18 17 15 13 13 12 12 13 12 13 14 10 14 11 9 8 8 6 10 16 19 18 18 19 17 15 19 20 19 20 22 22 21 22 22 23 22 20 18 19 20 20 20 21 21 22 23 24 24 24 23 23 23 22
17 17 15 13 12 13 15 12 9 8 11 14 12 15 13 11 9 7 9 13 20 20 16 16 18 14 17 18 17 19 19 20 21 20 20 21 21 21 20 19 19 19 20 21 22 22 23 23 22 23 23 23 23 22

GFSWCAN_500_spd_072.txt.gz
Wind_Speed
44 36 34 33 32 27 26 20 12 8 7 6 5 5 13 19 20 16 13 12 11 12 10 11 12 13 14 14 14 14 11 7 6 6 6 3 5 11 17 19 20 22 25 25 26 24 24 21 25 29 33 32 32 33
39 33 32 32 30 26 23 15 11 8 8 8 9 7 10 16 18 17 14 11 9 9 7 4 6 9 9 9 9 8 9 9 9 11 12 11 8 7 4 7 11 14 15 18 18 19 22 25 30 35 35 35 35 34
33 31 29 29 26 20 16 11 11 8 8 8 11 10 10 12 15 16 13 12 10 10 9 7 9 10 11 11 10 9 9 10 11 12 14 15 15 12 10 10 8 5 9 11 15 19 24 26 29 32 33 36 36 36
31 27 28 23 22 17 10 11 9 9 8 9 10 9 9 10 12 14 14 14 14 13 11 14 14 15 16 18 17 17 18 18 17 16 16 18 19 17 15 14 14 12 8 6 7 10 12 12 15 15 16 21 27 31
27 26 25 23 18 14 7 10 9 8 7 8 9 8 7 8 10 14 14 16 17 17 19 18 18 17 16 17 18 18 17 17 19 21 24 23 23 23 22 22 21 18 18 16 16 17 19 18 17 17 20 21 21 20
25 25 23 20 15 16 10 9 9 8 6 7 8 7 7 7 10 14 16 16 15 17 17 21 21 22 20 22 21 20 21 21 21 22 23 23 31 30 25 24 28 26 28 28 26 25 26 26 27 27 25 23 23 22
25 25 22 18 14 14 11 6 8 7 5 7 6 6 5 6 9 13 14 14 8 19 19 17 18 22 24 25 24 25 29 29 22 18 19 18 21 26 28 24 33 31 31 30 31 29 30 31 32 31 27 26 26 23
22 25 23 14 16 18 10 7 7 6 5 6 5 5 5 7 11 12 12 16 23 26 23 20 25 25 27 26 22 20 24 28 32 25 22 24 26 29 30 25 28 28 27 27 30 33 34 32 31 28 24 21 23 23
21 19 16 15 22 26 14 7 7 5 5 4 4 4 5 9 12 12 12 16 22 10 21 19 24 27 25 24 26 27 34 29 22 18 23 26 25 25 28 32 28 24 30 29 30 31 31 32 28 24 21 21 23 26
17 15 19 20 24 30 12 6 8 5 4 4 4 3 7 11 11 14 11 19 25 24 25 28 31 28 25 24 22 25 20 20 14 20 23 24 28 22 18 22 27 29 27 30 25 25 27 28 28 26 24 25 29 30
18 16 15 13 23 20 9 8 7 5 3 4 4 5 8 7 11 15 17 21 21 23 24 29 35 30 25 24 21 20 21 20 18 17 13 10 13 13 17 15 18 9 14 20 20 23 25 24 26 26 27 28 31 33
15 13 14 24 25 11 8 9 7 4 3 3 3 6 8 8 10 14 19 21 22 23 27 31 32 27 24 20 19 17 18 17 15 15 14 19 18 17 18 18 17 19 22 17 22 23 23 22 28 29 30 31 31 32
14 13 17 20 11 7 9 9 7 4 4 3 3 6 7 9 9 13 19 24 23 26 28 29 28 24 20 19 17 17 16 14 15 16 17 18 18 16 16 16 15 17 20 24 27 30 31 33 31 28 27 25 25 23
12 9 8 8 6 7 9 8 7 5 4 3 4 6 6 9 13 21 26 24 25 24 27 27 26 20 18 18 17 17 17 18 18 18 17 16 16 16 17 17 18 16 19 23 25 22 23 25 26 28 27 27 27 26
5 5 8 4 5 8 9 7 6 4 3 2 4 7 9 11 15 17 18 21 23 24 26 24 23 20 19 18 18 18 18 19 19 20 20 21 19 17 17 18 21 22 25 26 25 26 25 27 24 27 27 29 30 26
6 10 6 5 6 8 8 7 5 2 2 2 4 7 10 6 15 14 19 22 24 24 24 24 24 24 21 20 19 18 19 19 20 21 21 22 22 23 23 24 24 25 27 28 28 25 28 26 23 31 32 29 26 22
11 11 7 6 8 9 9 6 3 3 4 4 3 5 10 5 13 17 20 22 24 25 25 26 27 26 25 22 21 21 21 21 22 24 23 23 23 23 23 26 28 29 30 32 30 28 28 33 29 30 29 29 23 20
14 10 6 8 9 10 8 5 5 5 5 4 4 4 8 9 12 17 23 22 23 25 26 26 26 25 25 24 24 23 22 23 22 23 23 23 23 24 26 29 29 32 34 33 29 24 27 34 27 24 18 12 17 17
9 7 8 9 9 9 7 6 6 6 4 5 6 5 4 9 15 20 23 25 23 26 26 26 26 28 29 28 25 22 22 24 26 27 25 24 25 27 28 28 31 33 33 31 30 25 25 22 20 23 15 17 16 15
5 7 9 10 9 8 8 7 6 6 5 6 7 9 9 13 17 22 25 27 29 28 28 28 28 28 28 27 24 24 25 25 25 25 25 26 27 26 28 30 33 32 33 29 23 21 21 21 22 18 17 12 17 18
5 7 10 10 9 9 8 6 5 6 6 4 6 7 10 15 18 23 25 27 28 29 28 29 28 28 28 28 26 22 23 24 25 25 25 25 24 26 28 32 33 33 31 26 19 9 3 2 13 11 10 19 23 19
7 9 11 11 10 9 8 5 6 6 6 6 9 11 12 15 18 20 22 26 27 26 25 30 30 28 28 29 27 23 23 25 25 26 26 24 25 28 30 32 33 31 29 27 14 6 5 9 3 2 3 8 10 14
10 11 12 11 11 10 8 6 7 6 4 2 3 7 11 13 11 21 23 25 27 24 28 29 27 26 26 27 26 24 24 25 26 26 25 24 25 28 30 31 33 32 30 27 22 1 3 3 2 5 5 10 12 12
10 12 12 11 11 9 6 5 5 4 5 7 10 10 13 13 16 17 20 26 23 26 29 24 26 27 24 24 25 24 25 25 25 25 24 23 25 28 30 32 32 33 30 29 25 17 9 8 4 1 7 9 12 15
12 13 12 11 10 7 6 6 4 4 6 8 8 7 10 12 14 17 22 27 28 26 24 21 24 25 22 23 24 24 24 24 24 24 23 22 23 26 29 31 32 32 33 29 25 22 19 15 11 9 8 6 6 7
14 13 12 10 8 6 5 4 4 6 9 8 8 10 12 11 16 16 19 23 24 22 21 19 22 23 21 21 23 23 23 24 24 23 23 22 21 23 27 29 31 31 31 31 30 28 24 21 18 16 15 14 14 12
14 13 12 11 8 6 4 3 6 7 4 7 9 10 10 12 12 14 18 20 22 21 23 21 20 24 23 20 20 22 23 22 22 22 23 23 21 21 25 26 28 29 29 29 29 28 28 27 25 23 20 19 17 15
14 14 12 8 6 3 3 3 2 4 8 10 15 16 13 10 9 14 16 17 19 22 25 23 21 20 23 22 20 20 21 22 21 20 21 22 22 21 22 24 26 27 27 27 27 28 28 27 27 25 24 23 22 20
16 14 12 9 5 1 2 3 3 4 9 11 11 12 14 15 14 13 14 15 19 22 23 24 21 18 21 22 21 19 20 21 21 20 20 21 21 21 22 23 24 25 25 26 26 26 26 26 25 25 24 23 22 21
18 15 12 8 4 0 3 6 6 8 11 9 13 14 14 15 12 13 12 13 17 19 21 22 23 20 19 22 21 19 18 19 19 20 20 20 20 21 21 20 21 21 23 23 24 24 25 25 25 24 23 22 22 21
17 15 11 7 3 5 6 7 9 10 10 11 12 13 16 14 13 13 13 13 15 17 20 22 23 23 18 20 20 18 17 17 18 19 19 19 20 21 21 21 20 21 21 22 22 23 24 24 24 24 23 23 22 20
19 17 14 11 10 11 11 11 14 14 15 15 13 11 17 18 18 18 18 17 14 15 19 26 24 23 20 18 19 17 17 16 17 17 17 18 19 18 19 19 19 19 19 20 20 21 22 23 24 25 25 24 24 23
16 15 14 14 14 13 13 14 15 15 17 20 24 22 20 17 17 20 22 20 18 18 20 20 20 21 20 20 18 18 18 17 17 16 16 16 16 17 17 17 17 18 18 18 18 19 20 22 24 25 27 26 26 25

GFSWCAN_500_spd_075.txt.gz
Wind_Speed
39 34 31 30 28 27 28 24 22 12 7 7 8 6 4 10 12 11 10 8 7 7 6 7 8 11 12 12 10 10 10 7 6 5 5 4 4 7 13 18 20 21 23 26 29 32 35 35 34 35 33 34 35 37
33 30 29 28 25 26 25 22 20 11 9 9 9 8 5 8 10 10 10 10 9 9 9 8 8 8 8 7 8 7 7 6 5 6 7 7 8 6 5 5 10 15 20 22 24 25 27 30 32 31 32 33 33 35
33 31 30 25 25 23 22 21 17 12 7 9 9 7 7 9 10 9 10 11 10 10 11 10 12 14 13 13 12 13 12 12 13 12 11 10 10 12 11 11 8 6 6 13 16 17 20 22 24 26 28 32 36 39
34 30 27 21 24 25 19 17 16 8 7 9 9 6 6 9 11 8 10 11 12 12 12 13 14 15 16 17 18 18 19 19 19 18 17 17 17 17 16 15 17 15 12 9 7 8 10 11 13 15 17 17 19 20
35 30 22 22 25 20 21 21 15 5 7 9 8 5 5 8 10 9 11 12 13 11 13 17 17 16 16 18 19 20 20 20 19 20 19 19 22 22 22 21 23 21 22 20 18 17 15 15 17 18 19 20 21 23
29 26 19 22 23 20 19 21 12 5 7 9 6 6 6 7 8 8 9 11 5 10 24 23 16 19 22 22 20 21 20 21 22 21 25 28 28 25 19 24 29 29 29 26 25 28 27 26 25 27 29 29 29 30
17 20 22 24 21 19 16 21 13 5 7 6 4 6 5 6 7 9 9 10 12 18 15 17 17 20 24 27 27 26 22 18 19 19 23 26 24 33 29 20 25 28 36 31 30 30 32 31 30 31 32 32 33 33
19 22 25 21 16 19 21 22 13 5 7 5 4 4 3 5 7 9 9 7 12 20 16 22 25 25 29 26 22 22 23 24 28 29 28 28 26 28 24 23 28 31 33 36 31 30 32 34 31 31 34 35 33 32
24 25 20 17 14 17 21 23 11 7 6 4 4 2 2 5 6 9 10 11 17 20 20 21 24 27 26 22 20 19 18 20 20 13 9 14 17 20 20 21 23 23 29 34 42 37 29 29 34 35 34 32 32 32
24 24 19 20 18 15 21 18 11 8 6 4 3 2 2 4 4 9 11 14 19 20 22 24 26 28 29 25 21 18 17 15 15 14 13 13 13 14 15 18 15 14 17 23 28 29 28 27 33 30 30 30 32 34
24 20 19 17 11 21 25 14 10 8 5 3 2 1 2 3 6 7 12 17 21 22 23 25 27 28 26 21 20 18 16 15 14 12 11 10 13 14 16 16 17 17 15 16 16 17 21 23 24 28 30 30 29 28
16 13 10 10 16 19 18 11 10 8 4 3 2 1 3 4 6 7 12 24 22 23 25 26 26 27 24 19 18 17 15 14 14 14 14 14 15 16 17 15 16 18 19 19 19 20 22 20 23 28 31 31 32 34
14 10 13 14 12 10 11 11 11 8 4 2 2 1 4 5 8 14 17 16 18 22 25 25 24 25 23 19 17 17 16 15 15 15 15 15 16 15 14 14 14 13 14 16 18 21 24 26 30 34 35 32 33 32
10 9 9 7 9 10 10 11 10 7 4 3 2 3 5 7 11 13 14 17 21 22 24 24 24 24 23 20 19 17 16 16 16 16 17 17 18 17 17 17 18 19 19 18 20 21 22 23 27 30 27 27 29 31
11 9 5 9 6 7 10 10 8 6 5 4 2 3 4 4 10 14 16 21 22 23 25 24 24 23 24 21 19 18 19 20 20 21 21 22 22 21 21 20 21 23 24 25 27 27 28 27 28 32 32 30 29 32
11 4 9 7 5 9 10 9 7 6 6 5 1 3 6 4 10 15 21 23 23 23 25 25 24 25 25 25 22 20 20 20 20 20 21 22 23 23 23 24 24 26 28 28 29 30 32 32 29 27 31 32 30 30
12 10 12 6 7 10 10 8 7 7 7 4 2 3 4 7 12 17 19 24 26 25 25 27 28 28 28 28 25 22 21 21 21 21 21 21 21 23 24 25 26 27 29 31 32 33 33 28 27 29 35 34 35 32
9 11 11 6 8 11 10 9 8 7 6 5 4 4 6 6 9 15 20 25 28 28 26 27 28 27 28 28 26 23 21 21 21 22 23 24 24 23 23 24 26 29 31 33 33 33 30 25 22 23 27 29 31 28
9 9 6 7 9 11 11 9 8 7 6 4 4 4 3 7 12 18 22 25 28 29 27 25 27 27 28 28 28 25 23 22 24 25 25 24 23 22 24 27 29 32 33 33 31 27 23 27 24 33 31 26 19 24
7 7 6 8 10 11 11 9 7 6 5 5 5 6 8 7 13 16 21 24 27 29 26 26 28 27 27 27 27 25 22 22 23 24 24 23 22 24 27 29 30 31 32 31 31 16 13 11 18 15 21 18 15 15
9 6 7 9 11 10 9 8 7 6 5 5 5 6 8 13 15 19 21 27 27 27 25 28 27 27 26 25 26 25 23 22 23 23 23 22 24 26 29 29 29 30 30 30 18 14 14 11 6 8 6 9 12 22
11 9 9 11 11 10 9 8 7 6 6 6 7 7 7 10 14 15 19 24 25 25 28 26 25 26 26 23 25 25 23 22 23 23 23 22 24 28 29 28 28 28 28 27 16 10 12 12 9 11 1 6 8 12
16 11 11 12 11 10 10 8 6 5 6 7 5 5 9 12 12 14 14 19 23 24 25 27 24 27 26 23 24 26 23 22 23 24 24 22 23 27 28 27 27 27 27 26 23 17 14 12 8 8 7 8 11 15
15 12 13 13 12 12 10 8 6 5 6 7 7 5 7 8 10 14 17 19 23 24 24 23 22 25 28 24 24 25 24 24 23 23 23 23 22 25 26 27 27 28 27 27 24 21 18 14 10 8 7 9 13 17
15 13 14 13 12 11 9 7 6 6 7 7 6 7 10 12 12 16 19 18 21 22 23 22 22 22 25 25 23 24 24 25 24 23 23 23 21 23 24 25 25 26 27 26 25 24 20 17 16 15 13 12 11 11
13 13 14 12 11 10 8 6 7 9 10 8 8 10 12 14 16 17 15 16 19 20 22 22 23 21 21 24 23 23 24 24 24 22 22 21 21 21 22 22 23 24 25 25 25 24 23 22 21 19 16 14 13 11
12 14 13 12 11 9 7 8 8 10 9 7 7 7 10 13 13 14 13 17 20 20 19 20 22 22 21 23 23 24 23 23 23 23 21 21 21 20 20 21 21 23 24 25 25 24 23 21 20 19 19 19 18 16
14 15 14 12 9 6 5 6 6 3 4 8 12 12 13 13 16 18 18 15 16 21 20 18 20 23 23 22 24 24 24 22 22 22 21 20 20 19 19 19 20 21 22 23 24 24 23 22 21 21 20 19 17 16
16 16 14 11 8 4 1 3 4 5 6 10 10 10 13 12 15 18 18 17 16 18 19 18 19 22 26 24 23 24 22 22 21 20 20 19 18 19 18 18 19 19 20 21 22 23 23 24 23 23 22 20 19 17
17 16 14 11 8 4 1 3 5 6 8 12 13 15 15 15 19 19 18 18 18 17 19 19 22 24 25 27 22 23 22 22 20 19 18 18 17 17 17 17 18 18 19 19 20 21 22 23 24 23 22 21 20 19
17 15 14 11 7 2 3 6 8 10 12 15 15 14 14 16 18 21 21 23 24 23 23 22 23 24 22 24 24 23 21 21 22 20 17 16 16 15 15 15 15 16 16 17 18 20 21 23 24 25 25 24 24 22
18 17 13 9 7 8 9 11 12 13 16 16 15 17 19 20 21 23 24 24 23 23 26 27 27 24 21 23 21 22 22 21 21 22 22 16 14 14 14 14 14 14 14 15 16 17 19 22 26 29 30 28 26 23
14 13 12 12 13 15 15 13 12 14 13 13 10 9 15 22 25 23 21 20 18 22 28 30 31 26 27 20 20 22 22 22 24 23 23 23 16 12 13 12 12 12 13 13 14 15 18 21 24 28 30 29 26 21

GFSWCAN_500_spd_078.txt.gz
Wind_Speed
35 36 35 33 32 26 25 25 25 20 12 10 9 12 4 5 7 8 7 6 5 5 6 5 5 6 6 6 6 6 6 5 3 2 1 1 3 7 12 17 20 21 23 25 28 32 36 35 35 38 38 37 37 38
35 36 34 32 30 22 24 25 22 22 11 8 8 12 11 6 6 6 7 6 6 6 7 7 6 7 6 7 7 6 5 5 4 5 5 6 5 4 4 5 8 14 20 24 27 29 31 35 38 40 41 41 41 40
34 34 33 31 25 20 23 21 21 19 9 7 8 9 11 8 5 5 6 7 7 7 8 9 10 11 10 10 11 12 14 15 15 14 13 12 12 11 11 11 10 9 9 13 21 25 27 29 31 34 38 39 39 39
36 34 32 29 21 20 22 19 21 19 9 5 7 9 9 6 4 4 7 8 9 6 6 12 13 11 10 11 14 15 15 16 18 19 20 21 20 18 18 17 17 17 17 14 11 15 20 22 25 27 29 30 32 33
37 32 27 20 18 21 19 17 21 18 9 6 8 9 9 5 4 3 7 8 9 2 10 17 11 9 13 15 15 15 16 19 21 22 21 20 21 20 21 23 24 22 23 21 19 17 16 17 19 22 23 24 26 27
31 25 16 19 19 20 14 15 21 16 10 6 7 9 8 5 3 4 8 8 8 10 16 12 12 16 19 20 22 24 23 20 20 23 24 24 24 27 27 26 26 26 26 29 28 25 24 26 25 25 25 25 26 27
24 19 20 22 23 17 12 17 23 14 10 5 7 8 6 4 2 6 7 7 5 12 20 17 18 20 22 24 23 20 19 20 20 20 21 21 24 26 31 24 24 31 31 31 30 29 30 32 31 32 34 34 34 36
21 21 22 23 18 14 10 16 21 9 7 6 6 6 5 2 4 5 7 9 11 17 17 17 18 20 23 22 21 19 18 19 20 18 18 22 31 26 28 25 28 29 24 24 27 31 30 32 34 33 33 36 38 39
24 23 22 20 15 15 14 15 19 8 8 7 6 5 4 1 2 3 5 8 12 16 16 16 18 19 23 21 21 19 18 17 16 13 13 12 12 13 15 14 18 20 23 24 25 27 32 35 36 35 34 36 36 36
24 24 22 20 13 17 13 17 14 13 8 7 6 6 5 3 3 7 6 8 17 15 17 18 20 21 23 20 19 17 16 14 14 13 11 11 13 13 14 13 13 16 20 22 23 24 27 30 33 31 35 36 36 36
22 19 15 11 10 3 6 11 7 13 9 7 7 6 4 2 3 6 8 17 17 16 18 20 22 22 22 20 18 17 16 16 14 13 13 14 14 17 20 21 22 22 22 22 24 25 20 27 27 24 23 26 28 28
17 15 12 12 14 10 7 7 15 11 8 7 7 5 1 1 5 7 13 13 15 17 20 21 22 21 21 21 19 16 15 15 14 14 13 14 13 12 13 14 16 18 19 19 20 22 26 28 29 26 27 29 29 32
12 14 13 14 12 7 3 16 13 11 8 7 7 3 1 2 6 10 12 13 18 18 20 21 21 21 22 22 19 18 16 14 15 16 17 16 17 17 16 16 17 17 17 18 18 18 19 21 24 26 30 31 33 35
10 11 8 8 2 7 15 12 13 10 7 6 6 3 1 3 5 10 12 17 17 18 20 20 22 22 22 22 19 16 17 15 15 17 18 20 20 19 19 19 19 20 20 20 20 22 22 22 23 24 25 26 28 32
9 10 8 0 9 10 10 12 12 10 7 6 5 2 2 2 5 10 14 17 22 20 20 21 22 21 22 22 22 20 17 16 17 18 19 20 21 21 21 21 20 20 21 23 25 26 25 27 27 29 30 30 31 34
11 9 3 8 6 8 11 12 11 9 6 7 5 2 2 2 5 9 15 20 22 24 22 21 23 22 24 24 23 22 19 18 19 20 21 22 22 22 22 22 23 23 23 23 25 28 31 31 30 30 32 34 35 34
13 8 7 8 6 9 12 12 10 8 7 8 8 4 2 1 5 10 17 22 23 25 25 23 25 24 25 24 24 22 19 19 20 22 22 21 21 20 20 21 22 24 27 29 31 33 34 34 33 33 33 31 29 32
14 6 10 10 7 10 12 11 9 8 8 8 8 9 7 6 7 13 17 20 23 24 23 23 24 23 27 25 26 23 21 19 20 22 23 22 22 22 24 26 27 28 29 31 33 33 31 28 28 29 26 21 29 34
4 4 9 5 8 10 12 11 9 8 8 8 7 7 8 6 8 12 16 20 24 23 21 23 24 24 26 25 25 24 23 24 24 24 23 22 23 25 27 28 28 28 29 32 31 21 19 20 20 24 21 28 20 17
3 5 5 6 9 11 12 11 9 8 8 7 6 7 9 9 11 15 17 18 22 22 22 22 22 23 25 23 23 24 24 24 24 23 23 23 23 25 27 28 29 29 30 30 24 18 24 19 9 2 14 13 14 10
7 5 4 7 10 11 11 10 9 8 7 6 5 6 6 8 9 12 14 15 18 20 21 21 19 21 23 21 21 24 24 24 24 23 23 22 24 26 27 27 29 29 27 29 25 19 20 20 12 10 7 1 3 5
6 10 6 7 10 11 11 10 9 6 6 6 5 6 3 5 7 10 13 13 16 18 20 20 20 19 21 21 22 23 24 24 23 23 23 23 23 25 27 27 26 28 26 25 25 22 19 13 9 9 9 5 4 5
8 10 10 9 12 12 12 11 8 6 7 8 8 7 8 7 7 11 14 17 18 20 21 21 22 19 19 21 22 22 23 24 23 23 23 24 23 24 26 26 26 25 26 24 23 22 20 17 14 9 6 8 9 14
12 10 13 11 13 13 12 11 9 7 7 7 8 9 9 10 11 13 15 19 19 20 22 23 21 20 17 20 22 22 22 23 23 23 23 23 23 24 24 24 25 26 24 24 24 23 21 19 16 15 13 12 12 11
12 12 12 12 14 12 13 11 9 8 8 8 8 8 10 12 14 16 18 16 15 19 22 23 23 20 17 19 22 21 21 20 21 22 22 22 22 23 23 23 24 25 25 23 22 22 22 20 19 18 16 14 14 14
11 13 13 13 13 13 12 11 9 9 9 9 9 10 10 9 12 13 14 13 16 20 21 23 22 21 19 18 21 23 22 21 21 21 21 21 21 21 22 22 22 23 23 23 23 23 23 22 21 20 18 17 16 15
16 14 12 13 13 13 12 11 9 8 9 8 8 10 12 14 16 14 14 16 17 16 18 21 22 19 19 21 19 21 23 21 22 21 21 20 20 19 20 21 21 21 21 21 22 23 23 22 21 20 18 17 16 15
13 13 14 14 13 11 9 7 8 6 4 4 7 9 8 10 11 13 14 15 16 16 17 19 20 19 21 23 23 21 22 21 21 21 21 20 19 19 18 18 19 19 19 20 21 23 24 25 25 24 23 21 18 16
12 13 13 12 11 8 4 4 5 5 7 9 10 13 12 15 15 16 16 17 15 16 18 22 22 22 24 26 23 24 24 21 21 22 21 19 18 18 17 17 17 17 17 18 20 22 24 27 28 27 26 25 23 20
12 13 13 13 11 7 4 2 0 1 4 6 10 13 15 17 16 14 16 20 21 21 20 21 24 25 25 25 21 23 24 22 21 22 23 24 18 15 16 16 16 15 16 16 18 20 23 26 30 30 30 26 24 23
15 15 15 13 10 6 3 2 4 7 9 12 14 16 15 16 19 20 20 21 22 24 27 22 22 26 23 24 24 22 19 20 21 20 22 24 26 23 12 13 14 14 14 15 17 19 22 25 29 30 28 23 22 22
15 15 13 12 9 7 6 9 11 12 12 14 13 16 16 12 14 22 25 25 22 24 27 22 26 27 27 27 27 32 17 14 19 21 21 21 24 27 23 13 11 12 13 14 15 17 19 22 25 28 26 18 20 21
13 14 13 12 11 12 13 14 14 13 16 17 22 22 18 21 24 26 27 27 31 28 22 18 25 38 34 30 29 20 18 17 18 18 19 19 21 23 24 22 20 12 10 13 13 14 15 17 20 24 26 20 17 18

GFSWCAN_500_spd_081.txt.gz
Wind_Speed
35 37 38 36 33 28 24 22 21 17 16 19 19 15 7 1 3 4 3 2 2 3 3 4 4 4 3 2 2 3 3 3 3 2 2 5 10 14 17 20 19 20 22 23 25 27 31 33 27 31 34 36 42 41
35 37 38 35 30 25 21 19 18 17 15 16 16 15 14 9 5 4 3 3 4 4 4 4 5 7 7 8 8 8 7 6 6 6 7 8 7 7 7 11 16 21 25 26 28 32 29 33 31 33 35 37 38 38
39 38 36 34 25 19 16 18 15 16 13 16 13 11 12 12 7 5 5 6 6 7 4 4 10 10 9 8 8 9 12 14 15 16 16 15 15 15 14 14 13 12 13 18 21 29 31 35 35 37 39 41 43 43
38 37 34 31 21 16 16 16 12 15 10 12 10 10 9 9 8 5 5 5 7 5 4 11 12 6 4 7 10 11 13 14 15 18 19 22 23 22 22 21 20 20 19 19 18 18 20 27 32 35 38 41 44 46
34 30 28 19 16 16 17 13 12 19 9 13 9 9 9 8 6 5 4 4 6 4 8 15 9 7 11 14 14 15 16 17 19 22 24 25 25 24 27 27 26 26 26 25 26 24 23 22 22 28 32 35 37 39
29 24 19 16 18 19 14 14 13 18 10 11 7 8 8 6 5 5 5 5 6 5 10 16 12 13 15 16 18 17 17 17 18 19 21 23 25 26 27 27 28 28 28 30 31 28 29 29 25 23 25 28 31 32
23 20 18 18 18 17 10 9 10 16 11 10 6 7 6 6 5 4 5 5 6 9 14 14 14 15 16 17 17 16 16 15 16 17 18 21 24 25 25 26 28 29 30 30 32 31 32 34 34 34 32 30 30 31
21 21 21 18 18 16 11 11 11 14 6 8 6 5 6 6 3 2 4 4 5 11 13 14 15 16 16 15 17 19 18 17 17 16 15 17 18 22 28 31 28 24 24 30 30 32 35 36 38 37 36 39 40 40
22 25 21 20 18 13 11 11 9 6 11 8 6 6 7 5 2 1 3 4 9 17 13 14 16 16 17 16 19 18 19 17 15 15 14 14 17 18 17 13 23 30 27 26 27 31 31 31 31 34 35 36 40 43
23 21 20 16 10 9 13 8 4 3 14 8 8 8 6 2 2 6 6 8 17 14 15 16 15 15 17 18 18 19 19 18 16 14 13 13 14 14 14 15 16 15 15 19 23 25 27 29 30 30 30 35 39 42
20 18 16 12 9 7 3 4 3 15 12 10 10 8 4 2 3 5 8 12 11 15 16 17 15 17 18 17 16 18 17 18 18 18 16 16 16 14 14 14 16 20 23 24 24 24 25 28 28 28 29 33 36 37
16 14 12 11 10 10 8 3 12 16 12 11 10 7 3 1 2 5 8 8 13 15 17 18 18 18 18 17 15 16 16 18 18 19 18 18 18 17 18 18 18 18 18 18 20 21 22 24 24 25 28 33 34 34
13 12 12 11 11 9 5 14 18 15 13 11 10 7 3 3 3 5 8 12 14 19 20 18 17 17 17 16 16 15 16 18 18 19 19 18 18 18 19 19 20 21 19 20 21 21 22 23 23 25 27 28 31 31
9 9 11 9 6 5 18 20 17 14 11 11 10 7 4 2 1 6 10 14 17 19 20 17 17 17 18 16 18 13 15 13 14 16 19 19 18 18 19 19 20 20 20 21 22 23 24 26 27 27 28 28 29 29
6 6 6 1 8 17 16 15 14 12 10 10 10 7 4 3 4 6 9 16 17 19 18 15 17 17 18 17 19 19 18 17 17 17 19 19 21 22 22 21 21 20 21 21 22 24 26 29 30 33 34 34 35 35
8 7 1 8 9 10 10 12 13 12 10 11 10 7 4 4 5 5 9 15 18 18 17 15 17 17 18 18 20 21 20 18 18 19 19 21 20 21 21 21 22 22 23 24 26 28 31 33 34 35 37 39 40 41
11 7 7 9 8 9 11 13 13 13 11 12 10 8 6 4 5 7 10 14 19 19 19 18 16 18 20 17 18 19 19 20 19 19 19 19 20 21 22 24 25 25 25 25 26 30 32 34 36 38 39 38 41 41
10 7 9 12 9 10 13 14 13 12 11 12 11 10 9 9 10 10 10 14 18 20 18 18 15 17 20 18 19 21 22 21 20 20 21 21 21 22 24 25 26 28 25 25 29 27 27 27 27 26 28 32 34 33
6 5 9 12 8 9 13 14 13 11 12 12 10 9 10 11 9 11 14 16 16 18 17 16 14 17 20 21 19 20 21 21 22 22 22 22 22 23 24 25 26 28 25 25 29 25 23 22 21 16 18 16 17 24
2 5 9 6 6 10 13 14 12 11 11 10 9 9 8 10 12 13 13 12 13 17 18 17 18 21 20 21 20 19 21 21 23 22 21 21 21 22 24 25 26 26 28 26 29 27 22 18 20 22 8 3 4 10
6 5 5 7 8 11 13 13 12 11 10 8 9 8 6 8 9 9 9 10 12 16 19 19 14 17 17 19 20 19 20 22 22 22 23 24 23 22 23 24 25 25 26 27 26 27 24 20 14 15 13 9 1 5
8 10 12 6 8 12 13 13 12 10 9 8 8 8 7 6 8 9 8 10 14 16 18 20 20 21 19 16 20 21 20 22 22 22 22 22 21 21 23 23 24 26 24 24 25 25 24 23 19 11 8 7 7 8
11 9 10 14 9 13 13 12 11 9 8 8 8 8 8 9 11 12 13 14 15 16 15 18 19 21 20 17 18 19 19 21 22 22 21 21 21 21 22 22 23 24 25 25 25 25 23 22 20 17 14 11 9 8
13 12 10 15 10 13 13 13 12 9 7 7 8 9 9 9 11 12 15 17 16 13 14 18 20 18 19 18 18 19 20 20 22 22 21 20 20 20 20 21 22 22 23 24 24 25 24 23 22 20 18 15 12 10
13 12 10 15 11 13 13 12 12 10 8 8 8 7 6 9 11 10 13 15 14 14 18 19 19 19 19 19 18 18 21 19 20 21 21 21 20 19 19 19 19 20 20 22 25 27 27 26 25 23 19 16 14 13
12 10 12 15 12 14 15 13 13 11 9 9 8 9 9 11 11 14 16 16 17 18 18 16 17 18 19 20 22 21 19 20 20 20 21 20 19 18 18 18 18 18 18 20 22 26 28 30 28 25 23 22 19 15
10 13 14 13 12 14 15 15 13 10 9 10 10 9 11 8 8 10 12 14 15 17 18 17 19 20 20 22 24 24 18 22 20 19 19 21 21 18 17 17 17 16 16 18 21 23 27 30 30 29 26 23 21 18
12 15 12 12 13 12 13 12 10 9 8 7 7 10 10 8 10 12 14 18 19 19 19 21 21 22 22 23 25 27 21 20 19 17 17 18 21 20 16 15 16 15 15 17 19 21 25 28 30 31 27 25 23 21
15 11 11 13 12 11 9 8 9 9 9 10 11 13 14 14 15 17 17 18 21 22 24 22 21 25 24 23 23 23 29 23 17 16 15 19 22 21 21 15 13 14 14 15 17 20 22 25 28 26 23 25 25 24
11 13 14 14 13 10 7 6 5 5 6 6 7 10 13 15 16 16 17 19 20 22 23 24 22 25 26 26 28 32 32 32 24 12 17 19 20 21 22 20 14 11 13 14 15 17 19 22 24 24 19 22 22 24
15 16 15 14 13 10 8 5 3 5 8 10 12 14 14 17 19 16 18 19 26 29 28 26 27 39 31 20 28 35 33 21 17 20 19 20 17 20 21 22 18 16 13 11 14 15 16 18 20 23 22 18 19 20
14 15 14 14 13 10 8 6 8 12 15 13 14 17 19 22 24 22 22 27 29 28 30 34 43 40 23 30 31 33 26 15 18 19 21 20 16 17 17 16 18 19 16 14 10 13 14 16 17 19 22 19 16 17
13 13 13 12 11 11 11 12 16 16 14 19 19 14 18 20 20 19 21 26 29 29 33 28 18 12 14 21 13 20 22 19 21 19 19 17 16 16 17 16 17 18 20 18 14 10 12 13 15 16 18 20 18 14

GFSWCAN_500_spd_084.txt.gz
Wind_Speed
37 37 39 38 37 32 24 18 16 14 14 3 22 15 11 6 3 2 1 0 2 4 4 4 6 6 5 5 4 3 1 1 2 3 6 7 13 15 15 17 18 18 19 19 21 22 25 41 36 35 37 41 48 48
38 41 39 39 33 27 16 15 15 14 13 5 24 19 15 8 3 2 2 2 2 3 5 5 6 8 8 8 9 9 8 8 7 7 7 8 8 9 11 16 19 23 25 24 29 32 32 35 32 31 29 30 33 37
38 40 36 33 28 16 16 14 15 12 11 5 26 21 16 14 10 5 5 5 5 3 3 2 12 8 7 5 5 9 9 11 13 15 16 16 16 16 15 15 14 16 19 24 29 31 32 33 27 26 32 34 36 38
35 35 31 27 18 17 17 16 11 13 9 3 22 14 12 11 11 7 5 5 5 5 3 6 12 7 5 7 11 11 12 13 14 15 17 20 23 23 23 23 22 25 19 20 22 26 27 30 34 34 34 36 36 39
33 30 25 21 19 19 19 15 11 13 15 3 19 13 10 10 9 7 5 5 6 6 6 9 12 9 12 13 13 13 14 15 15 17 20 24 29 23 25 31 30 32 30 29 29 30 26 25 23 24 27 34 37 37
32 27 21 21 19 19 18 12 10 10 14 5 16 10 10 9 8 6 4 6 6 5 8 13 12 13 13 14 13 14 12 14 14 14 14 18 19 22 23 26 30 33 37 33 33 35 30 30 28 28 27 26 27 32
28 23 20 22 21 19 18 13 10 8 11 4 11 8 9 8 6 4 4 4 4 4 10 14 14 15 16 14 13 14 16 16 16 15 16 17 17 20 22 24 27 28 31 34 32 35 33 34 36 34 33 32 30 29
24 22 20 24 21 19 18 11 9 7 6 10 8 8 8 7 5 3 2 1 2 9 14 14 16 15 15 14 12 15 16 16 16 15 15 15 16 18 20 21 24 27 32 31 34 36 37 37 38 40 38 37 35 36
22 20 20 23 22 19 16 10 10 5 5 11 9 9 9 7 4 3 2 5 7 15 12 14 17 18 16 15 17 17 19 16 17 17 14 13 15 15 17 17 18 19 21 34 35 31 30 35 37 38 38 41 42 43
19 19 20 18 18 14 12 14 8 6 14 11 10 10 9 5 3 4 6 7 11 12 16 16 16 13 16 17 17 17 17 17 18 17 15 14 13 15 16 16 15 16 15 18 19 23 25 26 30 36 38 37 38 41
18 18 17 16 15 12 10 6 7 9 16 12 11 11 9 5 3 3 5 8 10 12 13 13 13 15 16 17 17 15 16 17 18 18 20 17 17 18 15 15 16 17 18 18 18 22 26 26 25 28 30 31 35 35
17 15 14 13 12 10 10 12 8 19 15 13 12 11 8 4 1 2 6 7 9 13 16 15 15 13 15 15 15 16 14 16 18 19 16 18 18 16 17 18 19 20 22 22 22 23 24 24 26 28 29 31 33 32
14 14 13 9 8 8 10 8 17 19 16 14 14 11 6 5 1 2 7 10 12 13 15 11 13 13 14 12 13 13 14 15 14 14 17 16 16 14 18 19 19 19 19 21 22 24 25 26 27 28 28 29 29 33
13 12 10 9 10 10 9 17 20 17 15 16 14 10 6 4 2 3 7 13 15 16 15 12 13 13 14 12 13 12 14 14 14 13 17 18 18 19 19 19 19 21 21 21 20 23 24 25 27 28 29 30 30 31
8 8 8 7 8 9 19 21 18 16 16 15 13 10 7 5 5 2 6 11 14 16 14 11 11 12 14 14 16 17 15 18 20 17 21 17 18 19 19 20 21 21 21 22 23 23 25 27 29 30 32 33 30 33
8 7 4 2 10 16 16 17 18 16 14 13 13 11 8 4 2 5 6 10 14 16 16 12 13 15 17 17 17 20 18 16 17 20 21 19 18 19 20 21 21 22 22 25 21 20 24 28 33 36 38 40 39 40
10 9 8 10 11 12 13 16 17 16 14 13 14 12 9 7 9 6 7 9 15 19 21 17 14 15 19 18 17 17 20 21 19 21 18 20 22 21 21 21 23 23 24 26 21 23 28 27 26 30 31 35 41 45
11 11 11 13 14 11 14 16 17 16 14 13 15 14 10 8 8 8 9 12 16 15 17 15 16 15 16 19 21 19 19 21 20 21 24 20 20 21 21 21 23 24 23 26 23 24 27 25 25 23 30 24 26 30
12 11 11 13 15 11 14 16 16 15 14 14 15 14 12 11 11 10 9 13 13 13 16 17 16 14 21 24 21 22 22 21 24 21 19 21 22 21 20 21 22 23 23 24 24 24 27 26 22 20 26 18 8 10
9 6 7 10 10 9 11 15 15 15 14 14 15 13 11 11 11 12 11 10 8 9 12 15 14 14 18 22 19 20 20 20 21 23 21 18 18 19 20 21 23 23 23 23 24 25 24 26 25 18 17 13 12 7
9 7 6 7 8 9 12 14 15 15 14 13 14 12 12 9 8 8 11 9 7 8 13 14 16 22 19 21 17 18 21 20 20 21 24 24 22 22 20 19 20 20 21 23 24 24 25 24 24 21 15 15 11 10
11 11 12 8 6 9 12 14 14 13 13 13 13 13 12 11 9 9 9 11 12 15 16 12 13 14 16 18 18 18 20 21 20 19 21 22 22 22 21 21 20 17 19 20 23 24 25 25 23 20 18 15 14 12
12 11 10 11 12 9 12 13 14 13 13 12 13 11 10 10 9 12 11 11 12 15 18 14 16 20 19 18 18 19 20 19 19 19 19 19 19 19 20 20 19 18 16 17 21 23 25 26 24 22 19 16 15 13
14 14 12 10 11 12 13 14 14 14 11 11 10 10 12 16 9 11 12 9 12 17 16 17 19 18 19 20 19 21 22 19 17 19 19 19 19 19 18 18 19 18 17 18 20 22 24 28 27 26 22 19 16 14
15 15 14 12 12 12 15 15 15 14 12 9 7 7 8 10 13 14 11 18 19 13 17 22 21 19 19 20 20 22 23 22 19 20 20 20 20 21 20 18 17 18 18 17 18 22 27 29 29 28 26 23 21 18
16 13 13 13 16 15 15 16 15 16 13 8 8 9 12 17 23 10 6 11 12 13 15 20 22 22 24 24 24 22 24 25 25 22 21 21 19 21 21 19 17 18 18 19 18 20 24 28 28 24 25 25 24 21
12 13 13 12 17 14 15 17 15 12 12 12 8 12 14 17 12 9 14 8 7 13 20 24 24 27 24 20 20 22 23 23 25 29 20 17 19 20 22 22 22 18 17 19 19 19 21 25 26 23 24 24 24 22
14 11 12 14 15 14 15 14 13 13 10 10 7 10 14 11 13 16 10 14 21 20 20 24 25 26 27 27 24 26 28 31 34 34 25 16 15 18 20 22 25 22 15 16 18 18 19 21 24 21 20 21 22 21
12 11 14 14 13 13 12 11 11 11 11 10 12 18 10 8 13 19 22 21 24 22 22 20 24 28 30 30 29 40 34 30 31 22 17 14 14 17 20 23 23 20 15 15 14 17 17 18 20 22 18 19 19 19
13 15 13 13 13 12 11 9 9 8 7 8 10 12 12 19 16 19 20 21 27 20 19 26 29 26 29 32 35 40 41 35 18 11 12 13 17 19 20 20 18 17 18 17 14 13 15 16 17 21 20 14 16 16
13 12 14 14 14 13 11 8 6 5 5 7 11 16 20 22 16 15 21 25 29 27 26 29 31 33 41 33 31 22 23 16 15 11 12 14 17 18 17 18 20 20 19 17 14 13 11 13 13 14 18 20 16 17
11 13 14 16 14 11 10 9 8 9 13 17 23 22 19 22 25 18 16 19 21 24 26 26 25 26 26 22 25 21 16 12 14 17 17 16 15 15 16 16 17 17 17 17 15 13 11 10 12 14 16 18 19 15
13 14 14 13 12 11 11 11 12 18 25 27 24 14 15 18 15 17 19 21 23 24 24 23 22 23 24 23 21 17 15 13 17 21 19 17 15 15 16 15 16 17 16 17 17 17 11 9 9 12 14 16 18 18

GFSWCAN_500_spd_087.txt.gz
Wind_Speed
38 38 39 40 38 32 27 23 18 18 14 13 9 17 12 9 6 3 3 1 2 2 3 5 6 8 8 7 7 6 6 5 3 2 6 5 7 8 11 14 14 13 16 20 29 54 51 59 48 33 31 37 47 48
36 38 38 38 33 27 22 20 19 18 14 13 11 20 14 11 6 1 1 2 4 4 4 4 7 8 7 7 7 7 8 9 10 7 5 4 5 10 16 18 17 20 17 18 22 24 30 41 50 52 31 38 41 44
35 35 37 35 27 24 21 19 21 16 17 9 11 23 18 14 8 5 4 4 5 5 4 3 9 9 6 5 5 8 8 10 12 13 13 14 15 14 14 15 13 19 19 22 21 24 27 26 26 28 44 43 38 39
32 33 35 32 24 21 19 19 20 10 14 13 10 26 22 15 13 11 7 5 6 6 4 5 9 10 7 7 11 13 12 13 13 15 15 18 19 17 20 21 21 24 19 19 22 26 30 29 29 27 29 32 34 39
33 32 32 28 23 20 19 18 17 11 11 15 9 22 18 13 11 9 6 5 7 7 6 7 12 10 9 11 12 12 13 12 11 13 16 18 19 21 21 23 27 30 29 26 28 29 30 28 24 22 26 31 34 36
32 32 28 23 22 22 20 19 18 14 11 13 7 20 13 11 9 8 5 6 7 7 6 9 13 12 12 12 13 14 12 12 11 10 11 11 14 17 17 18 24 24 27 32 32 34 34 34 32 29 27 27 27 27
30 28 24 21 22 20 20 19 17 14 12 9 9 14 11 11 9 6 4 5 5 5 10 14 10 13 13 12 13 12 13 12 13 12 12 12 14 15 16 19 24 24 24 28 29 33 35 37 39 37 36 33 33 33
27 25 21 20 21 20 19 17 14 11 12 5 13 11 11 10 9 6 3 2 3 7 14 13 15 15 10 12 12 12 11 14 14 12 12 11 12 14 16 18 19 22 23 25 29 31 31 34 38 40 38 38 37 38
25 21 20 18 20 16 15 12 11 11 10 12 12 12 12 11 8 5 2 4 6 11 13 16 16 11 14 13 15 14 13 12 11 13 10 10 13 13 15 17 19 19 19 19 20 27 34 37 35 38 42 41 40 39
20 17 18 18 18 14 13 9 11 10 10 15 13 13 13 9 5 4 2 4 7 8 11 13 12 13 13 11 14 16 15 15 13 11 12 12 10 12 13 15 16 16 17 18 17 18 19 21 29 36 37 36 36 40
18 17 18 14 15 12 11 7 7 7 12 15 13 13 12 7 3 1 2 3 5 6 10 9 11 11 12 15 13 14 15 14 14 15 14 13 13 11 9 10 13 15 18 19 20 19 19 19 23 25 26 28 30 31
16 16 15 13 13 11 9 9 8 8 18 16 15 15 11 7 5 2 3 4 6 9 10 7 9 12 14 13 14 14 13 15 15 17 14 15 15 15 11 16 16 17 19 18 18 21 22 22 23 23 25 27 29 32
14 12 12 13 12 9 9 9 7 16 19 17 16 14 10 9 6 3 2 6 10 9 7 6 10 11 13 13 13 14 13 15 13 13 12 14 14 14 16 17 18 18 17 17 20 21 21 22 25 26 27 28 29 30
11 10 10 9 9 12 12 8 12 22 18 18 16 13 11 10 6 2 4 8 12 16 13 8 9 13 15 14 13 13 13 13 13 14 14 14 18 19 20 20 19 20 20 21 19 20 21 22 23 25 27 29 31 31
10 9 8 7 8 10 10 11 22 20 19 18 16 14 10 9 8 4 4 8 13 16 14 10 11 10 12 14 14 15 17 19 19 15 15 17 17 19 19 19 19 20 22 22 23 24 18 17 20 23 26 31 34 36
10 10 9 8 6 5 11 20 20 17 17 17 17 14 11 11 9 7 2 6 9 12 15 13 11 12 15 16 18 18 18 18 19 18 15 16 18 18 19 19 19 20 21 21 21 23 21 21 23 26 27 29 35 40
10 9 9 8 5 12 16 17 17 16 15 17 16 15 14 10 9 6 4 4 10 12 13 13 12 11 10 12 18 17 19 22 21 20 22 20 22 22 20 21 21 21 22 22 22 24 24 23 23 24 25 26 26 35
10 10 11 11 14 15 16 16 18 19 18 16 16 16 15 11 10 7 5 5 9 12 12 13 15 14 10 17 19 17 20 21 21 20 21 21 20 21 21 21 21 21 22 23 22 23 23 23 23 23 24 21 22 23
11 12 12 12 14 18 18 19 19 21 20 18 17 17 17 15 12 13 12 9 11 13 12 12 14 16 12 15 18 14 17 24 22 18 19 22 22 20 20 20 21 21 19 20 21 22 23 25 26 26 24 21 18 17
11 11 10 10 11 16 15 17 20 20 20 18 15 15 17 16 15 17 15 15 14 10 12 15 16 15 14 14 17 16 17 19 24 25 18 13 20 21 22 21 20 19 20 18 21 22 24 26 28 28 26 21 21 16
11 9 9 6 6 9 11 14 16 19 18 15 15 16 16 16 15 14 16 17 11 12 14 16 13 12 14 14 13 14 18 21 21 23 27 23 22 20 21 22 22 22 19 18 19 22 25 28 30 30 27 23 20 17
11 10 11 9 9 10 12 14 16 16 15 16 15 17 17 17 16 14 17 13 13 13 14 15 14 13 16 17 16 17 18 21 24 23 25 26 25 26 24 24 22 21 22 20 20 22 25 29 33 33 29 25 19 16
12 11 10 9 11 10 10 12 15 16 15 15 15 15 16 16 17 18 16 16 15 18 15 11 10 11 13 12 15 17 21 21 23 24 25 26 26 25 23 26 25 21 20 20 20 21 24 28 32 31 30 29 21 11
13 13 13 12 10 9 14 13 15 15 15 14 13 14 17 18 19 16 19 20 23 18 22 18 15 13 15 16 17 21 24 26 24 25 26 27 26 27 24 24 26 24 21 21 20 21 22 24 28 29 28 27 25 19
15 15 13 13 13 9 16 15 15 15 15 14 14 13 14 18 18 19 14 23 18 17 13 14 14 16 16 18 19 23 25 25 24 24 28 30 35 24 24 23 24 25 23 18 19 19 21 23 26 27 25 25 23 21
14 13 13 14 15 13 14 16 15 15 16 15 14 10 12 16 16 16 19 16 18 13 17 11 17 16 18 20 17 15 22 23 24 27 31 33 31 25 19 19 21 23 24 19 17 18 19 20 22 22 21 22 22 21
12 13 15 14 14 12 15 15 16 14 14 16 14 12 11 10 7 7 15 13 1 11 16 16 19 21 20 23 26 24 23 27 30 33 42 33 25 20 16 17 18 18 22 19 17 16 16 16 18 20 19 19 19 18
15 13 13 12 12 12 16 15 14 13 12 12 11 12 16 15 15 11 8 8 6 13 15 17 22 23 23 28 32 31 31 34 37 41 40 30 16 11 12 17 17 18 18 19 18 18 16 15 16 17 19 17 16 16
12 12 11 10 11 12 12 13 13 14 15 15 14 15 17 12 15 14 19 16 13 13 19 26 22 22 23 27 28 32 29 26 28 26 23 20 9 9 13 16 17 16 17 19 18 17 14 13 14 15 17 19 17 17
11 11 9 10 11 12 12 12 12 11 11 14 17 17 14 17 22 22 20 18 21 25 26 23 21 22 23 21 27 22 23 27 26 21 14 16 9 10 14 13 15 16 15 16 17 18 15 12 12 13 15 19 20 14
7 10 12 11 12 13 12 10 10 10 11 15 11 13 16 20 21 24 23 24 25 19 20 21 21 22 24 21 23 24 23 22 17 13 11 15 11 10 12 12 14 14 13 14 15 18 16 12 10 11 12 14 17 17
10 10 11 14 15 14 12 11 10 12 10 13 17 23 25 26 23 28 18 11 14 18 19 20 19 20 22 22 21 19 17 16 13 13 19 19 14 11 11 12 14 14 14 15 16 16 16 13 10 9 9 11 14 18
12 14 14 14 15 13 11 10 11 10 14 21 23 27 21 14 9 9 11 12 14 16 17 19 19 18 18 18 18 20 20 20 19 18 17 17 13 12 14 15 15 15 15 15 15 16 17 16 10 8 9 10 12 15

GFSWCAN_500_spd_090.txt.gz
Wind_Speed
37 34 35 36 36 36 30 24 21 21 21 16 11 12 14 10 7 6 5 4 2 2 2 3 6 13 8 6 5 5 5 4 4 4 3 4 5 10 13 9 9 8 17 18 24 33 35 38 33 32 36 40 41 42
36 33 35 35 36 33 25 22 19 21 16 17 9 14 15 11 7 5 3 3 4 4 4 5 5 12 10 5 3 4 5 6 7 7 6 5 4 7 10 12 13 13 12 13 16 18 35 42 34 26 41 40 38 40
33 32 35 35 34 29 23 19 17 20 12 14 12 13 19 15 9 4 2 4 4 3 3 6 7 12 11 8 5 7 11 10 9 8 10 12 11 11 11 11 12 11 13 16 18 19 22 22 23 42 40 31 40 47
33 33 34 35 32 24 19 18 16 17 13 12 13 7 22 17 14 11 9 8 6 4 2 7 9 13 11 10 10 12 12 11 12 13 13 10 12 14 16 18 20 18 17 16 17 21 23 24 22 21 26 36 47 49
31 33 34 32 27 22 19 19 16 16 14 15 14 8 18 16 16 14 12 10 6 6 4 6 7 13 11 11 12 12 11 10 10 11 13 13 12 12 14 19 23 25 24 25 25 25 23 20 21 23 25 28 31 35
32 32 31 28 24 22 20 19 17 17 13 13 13 9 13 16 14 12 10 9 7 5 1 5 11 9 11 13 11 10 12 10 11 10 12 12 12 13 14 16 18 20 21 23 26 30 33 33 30 25 25 31 34 38
31 31 29 24 22 21 20 19 17 16 12 10 11 8 17 11 11 9 9 7 4 3 5 10 11 12 12 10 8 10 11 11 11 12 10 12 11 12 14 15 16 18 21 22 24 26 28 32 37 36 33 32 33 33
29 29 27 25 22 18 18 15 14 9 9 8 6 14 12 11 9 8 6 3 3 6 10 11 12 10 8 8 9 9 11 10 8 9 9 11 11 10 13 16 18 19 20 21 22 24 27 31 33 35 38 39 39 39
28 27 26 22 19 19 18 14 11 7 8 6 11 12 12 11 9 6 4 4 5 6 8 10 8 7 7 10 10 9 10 10 10 10 9 9 10 9 11 14 16 19 21 21 21 22 23 25 31 34 35 37 39 40
26 26 22 19 19 19 15 13 12 9 6 6 14 12 12 12 8 6 4 4 5 6 9 8 5 7 9 9 11 13 12 11 12 10 10 9 8 8 10 8 10 13 17 20 20 20 22 22 23 24 29 37 40 37
25 22 19 18 16 16 14 13 8 6 6 15 16 15 14 11 8 5 3 2 4 7 9 6 8 10 10 10 10 13 14 14 14 12 10 8 10 11 11 13 11 12 11 15 18 19 21 23 23 24 25 27 28 33
23 19 17 15 13 14 12 9 7 9 9 18 16 17 16 12 8 5 2 3 5 5 4 3 7 10 10 11 11 12 13 12 14 13 11 11 11 10 11 12 13 14 15 14 14 16 18 20 21 23 26 27 28 30
18 17 16 14 13 13 12 11 9 8 17 19 18 18 16 12 10 6 5 3 5 5 2 2 6 9 11 12 12 12 13 13 12 12 12 14 15 14 11 13 14 14 14 15 15 16 18 20 21 22 24 26 27 30
15 14 14 11 8 10 12 11 10 11 22 20 19 19 16 14 12 9 4 2 6 6 3 2 4 7 10 11 13 12 13 12 9 12 13 15 16 16 16 16 16 17 17 16 16 16 18 19 18 18 20 22 24 27
13 13 11 8 7 8 9 10 10 19 24 21 20 20 17 15 13 9 4 1 2 4 7 5 4 8 9 9 10 10 10 10 13 15 16 17 18 18 18 17 17 18 19 20 20 19 18 19 19 19 21 23 25 28
14 12 10 8 7 6 7 9 16 23 21 20 20 18 15 13 12 11 8 2 6 6 6 9 9 9 9 9 12 16 12 10 11 13 15 16 17 17 17 17 17 16 18 18 19 20 20 21 22 22 22 24 26 28
13 12 10 9 6 3 4 12 19 20 18 18 19 17 15 13 15 15 11 7 7 6 7 8 9 11 11 11 14 15 12 11 11 14 18 20 21 20 21 21 20 19 19 18 19 19 19 20 22 24 26 26 27 29
13 12 9 9 8 6 9 14 17 18 17 17 18 19 19 17 16 15 13 11 12 10 8 9 10 11 11 10 14 15 12 11 13 15 18 21 22 20 22 22 22 23 23 20 19 19 19 20 22 26 29 30 29 29
13 11 10 10 9 11 17 18 18 18 20 18 17 16 18 19 18 18 18 16 15 16 12 11 11 12 14 12 13 15 16 17 14 15 18 19 25 25 22 22 22 23 23 23 22 20 22 23 24 29 34 35 31 30
13 12 10 10 10 10 16 20 20 21 22 22 20 17 18 19 21 22 22 21 19 18 16 13 15 16 17 14 12 15 20 19 18 16 15 17 21 25 26 23 24 24 24 23 21 22 24 24 26 30 35 37 35 32
13 11 9 8 6 6 12 15 15 19 20 18 21 19 17 19 20 20 21 22 19 18 17 16 17 19 18 16 15 16 18 19 21 20 19 17 18 23 27 26 22 24 27 24 23 22 22 24 28 31 34 34 34 27
12 10 9 8 5 7 8 10 13 14 17 20 21 19 18 19 20 21 23 20 17 17 19 19 20 19 19 20 17 19 20 20 20 23 23 21 22 24 26 27 22 23 25 24 23 22 22 22 25 28 30 29 28 23
12 11 9 8 7 10 11 9 12 13 16 19 17 15 16 19 19 21 21 22 21 21 20 19 18 24 17 15 18 18 21 22 21 22 21 22 23 25 26 24 20 22 24 23 24 22 20 19 23 26 27 25 24 21
14 13 12 9 9 8 7 14 12 13 15 15 15 15 15 15 18 19 20 23 25 23 26 28 17 14 9 12 16 18 19 18 17 20 22 25 30 31 27 24 18 20 20 21 22 20 19 19 20 22 24 21 21 19
16 15 12 10 11 11 10 10 14 13 14 14 13 10 9 12 13 14 21 22 29 23 27 34 15 14 10 9 16 18 16 17 19 22 28 31 35 42 32 21 15 17 19 19 19 16 16 16 17 19 21 21 20 18
16 11 11 12 12 11 11 9 13 13 14 13 13 10 11 11 12 13 10 12 14 17 10 7 9 14 11 10 9 16 22 24 25 26 30 33 31 31 35 22 12 14 16 18 17 15 15 15 16 17 20 23 20 20
13 12 12 10 11 12 12 12 15 14 12 11 11 13 13 11 7 9 10 13 9 7 9 12 12 17 14 13 13 12 18 24 22 22 24 26 30 27 25 18 10 13 16 16 17 17 15 14 15 15 16 19 19 18
13 13 11 9 11 11 12 14 16 14 14 11 8 14 12 15 16 15 12 17 6 7 9 12 10 20 28 23 15 16 21 26 25 23 29 31 35 25 18 14 11 11 14 15 17 16 16 15 12 13 14 16 19 17
13 10 8 9 10 11 13 13 13 14 17 15 11 11 13 15 14 14 16 21 20 22 16 24 22 19 18 17 18 19 23 25 26 27 26 24 20 17 15 16 15 12 14 15 14 15 16 16 12 11 12 14 17 20
8 9 10 9 8 10 12 13 12 12 10 8 8 9 8 8 10 15 18 23 26 19 24 19 14 15 19 20 21 19 21 26 25 25 22 17 12 13 14 18 15 12 14 14 12 13 14 16 13 11 11 12 14 18
8 9 10 12 13 10 9 8 7 7 4 2 4 6 10 16 22 21 24 22 20 19 15 18 20 19 19 21 22 22 21 21 20 19 16 17 16 16 15 14 15 12 12 14 13 13 13 15 16 11 10 10 12 13
8 11 10 9 8 10 9 8 6 4 5 7 10 14 18 22 19 13 9 8 10 14 16 17 20 21 23 24 24 24 23 23 21 18 16 15 14 13 13 12 12 14 13 12 14 15 15 15 18 15 9 8 11 13
11 9 9 9 8 6 4 3 4 8 12 15 18 17 13 11 8 9 12 13 14 16 19 20 20 20 19 19 19 18 16 15 14 13 13 14 14 13 14 15 15 14 15 14 13 13 12 13 14 15 11 11 9 10

GFSWCAN_500_spd_093.txt.gz
Wind_Speed
38 34 31 30 31 31 33 28 24 20 21 19 17 10 6 9 9 6 5 6 3 3 5 6 6 10 7 6 6 5 5 5 5 3 2 3 4 7 12 11 7 8 9 14 19 25 33 23 35 49 49 43 41 40
38 34 33 30 31 32 30 26 21 18 19 17 14 8 11 10 8 6 5 4 3 4 8 7 5 8 12 8 6 6 6 7 6 6 6 5 4 5 9 10 12 8 7 9 14 16 19 23 25 30 28 37 43 41
36 34 33 31 31 31 28 24 20 19 17 15 15 11 14 13 10 7 4 3 4 4 8 8 8 10 12 11 8 9 12 13 11 9 8 8 8 10 10 8 10 11 10 13 15 14 14 15 19 26 28 30 36 40
37 34 31 31 30 29 25 23 18 18 17 17 16 15 10 18 14 11 8 7 6 6 9 8 9 9 14 13 12 13 13 14 12 10 10 10 11 12 13 13 15 15 15 12 13 13 14 16 15 16 21 36 33 42
37 33 31 31 30 25 23 21 17 17 17 16 14 14 11 17 16 16 12 11 9 7 9 10 9 13 13 15 14 14 12 11 11 9 9 11 12 13 14 15 16 17 19 20 20 20 18 15 18 19 21 26 30 43
33 30 31 30 27 23 21 18 17 19 18 14 12 13 11 13 16 18 12 10 8 8 6 5 11 11 14 14 12 9 10 10 11 12 11 11 12 12 12 14 16 16 17 19 21 24 25 27 25 22 22 27 31 31
30 30 30 29 25 22 20 15 17 18 15 9 9 11 6 11 13 13 10 7 6 5 5 9 10 12 10 8 9 11 11 12 12 12 12 10 10 12 13 13 14 15 17 18 21 23 24 25 25 26 29 30 31 32
31 31 30 28 24 21 16 15 17 17 12 8 8 7 11 13 11 9 7 5 4 4 5 7 10 8 6 7 10 11 11 9 10 11 10 11 10 9 10 11 12 14 16 18 21 23 25 26 27 29 29 30 35 38
31 30 29 26 22 18 15 16 16 15 11 10 6 10 14 11 10 8 7 5 4 4 4 7 6 6 7 9 9 9 10 11 12 11 9 10 10 9 9 10 11 12 13 15 18 21 23 24 26 28 28 29 34 36
30 30 27 24 21 17 16 15 15 12 11 9 9 14 12 12 11 8 6 3 3 3 5 5 5 8 8 8 9 11 12 12 13 13 12 10 9 10 9 9 9 9 10 12 14 15 18 21 24 26 28 28 28 33
30 27 24 22 19 16 15 15 14 11 9 9 14 15 14 15 11 8 4 3 3 4 4 1 4 6 7 8 8 10 11 12 13 13 13 12 11 11 9 8 10 12 15 15 15 15 17 18 18 22 27 29 29 29
28 24 22 19 16 14 15 14 12 12 11 11 17 16 17 16 11 8 5 3 3 5 3 2 3 6 7 8 9 9 10 11 12 12 12 12 12 11 10 10 10 12 13 15 16 17 18 19 20 21 23 26 28 30
24 21 19 15 14 15 15 13 13 11 12 14 20 19 21 16 12 9 5 1 2 3 3 4 3 5 7 9 10 9 10 13 14 14 12 12 11 9 9 11 12 12 12 13 15 17 17 17 18 18 18 19 21 26
21 18 15 14 13 13 14 13 15 15 14 20 22 22 22 18 15 12 8 4 1 3 4 4 6 8 8 8 10 12 12 13 15 15 14 14 15 14 14 14 14 13 13 13 13 14 15 15 16 17 17 17 19 22
17 14 14 14 10 10 11 13 15 16 17 23 24 24 23 19 18 15 10 6 4 2 3 3 5 8 8 7 9 12 11 14 15 15 15 14 15 16 16 17 17 17 16 15 15 15 14 14 15 16 17 18 18 19
15 12 12 11 11 9 11 13 14 18 22 26 26 25 23 21 19 18 16 12 9 6 5 3 3 7 8 8 8 9 10 11 14 17 17 16 14 15 16 16 17 18 18 18 18 17 15 15 15 16 16 18 21 24
12 11 10 10 9 7 9 10 13 19 24 25 25 23 23 22 23 23 20 15 11 10 10 8 6 6 8 10 11 12 12 12 14 16 18 19 17 17 18 19 19 19 19 21 20 18 18 18 18 18 20 24 28 31
12 11 9 9 8 6 6 6 12 19 21 24 23 24 24 23 21 19 17 19 18 17 15 11 11 11 12 13 13 13 14 15 15 15 16 18 19 20 20 20 21 21 20 22 23 21 21 23 23 22 24 27 32 36
13 10 8 10 9 9 11 12 14 17 21 22 22 22 23 22 21 21 21 21 22 19 17 15 15 16 18 19 16 15 16 16 17 17 18 20 20 23 25 24 24 24 23 23 24 23 21 22 23 24 27 28 32 34
13 11 10 10 10 10 13 19 22 21 23 22 22 21 22 23 24 24 24 23 23 23 22 21 20 22 20 21 21 19 19 19 19 19 22 24 25 26 28 28 28 28 27 24 23 24 22 22 23 24 24 26 28 29
14 13 11 10 9 9 10 14 19 23 21 21 23 22 22 22 21 23 27 28 27 26 22 22 22 23 23 20 22 21 21 23 24 24 25 26 29 30 31 30 28 29 28 23 20 22 24 22 21 20 21 25 26 25
12 12 11 9 8 8 5 8 14 14 15 20 24 22 21 21 23 24 26 27 23 21 22 23 23 21 22 22 25 24 24 26 24 24 28 30 30 31 30 33 34 36 33 25 18 18 22 21 19 17 19 23 24 24
11 10 9 8 10 11 11 11 10 11 13 16 18 18 18 20 20 19 19 20 21 23 24 26 26 24 26 28 27 27 24 24 24 26 28 26 29 29 29 28 34 36 37 25 16 17 20 19 17 16 17 21 22 22
15 12 8 8 11 13 12 12 12 10 12 14 14 15 15 15 15 15 15 18 20 21 22 27 30 30 30 32 25 23 22 22 22 25 25 26 27 28 32 31 36 34 33 21 16 17 18 17 17 17 16 18 19 21
17 15 11 11 12 14 15 12 8 12 11 11 12 12 13 13 12 11 12 17 20 19 18 21 24 28 31 32 30 21 23 20 19 18 19 19 22 27 31 31 36 30 20 19 15 18 17 16 18 18 16 16 17 16
17 15 13 13 14 14 13 11 6 10 10 11 13 13 11 10 8 10 11 11 9 12 18 15 13 14 10 13 23 26 22 21 21 21 20 23 28 31 34 34 32 22 17 14 15 16 15 15 16 17 15 15 16 19
12 14 14 12 12 13 13 13 12 11 12 12 11 10 11 10 9 7 10 11 12 12 11 15 15 12 15 13 17 28 29 21 26 24 18 24 29 35 35 29 22 15 14 14 15 14 15 14 16 15 13 14 15 18
14 15 15 13 13 13 13 12 11 9 10 11 11 10 10 12 14 13 15 16 16 18 16 14 16 18 24 23 22 19 20 23 21 22 32 30 29 33 28 17 14 15 16 16 15 15 16 15 14 15 13 12 14 16
15 12 10 11 11 10 10 9 6 8 11 13 13 11 9 9 11 13 14 14 17 19 19 16 18 23 22 18 20 21 23 22 20 22 28 29 26 21 14 14 15 17 18 17 16 16 15 14 14 15 14 12 13 14
8 10 10 9 8 8 5 6 9 10 10 11 12 11 9 10 10 12 17 23 25 24 21 15 14 15 17 18 19 20 20 19 20 18 19 20 18 18 17 16 17 16 16 17 16 16 15 15 13 14 15 13 12 13
8 6 7 6 5 7 9 8 6 5 7 8 8 7 7 10 15 20 21 15 11 10 9 11 14 17 20 21 20 18 17 17 18 19 19 19 17 16 15 15 15 16 17 16 15 14 14 14 13 14 17 12 10 12
9 9 10 9 8 7 5 5 4 3 4 4 5 8 11 17 16 12 9 10 12 14 15 17 18 17 17 17 17 17 16 16 16 16 16 17 17 16 16 14 13 16 18 17 15 13 14 14 13 14 15 15 11 10
8 9 8 7 8 9 7 4 3 3 5 9 13 14 16 15 9 10 12 14 15 15 16 14 13 12 12 13 12 12 13 13 14 14 15 15 15 14 15 14 12 14 16 15 15 15 14 13 13 14 15 15 15 12

GFSWCAN_500_spd_099.txt.gz
Wind_Speed
36 37 34 28 32 30 28 28 27 25 22 18 16 14 11 4 5 6 6 7 8 7 7 7 8 8 7 9 11 10 9 8 7 6 7 7 6 8 9 10 13 16 14 14 18 22 25 30 32 34 45 48 44 44
35 36 33 30 32 31 28 28 26 23 21 16 13 13 11 5 8 7 6 5 6 6 7 8 9 11 11 11 12 12 10 12 11 11 9 9 10 8 7 7 9 11 10 11 11 15 18 26 33 32 35 50 44 41
34 34 32 30 30 32 28 28 25 21 21 15 13 12 11 8 9 9 7 5 5 4 7 9 10 10 10 11 14 13 12 12 12 12 12 11 10 9 10 8 8 10 10 7 7 7 10 15 23 29 33 37 48 44
36 35 31 31 30 30 27 26 24 20 19 15 13 13 12 10 10 12 10 7 3 5 9 9 11 10 8 12 12 13 11 10 9 10 11 10 9 8 9 10 11 11 10 12 10 9 10 11 11 18 30 44 44 51
39 36 33 33 34 27 26 23 21 20 19 14 12 13 12 11 10 15 15 11 8 9 9 9 8 6 10 12 9 7 8 8 9 8 8 10 9 9 9 10 11 13 14 14 13 13 11 10 11 13 12 19 22 34
41 37 34 33 37 25 24 22 20 19 17 13 12 12 10 10 11 15 17 14 11 11 8 8 8 10 11 8 7 8 9 9 8 8 8 9 10 10 10 9 8 7 9 10 12 13 15 16 16 15 14 15 19 21
41 37 34 36 31 22 22 22 18 18 15 13 12 12 9 9 9 14 16 13 11 9 7 7 8 11 9 8 8 8 9 7 9 8 7 7 7 7 8 8 8 8 8 8 9 10 11 12 14 18 21 21 22 22
37 34 34 37 21 19 21 19 17 17 13 13 11 11 10 9 13 15 14 11 9 8 6 6 8 7 9 8 7 8 9 9 10 10 8 5 4 4 5 6 7 7 8 8 9 10 11 12 13 15 17 21 25 28
34 33 39 23 15 16 20 19 17 16 13 12 11 11 10 11 16 16 13 11 9 7 6 6 5 4 6 6 7 8 10 9 9 10 10 7 5 3 3 4 5 6 6 6 6 5 5 7 9 11 14 16 20 24
30 34 30 15 13 14 18 18 17 15 12 12 11 11 11 15 17 16 14 12 9 7 6 5 2 1 3 5 6 7 10 10 9 8 9 11 10 6 4 3 4 6 7 8 10 11 12 11 11 12 14 16 17 18
31 29 23 14 12 13 18 17 16 15 12 13 12 10 12 19 18 18 16 12 9 7 6 5 4 1 2 4 6 8 8 8 9 10 10 11 11 11 10 6 4 3 4 6 6 8 9 11 13 13 14 15 18 19
30 30 20 12 10 13 16 16 15 14 14 14 13 12 13 20 19 20 16 13 9 6 7 7 4 1 2 4 6 7 7 6 7 8 10 11 11 11 10 9 9 8 7 6 6 7 9 10 12 13 14 15 16 17
31 29 14 9 10 14 15 15 14 14 16 14 14 14 15 21 22 19 16 13 8 5 7 7 5 2 1 3 5 7 8 6 7 7 8 10 11 12 12 13 13 12 11 10 10 10 10 11 12 13 14 15 17 19
27 17 10 10 11 13 14 15 15 15 17 17 16 16 18 23 22 20 19 13 10 8 7 6 5 3 4 4 4 4 8 9 8 8 9 11 12 12 13 14 15 15 15 15 15 15 16 16 17 18 18 18 19 19
20 13 12 10 12 14 14 14 14 14 17 19 18 17 18 23 24 22 20 17 14 11 9 7 5 3 4 4 6 9 10 10 9 10 10 11 12 12 13 15 15 16 17 17 17 18 19 20 21 23 23 24 23 23
14 12 11 13 14 13 14 14 14 14 14 17 20 18 21 24 25 25 23 20 17 14 11 9 8 6 6 7 8 10 13 13 14 14 15 16 15 16 17 18 17 17 18 19 20 20 20 22 24 26 25 25 25 26
14 13 13 14 13 13 13 15 15 15 16 16 18 21 23 26 28 27 24 23 21 16 13 12 12 8 10 11 12 14 15 17 17 18 18 18 18 18 18 19 19 19 21 22 22 23 24 25 28 32 28 25 25 27
14 14 14 14 12 12 12 13 14 14 15 18 22 23 24 29 29 29 25 25 24 22 20 17 15 11 12 17 18 15 15 18 21 21 22 22 22 21 21 21 21 23 22 19 22 24 25 29 29 30 26 23 24 26
15 13 14 12 10 9 10 12 13 13 16 19 21 22 26 28 28 30 28 27 27 26 24 22 20 14 17 21 21 21 21 20 22 23 24 25 24 25 25 26 25 24 21 21 23 24 28 30 32 32 24 22 23 24
17 16 15 13 9 9 11 11 13 13 13 14 17 21 25 25 25 26 27 25 26 26 24 22 22 24 24 26 25 24 25 24 25 25 26 28 27 27 28 28 27 25 22 22 24 28 33 31 33 29 21 22 23 22
23 23 18 15 12 10 10 12 12 13 15 15 14 18 20 21 23 24 25 26 26 24 23 24 26 28 29 27 27 27 27 27 25 26 27 29 29 30 30 29 28 28 27 24 29 29 28 33 32 24 18 21 22 21
19 20 19 15 13 12 10 11 10 12 15 19 20 18 20 21 22 23 24 25 24 23 24 26 29 29 28 29 30 29 28 28 29 29 30 31 29 28 37 32 26 28 29 27 26 31 36 36 27 17 18 21 19 18
18 18 16 13 13 11 10 10 6 5 7 9 12 19 21 21 23 24 21 20 21 22 24 25 26 27 28 29 28 29 31 30 33 34 35 32 32 34 41 31 34 30 30 27 30 29 32 32 20 15 18 19 17 18
18 15 14 12 11 10 9 10 8 8 8 7 8 12 16 21 23 22 19 19 21 21 21 22 24 24 26 25 24 24 23 23 24 24 24 27 29 33 36 42 35 34 33 26 24 22 27 21 15 15 16 17 17 18
16 15 13 11 9 8 8 8 9 9 10 11 10 11 13 14 16 18 19 18 16 15 14 15 16 18 18 19 21 21 21 20 20 22 21 23 23 20 30 36 32 21 19 23 22 23 17 16 14 13 14 16 16 15
15 16 15 13 11 8 5 6 8 8 5 6 7 8 7 8 10 13 14 14 14 14 13 14 13 11 13 15 16 19 22 23 23 24 22 20 18 29 28 22 20 32 25 18 17 16 15 14 14 13 13 14 14 14
13 15 16 15 12 9 8 8 9 9 7 6 7 7 9 9 9 12 11 10 11 12 14 16 18 19 19 21 22 24 22 21 24 21 20 19 17 19 20 22 24 23 21 19 18 17 15 14 14 13 13 14 14 15
14 13 13 14 13 11 9 9 11 11 10 9 9 12 11 9 9 11 12 14 16 18 19 20 18 20 24 27 26 24 21 20 18 19 18 18 20 19 19 18 16 14 15 15 14 13 13 13 13 13 13 13 14 16
11 9 11 13 12 10 9 11 12 13 12 9 10 11 12 11 10 9 9 11 14 16 19 23 24 23 18 14 14 15 16 17 17 17 15 14 13 13 12 11 11 13 14 14 13 12 12 12 12 13 12 12 13 16
9 12 13 13 12 12 12 10 9 9 9 8 10 12 12 11 10 8 8 10 15 17 14 14 13 14 15 16 17 16 15 13 10 9 11 12 13 14 13 12 12 13 13 14 13 11 12 11 12 12 13 12 12 13
16 15 13 11 8 7 6 5 4 7 6 5 5 5 7 8 9 9 11 16 16 13 12 14 14 15 15 13 11 11 13 14 15 16 17 17 18 17 17 16 14 13 13 13 12 12 11 11 12 12 12 12 12 12
10 9 8 8 9 12 13 12 10 8 6 3 2 6 8 7 9 11 10 11 10 11 12 13 11 11 11 13 15 17 18 18 19 19 19 19 19 18 18 17 14 13 13 12 12 11 11 11 12 12 12 12 12 13
10 11 13 16 15 13 12 10 8 7 5 1 4 8 11 13 15 8 8 9 10 10 9 10 12 13 15 16 18 19 20 21 22 22 22 23 21 19 17 16 14 12 13 13 12 11 10 10 11 11 12 11 12 12

GFSWCAN_500_spd_102.txt.gz
Wind_Speed
33 32 31 31 29 28 26 26 26 27 24 22 20 14 11 8 8 11 11 11 12 12 8 7 8 10 10 11 11 10 10 9 8 7 8 9 8 9 11 14 17 18 22 18 19 20 25 29 32 31 33 39 45 42
37 34 34 31 30 29 27 27 27 28 23 21 19 15 11 9 8 12 11 9 10 10 7 7 8 9 11 12 13 13 13 12 11 12 11 10 12 11 10 9 13 15 23 21 22 22 23 24 28 31 34 36 40 44
43 41 37 33 30 29 28 27 27 28 23 19 18 15 13 10 10 12 12 9 8 7 6 6 7 8 10 10 11 13 13 13 12 13 13 12 12 13 12 11 10 12 13 18 17 17 17 20 20 24 31 34 37 42
40 41 42 37 31 30 31 26 24 28 23 18 17 15 14 13 12 14 13 11 9 6 5 6 7 8 5 8 10 11 8 7 8 8 10 10 10 12 12 11 12 12 11 11 15 10 11 13 12 15 18 26 30 31
44 38 39 40 35 30 30 26 24 26 22 18 15 14 15 13 13 14 16 15 12 8 7 6 5 5 8 9 7 5 6 7 7 9 9 9 8 9 11 12 12 12 13 16 14 14 14 13 11 11 10 17 28 33
45 43 38 37 37 31 28 28 27 25 22 17 14 14 15 13 12 14 17 18 14 13 10 6 4 5 7 6 5 6 7 7 7 8 9 9 9 11 11 12 12 12 13 14 15 16 17 16 16 14 12 12 15 30
42 42 38 36 34 32 30 26 29 23 21 16 14 14 15 14 12 13 16 18 15 15 11 5 4 5 5 3 4 4 7 6 7 8 7 7 8 8 9 10 10 11 12 12 12 12 13 13 14 15 15 15 15 14
37 34 30 30 32 32 29 31 26 20 19 16 14 14 14 14 12 14 19 18 16 13 9 4 3 3 3 2 2 4 6 6 7 8 9 6 5 6 7 8 7 7 9 10 11 12 12 13 13 13 14 15 17 19
33 29 26 29 29 30 32 32 19 18 18 15 15 14 14 14 13 18 20 18 14 11 9 5 4 2 1 1 2 3 4 5 6 7 10 11 7 3 4 4 5 5 5 6 8 9 9 9 10 11 12 14 16 19
30 28 27 24 27 33 39 24 18 18 17 15 16 16 15 15 15 22 21 18 15 12 9 7 7 4 1 1 1 1 3 5 6 7 7 9 11 9 6 4 2 4 5 5 7 8 9 11 13 15 15 17 20 22
27 26 27 28 25 32 30 23 17 18 16 16 17 18 17 16 19 24 22 18 15 12 10 10 8 6 3 2 0 1 1 3 5 6 7 7 7 7 8 9 7 5 2 2 3 4 7 9 10 11 12 13 14 15
28 28 27 25 25 31 27 19 17 18 17 17 19 19 18 18 23 26 23 20 15 13 11 11 9 7 5 3 2 1 1 3 4 6 7 8 8 8 8 8 7 6 5 3 3 3 4 6 8 9 11 12 14 16
26 24 25 24 24 31 21 16 19 18 18 19 20 19 19 20 25 24 22 18 16 14 13 12 11 9 7 5 4 2 2 2 2 4 4 5 5 6 7 8 8 9 8 6 5 5 7 8 10 11 13 15 16 17
24 23 20 25 29 27 20 19 19 18 19 21 22 20 22 20 23 22 24 23 17 16 14 13 12 11 8 7 6 4 2 3 3 4 5 6 7 7 7 7 7 8 7 7 7 8 8 10 11 11 12 16 18 21
22 21 21 27 29 22 18 20 19 19 20 21 22 22 21 19 23 24 24 23 20 19 16 15 14 12 9 7 6 4 4 5 6 6 7 8 8 8 8 8 8 8 9 11 11 10 11 12 12 14 18 21 22 21
21 22 26 27 23 16 17 19 19 19 18 20 21 21 21 21 25 26 27 25 23 21 19 17 14 12 9 7 6 7 8 9 9 9 10 10 11 11 11 11 11 12 13 14 14 13 12 12 13 17 17 22 25 24
25 28 28 25 17 16 18 18 18 18 19 16 17 23 23 22 27 29 29 27 26 24 21 19 17 15 13 12 12 12 10 10 12 14 15 16 16 16 17 17 16 17 18 21 20 18 18 18 20 18 19 23 26 25
30 23 21 19 16 16 16 16 18 17 17 18 21 21 22 24 29 30 28 29 27 27 25 23 22 17 14 14 19 15 14 15 16 19 21 21 21 20 20 21 22 24 22 20 21 21 22 22 20 22 24 27 28 26
19 15 11 14 14 13 13 14 15 16 18 20 21 21 22 25 28 30 30 29 30 30 29 28 25 15 16 21 24 22 21 20 21 21 22 24 24 22 22 22 24 30 30 25 20 22 23 21 23 23 25 29 29 23
30 25 16 13 13 12 12 13 13 14 14 16 16 18 21 24 28 30 30 32 31 30 31 27 24 23 26 28 27 25 26 26 26 28 27 28 28 27 27 26 31 30 37 36 31 24 24 26 26 27 32 32 25 20
27 26 23 14 12 10 10 10 10 12 11 10 12 14 18 23 25 27 28 29 31 30 27 25 25 27 28 27 28 28 29 30 30 29 29 32 32 33 32 33 34 29 25 38 36 27 24 29 27 30 32 29 22 20
20 17 18 16 12 12 10 9 9 10 11 12 13 13 14 18 18 22 24 26 24 24 26 27 26 27 28 29 30 32 33 33 32 31 32 33 35 35 37 37 36 37 37 40 28 27 26 26 25 26 30 30 22 20
21 19 21 22 19 13 10 8 9 8 8 9 11 15 19 19 19 20 21 20 21 23 25 26 26 25 26 27 29 31 30 29 28 29 29 28 28 27 27 28 33 31 27 27 28 23 22 14 16 28 31 23 20 19
20 20 20 17 13 12 12 10 10 7 6 5 6 6 9 19 21 18 17 19 20 20 20 20 21 22 22 23 25 26 25 25 24 22 23 22 23 23 21 24 25 30 37 28 13 21 16 21 31 25 19 19 19 19
17 16 14 13 14 13 10 10 11 9 8 8 9 8 10 12 14 17 19 20 18 17 17 17 16 16 18 19 17 17 18 20 21 22 24 26 25 25 18 17 17 18 16 20 31 18 15 19 18 18 18 18 17 17
16 16 16 16 13 10 8 8 9 7 2 1 6 7 8 8 8 10 12 14 15 15 14 15 16 17 17 16 17 17 18 20 22 25 24 25 23 21 20 22 18 19 22 20 16 12 13 15 15 15 15 16 15 16
17 17 17 16 14 11 9 8 9 11 9 5 6 5 8 6 7 6 9 10 10 11 13 13 15 17 19 20 20 20 24 26 24 23 21 18 19 20 20 20 18 16 15 14 12 11 11 12 12 12 13 14 14 14
14 16 16 16 15 13 11 10 11 11 11 10 7 9 12 12 11 13 13 11 12 13 14 16 17 18 20 22 23 20 15 14 15 15 17 18 18 17 15 14 13 11 11 12 11 11 12 13 12 12 11 13 14 13
14 13 13 13 15 13 11 11 10 11 12 13 10 9 12 13 12 11 10 10 9 11 12 14 14 11 10 11 12 14 15 15 15 14 12 11 11 12 12 13 13 13 14 14 13 12 13 13 12 12 12 11 12 12
10 11 12 14 14 13 10 8 8 10 11 12 13 15 14 12 13 10 8 8 10 12 16 18 11 9 11 13 11 9 8 9 11 12 14 14 15 15 15 16 16 16 17 16 14 13 13 12 11 11 11 11 11 11
15 15 14 12 9 7 7 7 7 7 8 7 6 6 7 8 10 11 10 10 13 14 11 10 11 12 9 9 11 12 15 16 16 16 18 18 18 18 18 18 18 18 17 15 13 14 14 12 11 10 10 9 10 11
9 8 9 9 11 11 11 11 11 8 5 3 3 3 4 6 6 8 14 18 9 8 10 10 9 10 12 14 16 17 19 20 21 22 22 21 20 20 20 19 19 18 16 15 14 14 14 13 13 12 10 9 9 10
13 12 12 11 11 12 11 10 10 8 5 3 4 4 5 6 7 7 8 6 7 7 8 10 12 14 16 18 20 23 24 24 24 24 24 23 23 21 19 19 18 17 16 15 15 14 14 15 14 13 11 10 9 9

GFSWCAN_500_spd_105.txt.gz
Wind_Speed
40 39 40 37 34 30 30 29 27 26 24 25 24 22 18 12 9 11 12 13 14 18 12 12 10 10 12 13 14 13 12 12 12 11 10 11 12 13 13 19 21 16 16 17 22 26 23 28 34 33 26 31 38 37
39 36 34 35 37 37 34 30 28 27 24 24 24 20 18 13 11 11 13 13 14 14 11 10 10 11 12 13 14 14 14 14 14 15 15 17 15 15 15 15 16 17 17 15 18 26 29 24 27 27 30 33 35 34
41 40 39 38 36 36 37 34 30 28 24 22 23 21 18 14 12 12 14 13 12 11 10 9 9 11 12 13 12 11 13 14 14 15 17 17 18 17 16 17 17 15 15 16 28 34 29 29 28 28 27 30 34 33
45 45 46 43 40 37 36 36 32 30 23 22 21 22 19 15 14 14 14 14 13 10 9 7 8 10 10 9 11 12 10 10 10 10 10 13 16 14 17 17 16 19 14 16 16 22 22 23 19 16 19 23 26 32
48 47 45 44 41 39 35 33 33 31 24 20 21 23 21 17 15 14 15 16 15 13 10 5 7 8 9 10 9 8 8 10 10 10 11 14 13 12 13 14 16 17 17 18 16 13 13 11 13 13 13 17 22 25
45 42 40 40 39 36 34 31 32 32 28 25 21 22 20 18 16 15 17 18 19 17 13 9 6 7 8 8 8 8 8 8 8 8 11 12 12 13 15 16 17 17 17 17 16 15 15 15 15 14 13 12 14 19
34 32 34 34 34 32 31 30 30 32 33 24 24 22 21 18 16 15 13 16 20 21 16 11 8 7 6 6 7 6 8 7 7 8 9 9 9 10 12 13 12 14 16 16 15 14 14 14 13 14 13 15 16 13
30 30 30 31 29 27 27 29 31 33 37 23 22 22 21 19 17 16 17 18 21 21 18 11 8 7 5 5 6 6 6 7 8 8 8 8 5 5 6 7 8 9 12 13 14 13 14 14 13 13 13 13 14 15
29 30 31 27 27 26 25 29 30 34 37 24 21 22 21 19 17 16 18 20 23 21 16 14 10 9 6 5 5 4 5 5 6 6 6 8 8 5 2 2 4 5 7 8 10 11 11 12 13 13 13 13 14 14
29 29 30 27 25 25 24 26 27 32 35 27 19 22 21 18 18 17 19 24 23 21 18 15 13 10 7 6 6 4 3 4 3 5 4 5 7 8 7 5 4 2 5 6 7 8 9 10 11 12 14 16 17 18
28 27 28 28 27 25 28 27 31 34 33 22 23 22 22 20 20 18 22 26 23 20 17 15 13 12 9 8 6 5 3 0 1 2 2 3 5 5 5 5 6 5 3 2 3 3 5 6 7 8 9 11 12 13
26 26 26 26 25 27 27 27 27 29 26 20 24 24 22 21 21 21 25 26 23 21 18 16 15 14 11 10 8 6 4 3 1 0 1 3 4 6 6 6 5 3 2 1 1 2 3 4 5 6 8 10 11 11
25 24 24 24 22 23 24 24 24 29 22 21 22 23 24 24 23 21 24 24 22 20 19 18 17 15 13 12 10 8 5 5 4 3 3 3 3 3 3 2 2 3 2 0 1 2 3 3 4 6 6 7 9 12
24 23 22 22 21 20 22 22 27 29 21 23 26 25 26 24 21 19 25 25 27 25 21 19 19 18 15 14 13 11 8 7 6 6 6 5 6 6 7 7 7 7 6 5 6 7 7 7 8 8 9 9 10 13
24 23 22 21 23 20 22 26 32 26 22 24 25 24 22 21 21 24 28 29 24 26 22 22 22 20 18 16 15 14 11 8 7 7 9 9 8 7 7 8 8 8 8 9 11 12 13 15 15 15 16 15 15 16
20 20 21 20 21 22 27 31 29 23 22 23 22 20 22 23 23 25 29 27 30 27 25 23 23 22 18 16 15 13 11 10 10 10 10 10 10 11 11 12 12 13 13 15 16 17 18 18 18 18 19 21 20 20
22 19 17 23 24 20 27 24 18 19 22 20 18 21 23 26 27 28 31 31 31 30 26 25 24 22 21 18 17 15 14 14 13 12 12 13 13 13 14 15 15 16 18 20 22 24 24 24 24 23 22 22 24 24
19 17 19 24 22 22 18 18 19 22 20 19 19 20 23 26 26 27 32 28 29 31 29 28 27 25 22 20 20 20 18 18 17 17 17 17 17 18 19 19 20 22 21 22 26 28 30 31 29 26 24 26 27 25
23 23 22 29 26 20 23 23 20 19 20 22 23 23 22 25 27 25 29 33 37 34 34 32 30 27 22 22 23 24 24 20 19 18 22 23 23 25 27 26 25 26 27 30 36 37 40 39 36 26 25 27 29 31
27 29 22 17 18 25 19 18 18 17 18 22 25 24 24 23 24 26 28 32 32 34 35 33 33 28 25 24 26 29 27 24 27 27 26 28 32 27 30 31 29 30 29 32 35 35 37 38 36 23 21 22 24 29
30 31 23 20 15 14 13 13 12 13 14 16 18 19 20 22 23 25 29 32 34 34 32 33 32 31 29 31 33 30 29 29 29 31 32 33 34 37 33 33 36 37 35 36 36 32 37 36 31 18 21 26 24 27
35 23 21 20 14 10 9 9 9 10 11 12 12 13 16 18 22 25 26 28 30 30 32 33 33 29 24 30 30 31 32 32 32 33 33 34 32 31 29 29 31 29 31 27 24 24 26 29 25 13 12 16 25 35
32 27 23 21 18 12 7 6 6 7 7 8 10 13 16 17 16 15 15 17 22 24 25 26 28 26 27 28 27 28 30 31 32 32 30 28 27 26 25 26 26 28 26 28 30 30 19 18 16 17 16 26 30 26
21 20 24 23 16 13 12 9 6 5 3 5 6 6 8 13 16 14 13 15 19 22 22 22 22 23 24 25 25 26 26 28 28 28 27 25 25 27 27 27 27 27 24 23 25 32 21 23 16 13 22 27 25 22
20 12 18 17 16 15 11 10 11 10 7 6 6 7 7 7 9 15 19 18 18 18 19 18 18 19 19 18 18 24 22 20 21 21 22 23 24 27 29 26 25 22 24 24 26 13 17 16 12 16 22 20 20 19
19 17 16 17 15 12 11 10 12 12 9 7 8 8 8 7 7 8 13 16 18 18 17 15 14 15 16 17 18 18 20 22 22 22 25 28 29 27 25 24 24 23 22 20 27 22 14 13 12 14 15 16 17 18
18 18 17 16 14 12 10 10 11 11 9 8 6 4 1 2 6 4 10 5 4 4 6 9 12 13 14 17 20 22 23 24 26 26 22 21 21 20 22 23 23 22 19 18 15 13 14 14 13 13 13 16 17 17
18 18 17 16 14 13 11 10 12 13 14 11 8 8 6 7 8 8 5 9 6 7 9 11 12 14 15 18 18 17 15 14 16 19 21 21 19 16 13 13 12 13 13 14 15 16 16 15 13 13 15 17 17 15
16 15 16 16 15 15 13 12 11 12 15 14 10 8 8 12 13 13 12 9 9 10 10 11 12 15 18 18 15 14 16 15 13 11 10 12 14 14 14 16 16 15 15 15 17 17 17 16 15 14 14 16 16 15
14 15 16 16 16 16 13 10 10 12 13 14 15 15 11 8 12 13 12 12 9 10 10 14 15 10 9 12 13 11 9 11 14 15 16 17 18 19 20 19 19 18 17 17 17 18 19 17 16 16 15 15 15 15
15 15 14 13 13 12 10 10 10 10 12 11 11 11 11 10 10 9 10 10 10 12 14 11 10 10 8 7 8 10 12 15 16 19 21 21 21 21 21 21 20 20 19 19 19 19 19 17 16 16 15 15 15 15
12 12 12 13 14 13 11 10 8 9 9 7 5 4 4 4 3 5 7 9 8 6 7 7 7 8 10 12 14 16 18 20 22 22 22 23 24 24 22 21 20 19 18 18 19 19 18 18 17 16 15 15 16 16
16 14 12 10 10 11 13 13 11 9 7 4 4 4 4 4 3 3 4 6 6 4 6 8 10 12 15 17 19 22 23 24 24 23 21 20 21 21 21 20 19 19 19 18 18 19 19 18 17 17 15 15 15 15

GFSWCAN_500_spd_108.txt.gz
Wind_Speed
40 37 33 31 34 33 32 33 35 33 29 26 25 24 23 19 15 12 11 11 15 19 21 14 16 15 14 15 17 19 16 16 16 14 14 13 22 9 17 14 12 11 20 12 25 27 26 25 24 33 40 38 34 21
37 35 34 33 34 34 35 35 33 34 33 29 27 25 22 18 15 14 13 12 14 19 16 13 14 14 14 15 15 15 17 16 18 16 18 17 21 22 18 14 13 13 15 16 33 26 16 18 41 9 15 26 37 30
36 36 37 38 38 38 38 40 39 35 33 31 28 27 22 16 14 15 15 16 16 16 13 12 12 13 15 14 14 12 14 13 15 14 15 17 20 21 21 19 19 25 7 20 17 24 36 29 21 23 25 24 25 25
39 39 40 40 41 41 42 41 39 36 34 31 30 28 23 18 15 18 16 15 16 14 11 12 12 12 14 11 11 12 13 11 11 12 12 13 18 14 17 18 20 22 16 19 18 22 19 18 22 26 29 26 27 28
41 40 41 41 43 42 42 40 37 35 34 30 29 28 25 21 14 18 16 17 16 16 14 12 10 11 10 11 12 11 9 10 12 12 13 14 18 11 14 15 13 19 20 17 15 16 15 10 12 14 15 18 20 22
41 41 44 44 41 41 37 35 33 31 30 30 29 30 28 24 15 19 17 19 20 18 17 12 13 10 10 10 10 8 9 10 11 12 13 16 10 16 14 15 16 17 16 14 16 16 14 13 15 14 14 11 12 14
40 39 39 37 34 31 31 29 28 28 29 30 30 33 31 23 15 19 14 13 20 20 20 18 16 11 11 8 7 7 8 9 8 9 10 14 8 10 10 12 15 14 17 17 16 14 14 14 14 15 14 16 14 17
34 33 32 31 30 29 28 25 26 27 27 30 30 34 34 20 16 21 16 23 23 23 23 19 17 10 9 7 6 6 8 7 7 8 8 10 7 6 7 8 10 11 12 14 15 15 15 14 13 13 13 13 14 12
30 29 28 29 29 29 25 25 24 22 24 28 30 31 33 20 20 17 19 23 22 22 21 19 18 12 9 8 5 5 5 4 4 6 7 7 8 6 4 3 4 6 8 9 11 13 13 13 13 13 14 13 13 13
27 28 29 28 28 28 26 24 21 21 22 25 23 26 29 17 20 22 21 24 22 23 23 20 19 14 13 11 7 6 5 3 1 3 4 4 5 6 6 4 2 1 4 6 7 8 9 10 10 10 11 12 14 15
26 29 29 27 27 27 26 25 23 23 22 22 24 30 23 21 23 22 23 23 23 25 24 21 20 14 15 13 8 8 7 5 3 2 2 4 5 5 4 3 3 2 1 2 3 4 6 8 9 9 9 9 9 10
28 29 28 26 27 26 25 24 24 23 25 28 23 23 22 21 23 24 23 22 22 25 25 23 18 20 20 15 14 11 9 7 7 6 4 1 3 3 5 5 4 3 2 2 3 4 5 6 7 8 9 10 10 11
29 27 26 25 24 23 22 22 22 22 22 21 25 17 22 23 24 22 21 16 22 23 24 23 22 21 17 20 17 13 10 9 9 9 8 7 7 7 7 6 6 6 5 4 4 4 6 7 8 9 10 12 11 11
26 25 24 23 21 20 19 19 19 20 18 17 21 21 23 22 20 19 19 17 23 27 26 25 25 22 21 20 19 16 12 8 8 10 11 9 9 9 9 9 9 8 7 7 8 9 9 11 12 12 14 15 16 16
24 23 24 22 19 19 18 18 20 20 20 30 20 21 21 18 18 19 20 23 29 28 26 27 26 23 24 23 21 20 16 13 11 12 13 8 11 10 9 10 10 11 11 12 12 12 12 13 16 17 19 21 21 23
22 22 22 19 18 19 19 19 20 20 26 37 25 21 17 21 20 19 21 24 16 24 28 28 27 25 26 24 23 21 18 15 14 15 13 10 11 10 11 11 12 14 16 17 17 17 18 19 20 21 22 25 27 27
20 21 21 19 18 18 16 12 17 18 31 30 19 20 20 20 19 21 21 24 34 34 29 30 27 26 24 26 25 21 20 19 18 17 13 8 12 15 14 15 16 17 19 21 22 22 22 23 24 26 29 32 32 29
20 20 21 20 19 18 17 27 26 20 28 25 21 21 23 21 22 20 22 23 31 30 31 27 28 26 26 25 24 22 22 22 19 20 18 15 15 19 20 21 23 22 22 24 26 28 26 29 33 28 27 29 38 37
20 21 19 16 24 19 22 17 21 19 17 21 22 22 22 22 22 21 20 31 29 35 33 37 32 26 25 24 22 28 28 26 24 21 19 20 25 23 24 24 27 30 30 30 29 31 32 33 37 38 39 33 29 26
17 20 20 17 23 22 27 23 21 23 26 22 21 24 24 23 23 25 23 19 13 27 32 43 34 29 29 28 31 26 28 29 31 27 27 28 28 31 30 30 29 34 33 32 33 33 35 35 36 36 29 25 22 23
19 24 23 18 15 29 21 21 20 21 19 20 23 24 23 22 21 22 27 30 33 28 28 25 34 32 31 27 29 32 37 29 23 22 25 30 33 34 34 39 36 30 34 31 26 27 31 28 27 26 30 26 21 16
20 25 26 21 13 16 18 16 16 15 14 15 17 16 19 20 20 21 23 28 30 28 28 33 35 36 37 41 37 38 38 35 40 31 32 36 38 37 36 35 33 27 32 28 27 27 27 28 29 31 28 19 24 16
19 25 26 18 18 17 15 13 9 9 12 14 16 16 15 14 14 13 18 20 24 27 29 31 34 37 38 34 35 32 37 32 34 33 31 35 37 36 36 35 30 26 29 30 31 31 27 27 30 27 21 21 16 15
20 29 25 22 23 19 13 10 7 7 7 8 9 8 8 8 11 15 17 18 20 23 25 26 27 28 29 29 26 31 37 32 30 30 31 31 30 23 24 29 26 26 28 30 30 28 30 28 20 12 15 18 13 20
22 20 21 24 18 13 11 10 12 12 8 4 5 3 2 3 5 6 10 15 14 10 9 9 12 14 18 23 27 28 31 34 29 24 25 21 17 22 24 29 30 30 29 28 27 28 31 26 18 16 18 17 18 21
22 21 19 26 19 14 11 11 13 13 11 11 9 11 9 10 9 8 9 8 15 18 9 17 15 14 21 23 20 14 19 21 22 21 23 24 26 27 27 26 25 23 24 25 25 26 24 23 17 16 18 17 16 16
21 19 19 19 16 14 13 13 14 15 12 9 7 5 4 3 8 6 7 6 12 11 16 10 10 14 19 24 21 16 19 23 25 26 25 24 23 22 24 25 24 21 19 18 17 17 16 15 16 17 17 16 17 17
19 18 16 17 15 14 13 13 15 11 7 10 7 4 3 4 2 7 8 6 4 4 2 7 10 13 15 17 18 19 20 20 19 17 18 21 19 15 13 16 17 17 17 18 18 18 18 18 19 19 19 19 18 17
17 17 17 16 16 14 13 12 14 15 14 12 9 8 6 6 7 7 7 7 6 6 10 12 13 12 14 16 19 20 16 14 15 12 11 14 16 17 18 19 21 21 22 22 22 22 21 20 19 20 21 20 18 16
16 16 16 17 15 15 14 11 9 11 11 13 14 12 6 9 4 8 12 11 8 8 9 10 12 17 14 12 13 10 8 10 11 15 17 18 20 22 23 24 25 25 25 25 25 24 23 22 21 21 18 17 16 16
14 15 15 15 16 15 13 12 11 10 10 12 13 14 15 14 13 13 8 7 6 8 11 15 13 11 11 9 10 12 13 15 18 21 23 25 25 25 25 24 24 24 24 25 24 23 23 22 20 18 17 14 16 17
15 15 15 16 16 15 12 9 9 8 8 8 6 6 8 9 5 4 4 6 6 7 8 8 8 8 11 13 14 16 19 21 23 24 25 25 24 22 22 22 22 22 22 22 23 22 20 17 17 16 18 17 17 15
15 16 15 13 12 11 9 9 11 9 6 7 6 5 4 2 1 4 5 5 5 5 7 9 11 13 15 17 19 21 23 23 23 24 24 24 24 24 23 22 22 22 22 22 21 20 19 16 17 18 17 16 15 15

GFSWCAN_500_spd_111.txt.gz
Wind_Speed
51 51 51 48 39 34 31 29 27 27 27 27 28 28 26 24 23 18 15 16 19 18 20 19 14 15 17 13 17 15 19 20 18 18 17 18 23 20 18 14 16 12 26 32 23 26 30 29 40 36 32 42 44 44
41 37 37 34 33 32 32 32 31 31 30 30 30 29 28 25 25 19 16 15 15 17 18 11 14 16 18 14 15 16 19 20 20 16 17 16 19 23 20 23 12 15 16 22 21 29 26 25 24 35 31 38 36 39
38 37 36 34 34 33 33 34 34 33 33 32 31 30 28 27 24 20 18 17 19 17 16 17 16 16 14 12 14 15 17 13 15 14 15 15 18 21 15 17 18 19 17 15 16 26 26 35 37 13 18 18 21 18
38 36 35 37 37 36 36 37 36 36 35 35 30 29 28 28 25 20 19 17 19 18 15 20 12 14 12 8 12 13 14 13 12 11 13 13 15 19 18 13 18 18 15 15 16 17 16 18 21 20 17 15 18 19
39 39 37 38 37 36 36 37 38 37 37 34 30 28 26 26 26 21 20 17 22 21 16 13 11 11 9 8 11 11 10 11 11 12 12 14 16 17 17 14 13 16 16 18 16 16 11 10 10 4 10 10 11 15
39 44 41 41 38 36 36 38 36 34 31 29 27 26 26 26 27 22 23 18 19 19 17 16 11 12 7 8 8 8 8 9 10 11 12 13 12 15 17 15 17 21 13 13 13 13 11 12 9 5 7 12 13 11
40 41 44 40 35 35 34 31 28 28 26 25 25 25 26 25 25 25 22 17 19 19 21 21 18 12 10 6 7 6 7 8 9 9 9 12 8 11 10 11 18 9 9 17 15 13 12 13 13 12 11 11 13 13
40 36 33 32 32 29 28 27 27 27 24 24 22 20 22 24 24 26 27 21 24 23 24 22 19 11 9 8 7 6 5 7 7 8 7 9 10 10 8 8 10 13 10 13 12 15 15 13 14 12 12 12 13 14
30 30 30 29 27 27 26 25 23 23 22 19 17 17 18 20 22 26 27 24 25 27 23 20 20 14 11 10 8 7 6 6 5 5 7 8 8 10 10 8 5 5 8 9 10 11 11 13 13 12 12 14 12 13
28 29 28 27 26 24 25 24 22 21 19 17 15 14 18 16 22 25 27 25 25 25 22 21 23 19 15 13 10 9 8 7 6 2 3 6 8 9 10 10 9 5 1 4 6 7 8 9 11 11 13 14 16 14
28 26 26 25 24 22 23 23 22 20 19 16 15 14 14 18 19 28 26 24 23 23 19 22 28 16 17 16 14 12 10 9 7 3 1 2 4 7 9 10 9 8 7 4 0 3 5 6 8 10 12 14 15 12
21 22 23 24 25 23 22 22 22 20 19 18 16 19 21 21 22 29 26 23 20 20 20 29 26 20 17 17 16 14 13 12 11 9 6 3 5 5 6 6 7 7 7 4 3 2 3 3 5 6 8 9 10 12
24 27 27 27 26 24 22 21 21 20 18 16 17 16 19 22 26 29 21 17 16 15 23 29 28 26 23 20 18 18 15 14 15 13 11 8 10 6 7 8 7 5 4 4 4 4 4 5 6 7 9 11 9 11
29 29 27 27 25 22 22 21 19 17 15 14 18 15 23 19 20 19 18 17 18 18 25 29 29 25 21 24 24 19 18 17 15 12 11 7 11 10 9 7 7 6 5 5 5 5 6 7 9 11 13 15 19 20
25 24 23 23 23 21 20 20 18 15 14 15 16 17 21 18 23 22 17 18 16 24 24 26 28 25 22 25 25 21 21 18 14 13 9 8 11 9 8 8 8 9 10 11 12 11 11 12 13 14 16 19 21 22
22 22 22 23 21 19 18 19 18 17 16 15 16 19 24 25 26 21 18 21 26 25 27 23 27 22 25 26 26 24 22 19 21 19 13 9 11 10 10 10 11 12 14 15 15 16 16 17 17 17 18 21 24 26
23 23 21 21 19 18 18 17 18 19 13 9 22 24 22 22 23 20 22 25 20 26 32 38 33 35 34 29 28 25 22 22 24 21 14 11 12 13 13 12 13 14 15 17 19 21 23 24 24 26 27 28 28 26
22 21 20 20 19 19 17 18 20 20 19 16 16 28 23 26 20 20 24 26 26 27 30 27 32 31 28 25 23 24 25 26 26 23 16 12 14 17 19 16 16 19 22 23 25 26 27 29 30 31 32 33 35 34
20 20 20 19 18 19 19 19 21 18 18 17 21 29 25 24 20 20 23 26 25 31 22 26 35 25 25 26 26 26 25 29 28 25 25 22 19 20 21 20 21 22 23 29 33 34 34 31 30 32 32 32 31 30
20 20 19 18 19 19 20 20 19 20 17 18 16 22 27 24 22 21 26 27 26 30 35 34 35 32 28 31 21 27 26 22 27 35 29 28 30 28 25 23 25 27 25 26 32 34 31 28 26 26 26 24 23 31
20 18 18 19 19 12 23 19 24 19 18 20 22 20 20 19 19 21 23 26 23 16 26 28 20 26 31 38 39 32 25 30 36 33 32 38 16 18 29 30 29 31 33 31 30 33 35 21 25 29 26 28 32 40
17 17 15 15 15 12 15 17 16 16 17 20 20 22 18 17 18 19 23 23 26 25 21 18 17 22 25 39 27 30 34 37 39 37 35 35 28 35 39 34 35 37 34 27 29 28 31 34 30 32 31 27 30 30
18 18 17 18 16 10 11 15 15 16 16 15 17 19 10 16 17 19 19 19 18 19 22 24 23 26 29 33 35 40 38 40 39 39 39 37 38 32 33 31 33 38 29 24 24 27 29 30 32 31 30 31 22 19
18 17 19 21 15 14 16 14 11 11 11 9 11 12 12 13 13 13 16 18 14 18 20 23 26 25 27 27 30 36 38 36 38 37 38 37 36 32 26 31 28 36 24 23 27 32 32 30 29 29 28 17 14 16
19 21 24 17 18 15 12 11 12 12 10 9 8 9 7 5 4 7 14 21 20 16 17 19 19 22 23 27 28 28 27 28 29 30 32 32 38 37 23 26 30 31 29 27 26 24 24 23 24 24 22 21 21 20
19 24 21 15 17 15 13 11 10 12 11 8 6 4 8 5 7 11 10 10 12 14 17 15 14 17 14 15 16 17 17 19 25 21 16 22 21 22 24 24 26 25 25 26 25 22 21 20 19 18 16 16 18 19
19 17 16 19 20 15 13 12 12 12 9 8 6 3 3 6 10 12 9 7 8 6 17 14 20 15 16 18 14 14 17 17 19 20 20 19 18 16 16 18 18 16 15 17 18 19 19 19 19 18 18 19 19 20
22 20 21 21 18 14 11 11 13 13 12 9 6 4 4 2 2 6 4 7 5 6 5 3 6 8 7 9 12 15 17 17 18 20 22 19 17 13 11 14 18 19 19 21 23 22 22 22 22 22 21 22 21 21
20 19 19 19 16 14 12 13 14 17 3 11 9 7 5 4 6 7 5 7 8 3 2 4 5 6 9 10 14 17 16 14 13 15 11 11 15 18 19 20 21 22 24 25 26 26 25 25 24 24 25 25 22 21
18 18 18 17 16 14 13 11 11 12 11 7 7 8 8 8 6 5 4 4 6 3 3 5 7 9 13 15 14 15 12 10 12 14 16 17 19 22 23 25 26 26 25 24 24 23 23 24 24 25 24 24 24 20
15 15 15 15 15 14 13 11 10 9 8 9 10 8 9 16 13 10 7 3 3 3 6 9 13 15 13 11 12 12 13 15 18 19 22 23 23 24 27 27 25 23 22 21 21 20 20 21 22 22 22 21 16 16
14 14 14 14 14 13 11 9 8 7 7 6 7 4 3 3 1 1 3 3 5 6 9 10 7 9 12 13 15 17 20 21 21 22 24 26 26 24 22 24 25 25 24 23 21 21 22 23 22 21 20 17 15 13
13 14 14 14 14 12 10 7 6 6 6 5 6 6 5 3 1 3 4 2 2 4 7 10 11 13 15 17 18 20 21 23 24 26 26 25 25 26 27 27 26 25 25 25 25 24 24 24 20 18 16 14 12 13

GFSWCAN_500_spd_114.txt.gz
Wind_Speed
44 46 46 46 47 45 42 38 33 29 27 26 25 24 23 23 23 24 24 23 21 19 23 19 15 8 15 17 19 15 16 13 16 16 18 22 20 15 12 12 13 12 14 16 27 31 27 28 33 35 36 37 37 39
40 35 35 36 36 31 30 27 28 28 28 27 27 26 25 25 25 28 25 22 20 20 22 19 9 14 18 17 16 14 15 15 14 15 15 16 21 17 15 14 15 16 17 16 14 25 29 28 25 30 36 37 34 37
32 33 32 32 31 32 30 30 31 30 31 29 29 29 27 27 27 28 26 20 23 22 21 18 15 17 17 14 13 16 14 13 14 15 17 18 19 19 14 12 12 14 18 18 14 15 21 23 32 24 26 28 44 37
42 42 38 34 34 35 34 33 33 33 31 30 30 31 29 27 26 27 24 22 25 24 18 19 15 17 14 12 14 12 12 12 14 13 15 16 17 17 14 15 14 12 14 17 13 14 10 15 20 21 26 35 16 30
37 36 34 37 37 38 37 35 33 32 31 31 32 31 28 26 25 26 24 24 24 22 15 20 15 17 12 13 13 10 9 10 11 12 14 15 14 17 16 15 18 15 16 16 15 15 14 11 9 8 10 12 15 15
37 36 32 35 36 35 39 38 35 34 31 30 28 26 24 23 23 23 23 20 23 23 18 20 16 17 13 13 10 8 7 8 9 9 11 11 11 14 13 17 19 19 20 15 15 16 15 13 11 13 13 16 15 14
36 33 32 32 33 30 34 37 34 30 29 26 22 22 23 23 21 22 21 18 24 24 18 20 22 18 18 14 11 9 6 7 9 8 8 8 9 12 12 13 9 8 9 16 13 11 13 13 13 13 14 13 12 13
31 30 29 30 31 30 28 27 27 25 24 24 21 21 20 19 19 20 20 20 17 28 24 24 22 21 18 15 13 10 6 7 10 9 8 9 10 10 10 10 5 4 9 11 14 13 12 11 12 13 13 13 14 14
30 29 28 25 22 22 24 24 23 22 21 20 18 16 16 15 18 20 19 20 18 30 30 23 22 23 19 17 14 12 10 6 7 7 7 8 10 11 12 14 13 3 2 5 5 9 10 13 14 15 15 13 11 11
26 23 22 22 22 21 20 21 21 19 18 18 17 15 16 15 16 17 21 25 22 28 30 20 24 24 22 20 16 14 12 9 6 5 4 5 6 9 11 13 15 13 7 4 2 4 7 9 11 12 14 12 11 12
24 23 23 23 22 21 20 20 19 18 16 16 16 16 16 15 19 18 19 22 24 29 20 19 26 26 24 19 15 13 12 10 9 9 5 5 5 8 9 10 12 11 11 8 5 6 6 3 1 3 4 5 5 7
23 22 22 22 19 17 17 18 18 16 17 17 16 19 17 16 17 20 19 17 22 25 16 24 29 24 21 22 19 16 16 13 13 12 8 8 7 6 7 7 7 7 8 8 8 7 6 5 4 3 3 3 3 2
26 24 22 18 15 17 19 20 17 17 17 17 18 18 20 21 19 16 14 18 20 14 20 27 28 27 28 24 23 21 18 14 16 15 12 12 11 10 9 8 5 3 3 3 2 3 4 5 6 7 9 8 9 9
26 27 28 27 27 24 22 21 18 16 16 17 16 18 21 22 15 12 22 31 25 22 25 27 29 29 28 26 25 22 19 20 15 11 13 12 11 10 9 8 4 1 1 1 1 1 3 3 4 6 9 13 14 15
28 26 30 28 23 22 21 19 17 17 18 16 17 18 18 21 17 20 25 25 23 25 28 29 31 30 27 28 28 26 22 20 12 13 11 10 13 12 9 6 4 5 5 4 4 6 8 9 10 11 14 16 16 14
32 29 18 16 18 17 17 18 18 18 17 15 16 16 19 23 18 19 24 22 24 24 22 24 26 25 31 30 26 24 20 16 16 18 17 13 14 12 10 8 7 7 6 5 7 10 11 12 13 16 18 21 23 23
23 14 15 16 16 16 16 17 17 18 15 13 15 17 21 25 25 22 25 25 26 27 22 24 19 27 30 27 28 23 17 19 20 22 21 19 17 18 15 12 12 10 9 10 11 13 16 18 21 21 21 22 25 25
14 15 16 16 17 16 17 18 17 15 16 16 10 21 26 23 21 25 29 24 27 29 26 32 35 19 21 28 23 23 24 23 24 24 24 21 20 23 21 20 15 13 14 16 17 20 21 21 22 24 25 25 25 26
16 16 16 17 18 18 18 19 16 12 16 22 18 16 29 28 26 26 28 27 31 35 30 28 32 38 29 30 27 27 25 22 25 28 26 23 19 23 24 21 22 22 23 23 23 26 29 30 28 25 22 21 21 22
18 17 17 19 19 16 15 15 14 14 19 18 16 10 14 26 26 28 28 30 33 33 32 28 25 30 32 30 25 30 29 25 26 27 25 24 24 25 25 27 26 27 25 27 31 34 35 34 32 27 32 22 21 20
17 17 18 17 15 15 13 11 15 16 16 18 18 17 13 17 25 27 28 29 29 25 22 21 28 28 21 31 26 23 28 26 26 20 20 24 25 25 29 30 29 26 28 33 38 40 39 34 30 37 22 27 26 29
17 17 16 14 14 13 13 11 17 15 18 15 13 16 18 18 21 21 27 27 22 21 22 21 24 29 28 25 26 28 33 20 20 29 31 30 30 30 32 32 28 30 30 31 34 37 36 29 27 28 28 28 27 27
17 16 16 14 13 13 10 12 15 14 14 14 13 16 16 15 17 21 22 23 21 19 20 19 16 17 27 26 23 22 25 38 35 33 36 32 32 33 33 36 38 36 39 38 32 33 30 27 27 29 31 30 29 25
16 15 16 14 15 13 8 8 10 11 12 12 11 11 16 8 15 14 11 14 16 16 17 19 22 23 27 29 26 29 26 23 33 36 34 30 29 33 36 35 36 41 41 31 25 22 26 28 29 29 28 26 24 22
16 17 15 15 16 11 10 9 9 10 11 9 8 10 7 5 8 9 10 9 12 13 15 15 11 12 14 17 19 23 24 26 27 27 22 23 25 30 23 24 23 20 21 22 24 25 24 24 24 23 23 24 23 23
18 16 20 20 17 16 18 13 10 7 7 9 9 12 9 8 7 6 6 5 9 13 15 18 20 15 12 12 12 15 16 16 16 14 14 13 12 14 17 19 22 23 22 20 18 17 15 15 17 17 17 18 18 18
20 25 21 20 20 15 6 10 8 9 11 4 13 8 4 2 2 2 4 5 5 7 11 14 14 14 10 7 14 12 12 12 13 16 17 16 14 16 17 17 17 16 15 14 16 17 17 19 21 21 21 20 21 22
25 19 17 18 20 16 14 10 9 8 8 2 6 7 5 3 4 1 3 3 3 2 4 4 7 9 11 12 10 7 9 12 14 15 18 18 17 16 16 14 14 17 18 19 21 22 23 24 25 25 24 23 22 22
23 23 23 21 16 13 9 8 8 9 4 5 2 2 1 6 2 5 5 4 3 1 3 3 5 6 7 8 8 8 11 11 11 12 12 11 10 13 16 19 20 21 23 24 26 26 26 25 23 22 21 20 19 19
19 18 17 16 13 12 9 9 9 13 4 3 2 2 1 2 7 10 4 3 3 4 5 5 6 8 9 10 10 8 8 9 9 10 12 15 18 20 22 24 26 26 26 26 25 23 22 21 20 19 17 16 17 18
18 18 17 15 13 12 11 11 10 9 6 3 3 2 2 2 4 6 4 3 2 3 2 4 5 6 4 3 6 8 9 11 15 18 19 20 22 24 26 27 26 25 23 22 23 23 22 21 20 18 16 16 17 16
13 13 13 12 11 8 7 7 6 5 3 2 3 3 2 2 3 4 1 2 2 4 6 7 8 8 9 13 15 16 17 17 18 20 23 25 25 24 24 26 25 25 25 26 24 22 22 22 22 20 18 16 16 15
14 14 14 14 14 13 11 8 5 4 4 7 6 4 5 5 4 4 2 3 4 5 6 8 10 11 13 13 15 17 19 20 22 24 25 26 27 29 29 27 29 29 28 27 27 26 25 23 22 19 18 17 16 16

GFSWCAN_500_spd_117.txt.gz
Wind_Speed
43 43 45 46 41 35 35 36 38 38 30 26 26 26 24 24 24 24 24 25 24 24 28 25 19 16 15 15 19 19 18 14 17 18 19 19 19 17 15 18 20 17 13 16 18 23 26 26 29 37 36 30 37 41
36 34 31 28 33 33 31 29 30 27 24 23 24 25 25 25 26 26 25 25 24 25 28 28 16 16 16 17 17 17 16 14 16 19 19 19 18 15 15 17 19 20 21 20 19 17 22 29 25 32 39 38 38 32
31 30 29 31 29 27 29 29 28 28 28 27 27 26 26 26 28 29 27 25 24 25 27 28 17 17 20 16 20 17 14 14 18 19 19 18 17 17 14 15 15 17 18 19 20 17 14 15 22 21 25 27 27 27
31 31 31 33 33 33 34 32 30 29 31 31 30 29 26 27 29 31 30 26 25 25 26 23 20 18 19 18 18 15 13 16 15 15 16 16 16 17 16 14 16 18 18 19 20 19 16 11 16 22 24 26 21 20
34 33 32 31 30 31 32 32 33 32 33 34 30 29 25 28 30 31 30 25 23 23 21 24 22 18 19 20 17 14 13 15 13 13 12 12 14 17 17 18 17 18 17 15 15 19 19 15 13 19 21 19 22 21
34 34 33 31 31 31 29 30 31 34 36 34 33 29 29 27 26 25 24 22 22 22 22 25 21 16 19 19 17 14 14 14 11 10 10 10 12 14 16 16 14 15 17 17 16 19 23 19 15 15 16 12 16 16
32 33 32 31 30 28 26 27 27 26 29 32 33 29 27 23 23 23 20 18 23 23 23 26 25 20 19 19 16 14 12 12 10 9 9 8 10 12 12 12 12 15 16 15 19 18 17 17 18 17 17 16 18 20
32 33 30 29 27 25 24 26 29 28 27 29 26 26 25 22 23 22 19 21 23 24 28 26 24 20 19 17 18 15 13 13 11 8 7 8 8 8 9 9 7 9 10 11 20 16 17 19 18 18 17 15 16 17
33 31 29 27 26 25 24 24 22 23 21 22 24 24 23 22 22 18 19 22 24 25 25 23 20 21 23 23 21 18 16 14 11 9 6 7 8 10 9 8 8 3 4 6 10 13 15 17 18 17 16 16 14 14
31 29 27 24 23 23 21 21 20 19 18 19 21 21 21 18 15 15 19 23 25 26 20 24 27 22 24 26 22 20 20 13 10 10 6 5 7 9 11 12 13 11 7 8 8 10 12 13 14 13 12 12 12 14
29 28 26 25 23 22 21 20 19 19 18 19 20 20 20 18 17 17 22 24 24 24 21 21 29 24 25 27 24 21 20 15 13 10 7 6 5 8 10 10 11 12 13 11 9 8 9 8 9 11 12 12 13 14
29 28 26 26 24 22 21 19 18 17 18 18 21 22 21 19 20 21 22 23 19 20 23 20 27 25 26 28 25 22 21 18 14 12 9 10 6 7 8 8 7 6 7 9 10 10 10 10 10 10 11 12 12 12
32 29 27 25 22 21 19 17 16 16 17 19 20 21 20 21 22 18 16 17 15 11 21 28 28 28 30 31 29 25 25 21 18 13 11 13 9 9 7 6 5 1 1 2 3 5 5 5 5 5 5 4 4 4
31 29 30 26 24 23 21 19 16 17 18 19 21 21 21 21 21 20 22 24 25 31 35 30 31 31 29 32 30 28 27 22 18 10 14 13 11 11 9 7 4 3 2 1 1 1 2 3 4 4 4 4 5 7
28 28 30 24 26 25 28 27 28 23 21 21 20 18 17 21 21 21 20 19 35 41 33 31 32 31 30 32 32 28 26 26 16 15 16 13 12 11 9 9 8 8 6 6 5 4 4 6 7 7 9 12 13 14
25 26 25 24 26 26 24 26 26 27 22 21 17 16 18 19 21 20 17 17 27 29 25 24 26 26 25 30 32 29 23 17 15 20 19 17 15 11 9 10 10 9 9 9 7 6 6 7 8 11 13 15 17 19
22 22 22 27 24 19 18 20 22 21 21 15 15 17 18 18 21 19 17 18 22 23 23 25 26 25 25 27 27 24 16 18 22 22 21 21 19 16 13 13 13 13 11 11 10 11 12 13 15 18 21 22 21 21
23 24 19 19 18 17 18 19 18 15 14 20 20 22 22 24 26 23 19 16 22 25 25 25 25 24 21 23 25 25 24 24 25 23 22 22 21 19 17 16 16 17 16 15 14 14 15 18 20 22 25 28 28 24
20 18 17 16 16 16 16 15 14 14 18 20 20 19 19 27 30 31 26 28 24 26 26 29 25 26 21 17 21 26 25 28 27 23 23 24 22 21 21 21 21 21 21 20 18 21 22 22 24 27 29 28 30 26
16 14 15 15 14 14 13 12 12 15 17 20 23 22 18 24 33 29 27 28 34 33 29 26 25 23 27 31 19 17 20 24 24 23 26 25 23 24 24 24 23 21 21 27 27 27 29 30 30 35 36 33 30 31
12 13 13 12 11 10 11 11 13 16 17 19 16 18 15 17 25 30 30 28 27 26 29 29 33 35 27 35 34 29 31 27 20 21 23 22 22 23 23 24 28 25 25 31 29 30 31 32 32 34 29 27 28 21
14 14 14 13 10 10 11 11 10 15 16 16 17 17 15 15 14 17 24 26 23 24 24 28 30 30 25 28 33 34 38 28 25 24 31 31 30 28 25 26 30 31 32 35 33 32 30 30 33 31 32 30 28 29
14 14 12 11 11 11 11 11 8 13 12 12 13 11 12 13 16 17 17 19 22 24 24 24 26 22 20 23 25 26 25 22 22 26 26 27 31 31 31 28 31 35 35 35 38 38 37 34 30 33 36 33 31 32
14 13 13 13 13 13 10 8 9 12 12 11 12 11 11 12 7 10 9 17 20 20 13 15 18 18 16 14 15 22 27 25 24 26 26 27 26 26 27 29 33 34 35 33 28 34 32 32 35 31 32 29 28 28
16 15 14 15 15 14 8 7 7 9 10 10 8 7 8 7 8 12 11 8 12 18 14 11 13 13 11 12 15 16 21 21 26 26 27 26 27 29 27 29 29 28 26 25 24 22 19 23 27 27 27 27 25 24
16 16 17 16 16 13 12 14 15 11 7 4 8 11 9 7 6 6 9 8 9 11 12 13 14 16 13 12 15 19 22 18 17 18 17 17 17 20 21 19 19 21 22 23 23 21 21 21 21 19 20 23 22 21
19 19 19 20 20 23 15 10 10 6 6 4 7 10 8 5 4 5 7 3 5 5 6 10 12 13 14 14 17 14 10 11 13 14 14 16 18 18 18 18 20 21 21 20 18 16 17 20 22 23 24 26 26 25
24 25 25 25 21 11 11 7 9 13 11 19 15 11 6 5 3 7 7 4 3 6 2 2 9 10 12 11 10 9 13 11 11 12 15 17 19 20 20 20 18 16 16 19 21 22 22 24 26 27 29 29 28 27
23 22 25 22 16 13 12 10 10 8 11 10 9 7 7 7 7 8 9 8 7 6 5 4 3 1 3 4 5 7 8 13 14 13 15 15 15 14 15 16 18 21 23 24 26 27 28 29 30 30 28 26 24 23
24 21 21 18 14 11 9 11 14 16 12 8 6 6 6 9 11 6 3 2 2 2 3 4 4 1 3 5 7 11 13 13 14 15 15 16 17 19 21 23 25 27 28 29 28 28 28 27 25 23 23 23 23 22
22 20 19 16 14 10 8 9 10 9 3 2 4 4 4 4 0 3 3 1 3 4 2 1 5 7 7 6 6 9 11 13 16 18 19 20 22 25 26 26 26 25 25 25 25 24 24 24 25 24 23 21 21 20
18 16 13 13 12 11 10 9 8 7 7 5 4 4 5 4 3 6 5 4 4 5 4 4 3 5 8 10 11 13 14 17 20 22 22 22 21 23 25 24 25 26 26 25 25 24 24 23 23 23 23 20 19 17
17 17 15 14 13 14 13 12 10 8 7 7 5 2 3 5 4 3 3 2 1 2 4 7 10 10 11 13 15 17 18 19 19 21 22 23 25 25 25 26 27 28 27 27 28 28 26 24 21 19 17 17 17 13

GFSWCAN_500_spd_120.txt.gz
Wind_Speed
36 33 30 29 29 31 32 30 29 28 28 26 28 28 28 28 29 25 23 21 25 23 29 29 30 24 20 16 15 18 20 19 20 19 20 20 23 24 24 23 21 20 20 19 21 22 23 23 23 24 26 32 31 27
31 28 26 27 28 29 25 23 25 25 25 23 23 24 24 25 26 25 23 24 23 24 29 30 29 23 21 15 16 19 20 20 19 16 18 20 23 21 19 18 19 19 22 23 23 23 21 20 24 25 22 24 31 32
29 30 27 26 26 27 26 25 27 26 25 26 27 28 28 29 28 27 24 25 26 26 31 31 27 24 21 19 18 20 19 21 17 16 18 19 18 18 16 15 17 20 21 21 22 25 24 22 24 27 26 23 21 27
28 28 28 27 26 25 26 26 27 27 29 29 28 28 29 31 31 29 23 24 28 29 30 29 27 22 22 20 21 21 20 17 15 16 17 16 17 16 17 17 17 17 19 18 17 19 21 19 19 22 26 22 20 18
29 29 28 27 28 27 26 26 28 28 29 29 30 30 30 31 29 24 21 25 27 28 26 26 24 21 23 19 20 22 16 15 16 12 12 13 16 17 18 18 16 19 22 21 19 19 19 21 20 19 24 24 21 22
29 27 28 27 27 27 27 27 27 27 26 27 29 30 31 32 30 26 26 25 24 25 26 25 22 21 23 21 21 20 16 15 13 10 11 12 14 16 16 17 18 19 19 18 18 19 18 20 20 17 18 21 22 21
27 26 26 26 26 27 28 28 26 25 24 26 27 26 27 29 31 28 25 22 24 24 25 25 23 22 22 22 21 17 17 17 13 9 9 8 10 12 14 16 20 18 17 16 17 22 18 19 23 17 17 20 22 24
28 29 27 28 28 28 26 26 25 23 23 25 27 29 29 28 28 24 23 22 23 25 27 27 26 25 22 18 19 19 18 17 11 8 7 7 8 10 12 15 16 11 9 8 12 16 21 20 19 17 19 20 17 17
30 30 28 29 29 27 26 26 24 22 23 23 24 26 25 24 22 22 23 24 25 27 27 25 23 24 23 23 21 20 19 16 11 11 4 5 5 7 10 11 11 5 4 6 8 11 14 17 18 18 18 17 15 16
31 31 31 30 27 26 24 24 22 22 22 22 22 22 20 21 22 22 21 22 24 26 27 22 26 25 22 24 22 22 21 15 13 13 7 5 5 8 9 10 12 12 3 6 9 13 15 15 16 17 16 15 14 15
33 32 30 26 25 25 24 23 22 21 22 21 20 20 20 20 21 20 20 20 21 22 21 22 26 23 27 24 25 24 22 18 15 15 9 7 5 6 9 8 8 9 11 7 6 9 10 12 14 14 14 14 13 13
30 28 27 26 25 25 25 24 24 22 22 21 20 21 20 21 22 22 20 18 18 21 21 25 28 28 29 27 26 26 25 21 17 16 12 10 6 5 7 7 5 4 6 8 9 9 8 9 11 11 11 12 11 10
30 31 30 29 29 27 26 25 24 22 20 19 20 18 18 22 23 21 18 19 22 26 25 30 33 27 33 30 29 28 28 24 20 16 13 15 11 8 7 4 5 2 3 4 7 8 9 10 10 9 7 6 6 6
33 32 31 30 29 28 27 24 22 20 18 18 18 19 22 21 21 19 20 19 19 22 23 26 29 33 36 32 29 31 29 25 22 15 18 16 12 11 8 5 4 3 1 1 2 4 5 5 4 4 4 5 6 7
33 32 31 29 28 28 27 25 24 22 19 17 17 19 19 22 21 21 22 22 23 21 22 27 30 31 33 29 30 31 30 27 18 18 19 16 12 11 8 7 5 6 5 4 5 4 2 2 3 3 3 4 5 7
29 30 29 29 27 29 27 28 29 29 27 24 21 21 22 20 19 18 20 21 22 21 21 28 30 30 26 26 29 33 31 22 16 23 22 19 15 13 10 6 5 7 8 8 8 7 6 4 4 5 5 6 8 10
25 26 24 23 25 27 25 28 27 28 30 29 24 26 23 21 20 20 20 18 15 12 18 25 26 25 22 22 23 27 30 23 20 22 23 22 19 17 16 11 9 10 11 11 11 12 12 10 9 10 10 11 12 14
21 19 21 21 21 24 27 28 23 21 20 17 23 27 24 23 20 18 19 17 14 14 15 17 25 24 22 21 21 22 22 24 26 26 25 24 22 21 20 19 15 15 15 15 16 16 17 17 17 17 17 19 20 23
18 17 20 27 20 19 19 18 17 17 19 23 25 24 21 22 21 22 20 18 16 19 17 18 20 22 21 23 22 25 24 27 29 25 24 25 25 24 24 23 23 22 21 20 20 21 22 21 22 24 26 27 27 28
23 19 17 19 17 17 17 18 20 18 19 22 23 17 16 19 21 23 27 23 24 20 19 16 20 23 25 26 24 23 26 30 31 25 24 25 24 24 25 26 28 27 23 24 26 26 26 26 29 29 31 33 34 29
16 19 18 15 15 16 16 16 16 17 21 21 19 17 18 17 14 18 27 29 27 25 26 25 23 24 27 27 30 21 21 23 25 26 23 26 28 23 22 23 26 30 30 29 29 30 30 28 28 31 31 33 35 32
18 17 14 14 13 14 14 14 14 13 16 15 13 15 15 16 13 14 17 21 22 22 22 25 28 29 27 29 27 22 23 28 29 28 22 18 20 22 22 23 26 29 33 32 32 33 35 34 36 36 37 36 33 32
12 13 14 14 12 12 11 11 9 8 11 11 12 14 13 13 12 11 8 10 14 21 27 26 25 26 27 29 28 22 19 22 29 32 34 28 27 24 28 33 37 36 34 36 36 37 37 38 36 36 36 37 35 29
12 12 12 11 12 12 10 10 8 7 12 10 12 11 9 9 9 11 12 12 14 15 17 21 24 24 21 23 20 19 17 19 24 19 22 26 26 27 28 30 29 31 29 31 35 36 33 33 29 25 25 26 27 27
11 12 12 13 13 12 8 6 9 10 10 10 10 10 10 10 10 9 7 9 8 11 14 15 15 23 27 23 26 21 19 18 19 24 26 27 33 33 32 31 27 29 31 31 29 30 31 28 28 28 26 25 27 27
14 14 14 15 15 13 10 11 13 11 7 6 8 9 9 6 4 4 6 8 8 9 14 20 16 14 17 18 15 15 16 17 18 21 21 23 22 20 20 19 20 21 20 20 21 22 23 24 25 24 23 23 22 21
17 17 19 18 18 19 20 11 5 4 6 6 9 9 7 7 6 2 6 2 7 9 9 10 12 14 14 14 14 14 13 13 16 14 13 13 15 18 20 22 23 23 22 23 24 24 23 21 19 20 22 23 23 25
20 20 21 21 25 15 12 11 10 9 8 7 10 8 5 4 4 7 5 3 3 4 3 8 10 6 9 12 12 10 5 9 12 12 12 15 17 18 19 20 21 21 21 20 19 19 21 23 24 25 26 27 28 29
23 26 29 25 15 16 11 11 16 18 12 18 14 8 2 5 4 6 7 5 6 2 5 8 8 6 5 5 5 6 8 9 10 12 12 13 15 16 16 16 16 18 20 22 24 25 26 28 29 30 29 30 30 30
27 31 24 18 18 15 16 18 16 12 13 11 11 12 14 10 6 6 6 3 4 3 2 4 3 2 2 3 6 8 10 11 12 12 12 13 16 18 19 21 22 24 25 27 28 29 29 29 29 27 26 25 24 25
24 22 17 18 16 16 14 17 15 12 8 6 5 4 4 2 3 4 4 5 5 5 5 2 1 3 2 3 5 8 11 13 15 16 18 19 21 23 25 25 27 28 29 29 28 28 28 28 28 27 26 25 25 24
21 20 19 17 15 17 16 11 10 7 4 3 3 2 2 2 3 3 2 3 2 1 3 4 6 8 9 10 11 14 16 19 20 21 21 21 22 24 26 28 29 28 28 28 28 28 28 28 27 27 26 25 24 22
19 18 18 17 15 16 15 13 10 6 4 2 3 1 3 3 3 3 3 2 1 2 3 4 8 10 12 14 16 18 20 21 21 22 23 24 23 24 26 27 29 30 30 31 31 31 31 31 29 28 26 23 20 17

GFSWCAN_500_spd_123.txt.gz
Wind_Speed
42 40 36 33 27 28 27 25 23 22 21 19 20 22 23 25 26 28 26 24 22 23 26 27 27 21 19 21 21 19 21 21 18 18 19 20 19 19 19 21 22 23 24 25 26 27 27 23 24 25 23 23 25 28
38 34 30 28 28 27 25 23 21 21 18 17 19 20 20 22 23 25 25 26 24 21 25 27 22 19 22 21 20 21 22 21 21 19 19 19 18 19 20 20 20 20 22 24 24 27 26 22 20 22 22 22 22 24
36 32 29 27 25 26 28 24 22 22 23 23 22 22 22 23 24 24 25 26 26 23 29 23 20 24 22 21 23 24 22 21 22 21 19 17 17 16 17 17 18 20 22 25 25 25 27 27 25 21 22 26 23 19
32 31 28 27 25 24 25 23 23 24 23 23 23 24 26 25 23 23 22 24 27 27 23 24 22 24 23 22 20 24 24 20 20 20 17 15 15 13 15 18 18 19 22 23 21 22 23 23 26 25 23 25 27 25
29 27 28 27 24 22 23 25 25 25 24 25 25 27 24 25 25 25 24 22 21 23 21 21 21 24 24 21 22 26 24 22 19 19 15 14 13 16 17 19 18 20 21 23 23 25 23 21 22 23 22 19 24 27
29 28 28 27 25 23 23 23 23 23 24 24 26 26 23 24 25 25 24 24 24 21 17 24 23 22 20 21 24 26 24 16 16 16 12 10 11 16 16 16 18 22 21 20 20 22 21 21 20 23 21 18 22 28
28 28 27 27 24 23 23 22 23 24 24 24 24 23 23 23 23 22 23 25 25 22 23 24 22 21 21 22 27 25 18 15 16 12 9 6 10 13 15 18 20 19 18 16 18 20 20 19 21 21 20 18 17 21
29 29 29 26 25 26 25 25 23 23 23 23 23 21 22 22 24 22 23 23 25 21 23 22 21 20 21 21 22 22 19 16 15 10 9 4 7 10 13 16 19 16 12 10 13 17 20 22 16 17 18 16 14 17
30 30 30 28 26 26 25 25 24 23 23 23 22 22 21 22 21 22 23 22 21 22 19 18 20 21 22 21 20 21 20 18 15 12 9 6 6 8 12 13 15 14 7 3 7 12 13 15 16 18 17 14 11 11
29 30 29 26 25 27 26 25 23 22 22 21 21 20 19 19 20 20 19 19 20 21 19 19 22 23 21 24 22 21 18 19 15 14 10 8 6 6 10 10 12 14 8 4 2 8 8 11 12 16 17 11 9 8
32 31 29 27 29 29 26 23 22 22 20 20 20 19 19 19 18 18 19 16 18 16 15 21 23 24 24 25 22 23 21 20 17 16 11 10 7 5 7 8 7 10 11 7 2 1 4 6 7 9 10 10 9 8
33 30 30 31 30 27 25 23 21 22 21 20 21 20 20 19 18 18 16 16 14 14 15 21 25 24 26 24 26 25 24 22 20 17 13 11 9 6 5 6 4 5 7 8 8 3 3 5 7 7 7 8 8 8
30 30 30 29 28 26 25 23 22 22 22 21 22 21 20 19 17 14 12 14 16 15 18 24 25 25 26 26 27 28 27 25 22 20 14 13 11 8 5 5 3 1 3 4 4 5 6 6 6 7 7 7 8 9
31 31 30 28 28 28 26 26 24 24 21 21 22 19 19 17 14 15 17 15 15 14 20 24 24 24 26 25 30 32 29 26 25 18 15 16 14 12 9 7 4 4 4 4 4 4 5 5 5 5 5 5 5 4
30 31 31 31 30 29 28 26 24 24 22 21 20 18 15 15 17 17 16 17 15 15 18 22 23 24 27 31 30 34 32 30 23 18 25 18 15 14 13 10 7 6 8 6 4 4 5 5 5 4 4 4 4 5
28 29 29 29 29 28 28 26 25 26 26 24 21 17 15 15 15 15 16 17 18 18 17 16 18 23 24 27 31 35 33 28 20 24 26 22 18 17 14 12 10 10 12 11 9 8 8 8 7 6 7 6 6 6
25 26 26 26 26 26 26 26 28 29 29 27 23 27 23 22 17 16 16 15 15 16 17 15 19 22 18 19 20 25 26 24 21 23 26 24 22 19 16 14 13 11 12 12 12 12 12 12 12 12 12 10 10 10
18 19 19 20 21 22 22 25 27 27 25 26 27 27 28 26 21 18 18 16 13 17 13 12 16 19 18 17 19 21 24 24 24 26 27 27 26 23 21 20 18 16 15 16 15 16 16 17 17 17 16 16 16 18
14 15 15 15 17 17 17 21 24 22 23 24 24 26 25 21 20 19 20 18 19 15 13 10 10 15 21 21 21 23 22 21 23 28 30 24 23 23 22 23 23 23 22 20 20 21 21 22 23 22 23 23 24 24
19 18 15 13 17 21 19 17 20 18 16 17 16 14 15 17 18 18 21 22 20 23 16 12 17 15 19 26 23 24 22 21 25 30 33 28 26 26 24 24 26 26 26 24 25 24 24 26 27 28 28 29 28 29
19 22 19 15 15 18 16 13 12 14 16 16 15 14 13 14 15 19 20 22 21 23 17 14 14 16 16 18 21 22 23 24 27 29 30 28 24 27 27 25 25 27 26 26 27 28 28 28 30 30 31 30 31 32
14 16 17 17 17 15 13 12 13 14 15 15 15 13 15 16 15 12 10 12 14 19 22 26 26 23 23 21 19 22 25 25 25 25 26 30 32 28 24 31 32 27 24 26 27 28 30 32 33 32 33 35 36 36
14 16 20 18 12 12 12 11 10 11 11 11 13 14 11 9 12 9 7 8 13 23 27 24 24 21 19 21 21 22 25 28 24 24 30 30 30 28 24 22 22 23 27 29 31 33 37 38 37 33 34 37 37 40
17 17 18 13 10 11 10 10 9 6 10 10 10 10 10 11 10 10 12 13 13 14 15 17 19 23 23 20 19 21 25 25 23 21 23 30 34 30 33 29 27 30 31 30 31 35 34 35 37 38 39 41 37 33
13 13 14 13 12 13 12 11 10 9 11 8 9 10 8 9 8 9 9 8 10 8 12 14 13 16 18 20 20 20 21 21 22 22 23 27 29 31 32 27 31 33 32 32 35 34 31 33 28 27 27 27 27 29
14 14 13 13 14 14 12 13 12 10 7 6 6 5 5 5 4 6 6 6 5 1 2 5 8 7 9 16 21 19 22 17 18 18 15 15 20 24 27 29 29 29 28 28 25 22 19 20 22 23 23 23 24 24
14 13 14 16 16 15 18 17 11 7 5 4 5 7 7 7 6 4 4 1 3 6 6 5 4 7 9 8 11 16 16 17 15 13 14 15 16 17 19 20 21 22 23 23 22 22 22 23 24 23 21 20 21 22
15 16 18 20 19 20 12 12 12 7 6 8 8 6 6 3 3 4 3 1 1 2 3 7 8 8 6 8 8 10 10 11 12 9 8 11 13 14 16 17 19 21 23 22 22 21 21 21 21 22 24 25 26 27
19 21 22 23 18 16 14 14 17 22 19 12 8 7 6 4 3 6 4 5 6 3 4 2 4 7 5 5 6 8 9 9 9 10 11 13 15 15 17 17 16 16 17 18 20 22 24 25 26 27 28 29 29 29
24 26 24 19 16 14 20 17 16 16 14 10 13 16 13 10 10 8 5 3 2 1 1 3 3 1 1 3 5 5 6 7 8 9 10 11 13 15 16 18 20 21 23 24 25 26 27 28 28 29 29 29 28 28
30 24 21 19 16 17 21 15 13 12 12 11 8 3 3 6 8 5 3 5 4 2 3 1 1 4 3 4 5 7 8 9 10 11 12 15 18 20 22 24 25 26 27 28 29 30 30 29 29 29 28 28 28 28
25 23 20 18 16 17 17 16 13 9 7 5 3 4 4 3 2 2 2 3 3 2 3 3 3 6 9 10 12 13 14 16 18 20 21 22 24 26 27 28 28 28 28 29 30 30 29 29 28 28 27 27 26 26
22 22 18 17 17 19 14 11 9 7 6 5 4 4 5 6 6 4 2 1 0 2 4 5 7 9 12 14 15 17 17 19 22 24 25 26 26 26 27 29 31 32 32 32 33 33 32 31 30 29 28 27 26 25